[[[{"header":{"parameterUnit":"kt","parameterCategory":2,"dx":1,"dy":1,"la1":29.587661999999998,"la2":31.0,"lo1":-88.76705300000003,"lo2":-86.6583820000003,"nx":115,"ny":88,"refTime":"2022-10-05T06:00:00:Z","depth":0,"parameterNumber":1,"parameterNumberName":"U-component_of_WINDS"},"data":[7.5241,7.5241,7.5241,7.5241,7.5241,7.5241,7.5241,7.5241,7.5241,7.5241,7.5419,7.5562,7.6133,7.6275,7.756,7.7988,7.8166,7.888,7.97,8.0342,8.0342,8.0592,8.102,8.1734,8.1769,8.2483,8.3518,8.4338,8.4088,8.4267,8.4445,8.4338,8.4409,8.4476,8.4573,8.4567,8.4417,8.4518,8.4582,8.461,8.4789,8.4697,8.465,8.4583,8.4516,8.4516,8.4516,8.4516,8.4516,8.4516,8.4548,8.4512,8.4441,8.4405,8.4441,8.4088,8.4124,8.4405,8.4369,8.4262,8.4155,8.4191,8.4084,8.391,8.391,8.3946,8.3946,8.3946,8.4017,8.4267,8.4338,8.4481,8.4516,8.4231,8.4124,8.4017,8.3946,8.3767,8.366,8.3161,8.2626,8.2126,8.1341,8.1341,8.1199,8.0485,8.0342,7.9672,7.9308,7.928,7.9181,7.888,7.854,7.9192,7.9629,7.928,7.9459,7.9637,7.9558,7.8773,7.8666,7.9486,7.8868,7.7219,7.7562,7.8042,7.6872,7.4804,7.4223,7.3457,7.2013,7.1234,7.1517,7.1669,7.1602,7.5241,7.5241,7.5241,7.5241,7.5241,7.5241,7.5241,7.5241,7.5276,7.5276,7.574,7.813,7.9201,7.9343,7.9629,7.9629,7.9879,8.0521,8.1127,8.1662,8.1912,8.234,8.2982,8.3589,8.3589,8.4017,8.4338,8.4445,8.4516,8.4516,8.4516,8.4516,8.4552,8.4619,8.4583,8.465,8.4716,8.4817,8.4948,8.5012,8.4847,8.468,8.4583,8.4516,8.4516,8.4516,8.4516,8.4516,8.4516,8.4516,8.4516,8.4516,8.4516,8.4516,8.4516,8.4516,8.4516,8.4516,8.4516,8.4516,8.4516,8.4516,8.4516,8.4445,8.4409,8.4409,8.4409,8.4409,8.4409,8.4481,8.4481,8.4516,8.4516,8.4445,8.4445,8.4409,8.4409,8.4374,8.4338,8.4302,8.4124,8.4124,8.3874,8.391,8.3339,8.2305,8.1627,8.0985,8.0564,8.092,8.0932,8.0541,8.0556,8.02,8.0029,8.0171,8.0492,8.0677,8.0836,8.0214,7.9787,8.0064,7.9721,7.8486,7.7726,7.7721,7.6799,7.6131,7.5482,7.4828,7.3833,7.3312,7.3312,7.2876,7.2641,7.5241,7.5241,7.5241,7.5241,7.5241,7.5241,7.5241,7.5383,7.6168,7.6989,7.8095,7.9165,7.9851,7.9914,8.0878,8.1199,8.1341,8.2019,8.2697,8.3232,8.3625,8.3981,8.416,8.4302,8.4516,8.4516,8.4516,8.4516,8.4516,8.4516,8.4516,8.4516,8.4516,8.4516,8.4516,8.4583,8.465,8.465,8.4752,8.4716,8.465,8.4583,8.4516,8.4516,8.4516,8.4516,8.4516,8.4516,8.4516,8.4516,8.4516,8.4516,8.4516,8.4516,8.4516,8.4516,8.4516,8.4516,8.4516,8.4516,8.4516,8.4516,8.4516,8.4516,8.4516,8.4516,8.4516,8.4516,8.4516,8.4516,8.4516,8.4516,8.4516,8.4516,8.4516,8.4516,8.4516,8.4516,8.4516,8.4516,8.4516,8.4516,8.4516,8.4516,8.4302,8.3268,8.3446,8.2911,8.2875,8.3089,8.2577,8.2331,8.2779,8.2631,8.1786,8.1644,8.168,8.187,8.2127,8.1457,8.0893,8.0891,8.0747,7.9995,7.9272,7.8465,7.799,7.7764,7.7143,7.6228,7.5699,7.5323,7.4787,7.4284,7.4686,7.5241,7.5241,7.5241,7.5241,7.5241,7.5241,7.5419,7.5954,7.7774,7.9343,8.0378,8.0842,8.1163,8.152,8.2412,8.2768,8.2947,8.3518,8.4374,8.4374,8.4338,8.4374,8.4516,8.4516,8.4516,8.4516,8.4516,8.4516,8.4516,8.4516,8.4516,8.4516,8.4516,8.4516,8.4516,8.4516,8.4583,8.4583,8.4583,8.4583,8.4583,8.4516,8.4516,8.4516,8.4516,8.4516,8.4516,8.4516,8.4516,8.4516,8.4516,8.4516,8.4516,8.4516,8.4516,8.4516,8.4516,8.4516,8.4516,8.4516,8.4516,8.4516,8.4516,8.4516,8.4516,8.4516,8.4516,8.4516,8.4516,8.4516,8.4516,8.4516,8.4516,8.4516,8.4516,8.4516,8.4516,8.4516,8.4516,8.4516,8.4516,8.4516,8.4516,8.4516,8.4516,8.4516,8.4516,8.4445,8.416,8.4053,8.3394,8.343,8.4168,8.4245,8.3856,8.3432,8.3077,8.3117,8.2798,8.2423,8.2055,8.1672,8.122,8.0886,8.0447,7.9754,7.9163,7.8995,7.8401,7.7668,7.7118,7.7189,7.6664,7.6362,7.6899,7.5241,7.5241,7.5241,7.5241,7.5241,7.5348,7.6168,7.7631,8.0378,8.1912,8.2233,8.3446,8.3803,8.3518,8.3767,8.4017,8.416,8.4267,8.4516,8.4516,8.4516,8.4516,8.4516,8.4516,8.4516,8.4516,8.4516,8.4516,8.4516,8.4516,8.4516,8.4516,8.4516,8.4516,8.4516,8.4516,8.4516,8.4516,8.4516,8.4516,8.4516,8.4516,8.4516,8.4516,8.4516,8.4516,8.4516,8.4516,8.4516,8.4516,8.4516,8.4516,8.4516,8.4516,8.4516,8.4516,8.4516,8.4516,8.4516,8.4516,8.4516,8.4516,8.4516,8.4516,8.4516,8.4516,8.4516,8.4516,8.4516,8.4516,8.4516,8.4516,8.4516,8.4516,8.4516,8.4516,8.4516,8.4516,8.4516,8.4516,8.4516,8.4516,8.4516,8.4516,8.4516,8.4516,8.4516,8.4516,8.4409,8.4409,8.4168,8.41,8.4425,8.4356,8.4215,8.4037,8.3967,8.3647,8.3215,8.2686,8.1541,8.1362,8.1548,8.0923,8.0257,8.0117,7.9928,7.9563,7.8992,7.8532,7.8443,7.88,7.8876,7.8675,7.8776,7.5241,7.5241,7.5241,7.5241,7.5383,7.624,7.813,8.0307,8.1627,8.284,8.3625,8.4267,8.4516,8.4516,8.4516,8.4516,8.4516,8.4516,8.4516,8.4516,8.4516,8.4516,8.4516,8.4516,8.4516,8.4516,8.4516,8.4516,8.4516,8.4516,8.4516,8.4516,8.4516,8.4516,8.4516,8.4516,8.4516,8.4516,8.4516,8.4516,8.4516,8.4516,8.4516,8.4516,8.4516,8.4516,8.4516,8.4516,8.4516,8.4516,8.4516,8.4516,8.4516,8.4516,8.4516,8.4516,8.4516,8.4516,8.4516,8.4516,8.4516,8.4516,8.4516,8.4516,8.4516,8.4516,8.4516,8.4516,8.4516,8.4516,8.4516,8.4516,8.4516,8.4516,8.4516,8.4516,8.4516,8.4516,8.4516,8.4516,8.4516,8.4516,8.4516,8.4516,8.4516,8.4516,8.4516,8.4481,8.4445,8.4242,8.4036,8.4036,8.4178,8.4208,8.425,8.4037,8.3467,8.2914,8.2686,8.1946,8.0821,8.0457,8.0491,8.0294,8.0037,7.9902,7.9666,7.9505,7.9446,7.937,7.9169,7.9178,7.9245,7.9446,7.9446,7.5241,7.5276,7.574,7.5919,7.6204,7.8059,8.0378,8.2697,8.2911,8.3411,8.4516,8.4516,8.4516,8.4516,8.4516,8.4516,8.4516,8.4516,8.4516,8.4516,8.4516,8.4516,8.4516,8.4516,8.4516,8.4516,8.4516,8.4516,8.4516,8.4516,8.4516,8.4516,8.4516,8.4516,8.4516,8.4516,8.4516,8.4516,8.4516,8.4516,8.4516,8.4516,8.4516,8.4516,8.4516,8.4516,8.4516,8.4516,8.4516,8.4516,8.4516,8.4516,8.4516,8.4516,8.4516,8.4516,8.4516,8.4516,8.4516,8.4516,8.4516,8.4516,8.4516,8.4516,8.4516,8.4516,8.4516,8.4516,8.4516,8.4516,8.4516,8.4516,8.4516,8.4516,8.4516,8.4516,8.4516,8.4516,8.4516,8.4516,8.4516,8.4516,8.4516,8.4516,8.4516,8.4516,8.4481,8.4374,8.4168,8.3648,8.3434,8.3506,8.3573,8.322,8.3294,8.3575,8.2838,8.2071,8.1751,8.121,8.0335,7.9778,7.963,7.9572,7.9697,7.9663,7.9446,7.9446,7.9446,7.9446,7.9446,7.9446,7.9446,7.9446,7.9446,7.5241,7.5455,7.6846,7.7488,7.7988,8.0699,8.2804,8.4338,8.4374,8.4409,8.4516,8.4516,8.4516,8.4516,8.4516,8.4516,8.4516,8.4516,8.4516,8.4516,8.4516,8.4516,8.4516,8.4516,8.4516,8.4516,8.4516,8.4516,8.4516,8.4516,8.4516,8.4516,8.4516,8.4516,8.4516,8.4516,8.4516,8.4516,8.4516,8.4516,8.4516,8.4516,8.4516,8.4516,8.4516,8.4516,8.4516,8.4516,8.4516,8.4516,8.4516,8.4516,8.4516,8.4516,8.4516,8.4516,8.4516,8.4516,8.4516,8.4516,8.4516,8.4516,8.4516,8.4516,8.4516,8.4516,8.4516,8.4516,8.4516,8.4516,8.4516,8.4516,8.4516,8.4516,8.4516,8.4516,8.4516,8.4516,8.4516,8.4516,8.4516,8.4516,8.4516,8.4516,8.4481,8.4445,8.4374,8.4239,8.4108,8.3599,8.3613,8.3684,8.3222,8.2586,8.2397,8.2581,8.2026,8.1424,8.1042,8.0787,8.007,7.9538,7.9446,7.9446,7.9446,7.9446,7.9446,7.9446,7.9446,7.9446,7.9446,7.9446,7.9446,7.9446,7.9446,7.6775,7.6917,7.8452,7.9094,7.9593,8.2412,8.4017,8.4445,8.4516,8.4516,8.4516,8.4516,8.4516,8.4516,8.4516,8.4516,8.4516,8.4516,8.4516,8.4516,8.4516,8.4516,8.4516,8.4516,8.4516,8.4516,8.4516,8.4516,8.4516,8.4516,8.4516,8.4516,8.4516,8.4516,8.4516,8.4516,8.4516,8.4516,8.4516,8.4516,8.4516,8.4516,8.4516,8.4516,8.4516,8.4516,8.4516,8.4516,8.4516,8.4516,8.4516,8.4516,8.4516,8.4516,8.4516,8.4516,8.4516,8.4516,8.4516,8.4516,8.4516,8.4516,8.4516,8.4516,8.4516,8.4516,8.4516,8.4516,8.4516,8.4516,8.4516,8.4516,8.4516,8.4516,8.4516,8.4516,8.4516,8.4516,8.4516,8.4516,8.4516,8.4516,8.4516,8.4481,8.4409,8.4302,8.42,8.4285,8.4298,8.4214,8.4209,8.4038,8.3647,8.3036,8.2657,8.2175,8.1459,8.0787,8.0563,8.0476,7.9835,7.9446,7.9446,7.9446,7.9446,7.9446,7.9446,7.9446,7.9446,7.9446,7.9446,7.9446,7.9446,7.9446,7.9446,7.7845,7.8487,8.0021,8.0985,8.1734,8.3732,8.4516,8.4516,8.4516,8.4516,8.4516,8.4516,8.4516,8.4516,8.4516,8.4516,8.4516,8.4516,8.4516,8.4516,8.4516,8.4516,8.4516,8.4516,8.4516,8.4516,8.4516,8.4516,8.4516,8.4516,8.4516,8.4516,8.4516,8.4516,8.4516,8.4516,8.4516,8.4516,8.4516,8.4516,8.4516,8.4516,8.4516,8.4516,8.4516,8.4516,8.4516,8.4516,8.4516,8.4516,8.4516,8.4516,8.4516,8.4516,8.4516,8.4516,8.4516,8.4516,8.4516,8.4516,8.4516,8.4516,8.4516,8.4516,8.4516,8.4516,8.4516,8.4516,8.4516,8.4516,8.4516,8.4516,8.4516,8.4516,8.4516,8.4516,8.4516,8.4516,8.4516,8.4516,8.4516,8.4516,8.4516,8.4516,8.4231,8.4021,8.3858,8.3888,8.3855,8.3998,8.3996,8.379,8.3532,8.3159,8.2698,8.1773,8.0957,8.0563,8.0389,8.0159,7.9925,7.9538,7.9446,7.9446,7.9446,7.9446,7.9446,7.9446,7.9446,7.9446,7.9446,7.9446,7.9446,7.9446,7.9446,7.863,8.0093,8.1627,8.3089,8.4195,8.4516,8.4516,8.4516,8.4516,8.4516,8.4516,8.4516,8.4516,8.4516,8.4516,8.4516,8.4516,8.4516,8.4516,8.4516,8.4516,8.4516,8.4516,8.4516,8.4516,8.4516,8.4516,8.4516,8.4516,8.4516,8.4516,8.4516,8.4516,8.4516,8.4516,8.4516,8.4516,8.4516,8.4516,8.4516,8.4516,8.4516,8.4516,8.4516,8.4516,8.4516,8.4516,8.4516,8.4516,8.4516,8.4516,8.4516,8.4516,8.4516,8.4516,8.4516,8.4516,8.4516,8.4516,8.4516,8.4516,8.4516,8.4516,8.4516,8.4516,8.4516,8.4516,8.4516,8.4516,8.4516,8.4516,8.4516,8.4516,8.4516,8.4516,8.4516,8.4516,8.4516,8.4516,8.4516,8.4516,8.4516,8.4516,8.4378,8.4057,8.3645,8.3435,8.3294,8.3186,8.3181,8.2976,8.2755,8.2552,8.2272,8.1854,8.1092,8.0702,8.051,8.0193,7.9869,7.963,7.9446,7.9446,7.9446,7.9446,7.9446,7.9446,7.9446,7.9446,7.9446,7.9446,7.9446,7.9446,7.9446,7.9446,8.1092,8.1734,8.3196,8.4124,8.4481,8.4516,8.4516,8.4516,8.4516,8.4516,8.4516,8.4516,8.4516,8.4516,8.4516,8.4516,8.4516,8.4516,8.4516,8.4516,8.4516,8.4516,8.4516,8.4516,8.4516,8.4516,8.4516,8.4516,8.4516,8.4516,8.4516,8.4516,8.4516,8.4516,8.4516,8.4516,8.4516,8.4516,8.4516,8.4516,8.4516,8.4516,8.4516,8.4516,8.4516,8.4516,8.4516,8.4516,8.4516,8.4516,8.4516,8.4516,8.4516,8.4516,8.4516,8.4516,8.4516,8.4516,8.4516,8.4516,8.4516,8.4516,8.4516,8.4516,8.4516,8.4516,8.4516,8.4516,8.4516,8.4516,8.4516,8.4516,8.4516,8.4516,8.4516,8.4516,8.4516,8.4516,8.4516,8.4381,8.4449,8.4449,8.4381,8.4105,8.3613,8.311,8.2989,8.2927,8.2764,8.2516,8.2256,8.2127,8.1959,8.1509,8.1107,8.0753,8.0389,8.0193,8.0015,7.963,7.9446,7.9446,7.9446,7.9446,7.9446,7.9446,7.9446,7.9446,7.9446,7.9446,7.9446,7.9446,7.9446,7.9446,7.9446,8.2554,8.3161,8.4124,8.4516,8.4516,8.4516,8.4516,8.4516,8.4516,8.4516,8.4516,8.4516,8.4516,8.4516,8.4516,8.4516,8.4516,8.4516,8.4516,8.4516,8.4516,8.4516,8.4516,8.4516,8.4516,8.4516,8.4516,8.4516,8.4516,8.4516,8.4516,8.4516,8.4516,8.4516,8.4516,8.4516,8.4516,8.4516,8.4516,8.4516,8.4516,8.4516,8.4516,8.4516,8.4516,8.4516,8.4516,8.4516,8.4516,8.4516,8.4516,8.4516,8.4516,8.4516,8.4516,8.4516,8.4516,8.4516,8.4516,8.4516,8.4516,8.4516,8.4516,8.4516,8.4516,8.4516,8.4516,8.4516,8.4516,8.4516,8.4516,8.4516,8.4516,8.4516,8.4516,8.4516,8.4516,8.4516,8.4449,8.4037,8.4037,8.4176,8.4001,8.3755,8.3138,8.2609,8.2559,8.2489,8.2313,8.2108,8.2078,8.2001,8.1941,8.1612,8.1588,8.0873,8.0104,7.9925,7.9745,7.9596,7.9446,7.9446,7.9446,7.9446,7.9446,7.9446,7.9446,7.9446,7.9446,7.9446,7.9446,7.9446,7.9446,7.9446,7.9446,8.3232,8.4516,8.4516,8.4516,8.4516,8.4516,8.4516,8.4516,8.4516,8.4516,8.4516,8.4516,8.4516,8.4516,8.4516,8.4516,8.4516,8.4516,8.4516,8.4516,8.4516,8.4516,8.4516,8.4516,8.4516,8.4516,8.4516,8.4516,8.4516,8.4516,8.4516,8.4516,8.4516,8.4516,8.4516,8.4516,8.4516,8.4516,8.4516,8.4516,8.4516,8.4516,8.4516,8.4516,8.4516,8.4516,8.4516,8.4516,8.4516,8.4516,8.4516,8.4516,8.4516,8.4516,8.4516,8.4516,8.4516,8.4516,8.4516,8.4516,8.4516,8.4516,8.4516,8.4516,8.4516,8.4516,8.4516,8.4516,8.4516,8.4516,8.4516,8.4516,8.4516,8.4516,8.4516,8.4516,8.4516,8.4516,8.4245,8.3647,8.3575,8.3719,8.3612,8.3064,8.242,8.2454,8.2481,8.2368,8.2078,8.2009,8.2001,8.1912,8.182,8.1682,8.1657,8.116,8.0104,7.9778,7.9596,7.9538,7.9446,7.9446,7.9446,7.9446,7.9446,7.9446,7.9446,7.9446,7.9446,7.9446,7.9446,7.9446,7.9446,7.9446,7.9446,8.416,8.4516,8.4516,8.4516,8.4516,8.4516,8.4516,8.4516,8.4516,8.4516,8.4516,8.4516,8.4516,8.4516,8.4516,8.4516,8.4516,8.4516,8.4516,8.4516,8.4516,8.4516,8.4516,8.4516,8.4516,8.4516,8.4516,8.4516,8.4516,8.4516,8.4516,8.4516,8.4516,8.4516,8.4516,8.4516,8.4516,8.4516,8.4516,8.4516,8.4516,8.4516,8.4516,8.4516,8.4516,8.4516,8.4516,8.4516,8.4516,8.4516,8.4516,8.4516,8.4516,8.4516,8.4516,8.4516,8.4516,8.4516,8.4516,8.4516,8.4516,8.4516,8.4516,8.4516,8.4516,8.4516,8.4516,8.4516,8.4516,8.4516,8.4516,8.4516,8.4516,8.4516,8.4516,8.4516,8.4516,8.4516,8.4313,8.3861,8.3719,8.3612,8.3247,8.2497,8.2298,8.2376,8.2298,8.2185,8.2046,8.1941,8.183,8.1659,8.1351,8.089,8.0804,8.0476,8.0015,7.963,7.9538,7.9446,7.9446,7.9446,7.9446,7.9446,7.9446,7.9446,7.9446,7.9446,7.9446,7.9446,7.9446,7.9446,7.9446,7.9446,7.9446,8.4516,8.4516,8.4516,8.4516,8.4516,8.4516,8.4516,8.4516,8.4516,8.4516,8.4516,8.4516,8.4516,8.4516,8.4516,8.4516,8.4516,8.4516,8.4516,8.4516,8.4516,8.4516,8.4516,8.4516,8.4516,8.4516,8.4516,8.4516,8.4516,8.4516,8.4516,8.4516,8.4516,8.4516,8.4516,8.4516,8.4516,8.4516,8.4516,8.4516,8.4516,8.4516,8.4516,8.4516,8.4516,8.4516,8.4516,8.4516,8.4516,8.4516,8.4516,8.4516,8.4516,8.4516,8.4516,8.4516,8.4516,8.4516,8.4516,8.4516,8.4516,8.4516,8.4516,8.4516,8.4516,8.4516,8.4516,8.4516,8.4516,8.4516,8.4516,8.4516,8.4516,8.4516,8.4516,8.4516,8.4516,8.4516,8.4381,8.4176,8.3931,8.3719,8.343,8.2838,8.2609,8.215,8.1566,8.1438,8.1355,8.1474,8.1445,8.1293,8.0912,8.0417,8.0193,8.007,7.9778,7.9538,7.9572,7.9721,7.963,7.9446,7.9446,7.9446,7.9446,7.9446,7.9446,7.9446,7.9446,7.9446,7.9446,7.9446,7.9446,7.9446,7.9446,8.4516,8.4516,8.4516,8.4516,8.4516,8.4516,8.4516,8.4516,8.4516,8.4516,8.4516,8.4516,8.4516,8.4516,8.4516,8.4516,8.4516,8.4516,8.4516,8.4516,8.4516,8.4516,8.4516,8.4516,8.4516,8.4516,8.4516,8.4516,8.4516,8.4516,8.4516,8.4516,8.4516,8.4516,8.4516,8.4516,8.4516,8.4516,8.4516,8.4516,8.4516,8.4516,8.4516,8.4516,8.4516,8.4516,8.4516,8.4516,8.4516,8.4516,8.4516,8.4516,8.4516,8.4516,8.4516,8.4516,8.4516,8.4516,8.4516,8.4516,8.4516,8.4516,8.4516,8.4516,8.4516,8.4516,8.4516,8.4516,8.4516,8.4624,8.5016,8.4731,8.4731,8.4838,8.4838,8.4516,8.4307,8.4097,8.3966,8.3825,8.4461,8.4175,8.4031,8.349,8.2797,8.1727,8.0802,8.0651,8.0497,8.0829,8.0864,8.1026,8.0729,8.0403,8.0179,8.007,7.9869,7.9572,7.9721,8.0048,7.9778,7.9446,7.9446,7.9446,7.9446,7.9446,7.9446,7.9446,7.9446,7.9446,7.9446,7.9446,7.9446,7.9446,7.9446,8.4516,8.4516,8.4516,8.4516,8.4516,8.4516,8.4516,8.4516,8.4516,8.4516,8.4516,8.4516,8.4516,8.4516,8.4516,8.4516,8.4516,8.4516,8.4516,8.4516,8.4516,8.4516,8.4516,8.4516,8.4516,8.4516,8.4516,8.4516,8.4516,8.4516,8.4516,8.4516,8.4516,8.4516,8.4516,8.4516,8.4516,8.4516,8.4516,8.4516,8.4516,8.4516,8.4516,8.4516,8.4516,8.4516,8.4516,8.4516,8.4516,8.4516,8.4516,8.4516,8.4516,8.4516,8.4516,8.4516,8.4516,8.4516,8.4516,8.4516,8.4516,8.4516,8.4516,8.4516,8.4516,8.4516,8.4552,8.4516,8.4695,8.5194,8.6122,8.5408,8.5412,8.5771,8.5412,8.4516,8.4381,8.4354,8.4356,8.4528,8.4839,8.5046,8.5152,8.4679,8.3595,8.2442,8.1949,8.1641,8.1038,8.1001,8.0688,8.0838,8.068,8.0267,8.0036,7.9925,8.0015,7.9721,7.9869,8.0015,7.9778,7.9538,7.9446,7.9446,7.9446,7.9446,7.9446,7.9446,7.9446,7.9446,7.9446,7.9446,7.9446,7.9446,7.9446,8.4516,8.4516,8.4516,8.4516,8.4516,8.4516,8.4516,8.4516,8.4516,8.4516,8.4516,8.4516,8.4516,8.4516,8.4516,8.4516,8.4516,8.4516,8.4516,8.4516,8.4516,8.4516,8.4516,8.4516,8.4516,8.4516,8.4516,8.4516,8.4516,8.4516,8.4516,8.4516,8.4516,8.4516,8.4516,8.4516,8.4516,8.4516,8.4516,8.4516,8.4516,8.4516,8.4516,8.4516,8.4516,8.4516,8.4516,8.4516,8.4552,8.4588,8.4552,8.4516,8.5016,8.5658,8.6481,8.5842,8.5699,8.5483,8.4731,8.4516,8.4516,8.4516,8.4516,8.4516,8.4516,8.4659,8.4909,8.5587,8.6122,8.7157,8.7906,8.7339,8.7232,8.7658,8.7437,8.6822,8.6437,8.6342,8.6234,8.6182,8.6495,8.663,8.6518,8.5612,8.445,8.3713,8.3303,8.263,8.197,8.1424,8.0752,8.0641,8.0253,7.9989,7.9745,8.0015,8.0247,7.9835,7.9835,7.9925,7.9778,7.9538,7.9446,7.9446,7.9446,7.9446,7.9446,7.9446,7.9446,7.9446,7.9446,7.9446,7.9446,7.9446,7.9446,8.4516,8.4516,8.4516,8.4516,8.4516,8.4516,8.4516,8.4516,8.4516,8.4516,8.4516,8.4516,8.4516,8.4516,8.4516,8.4516,8.4516,8.4516,8.4516,8.4516,8.4516,8.4516,8.4516,8.4516,8.4516,8.4516,8.4516,8.4516,8.4516,8.4516,8.4516,8.4516,8.4516,8.4516,8.4516,8.4516,8.4516,8.4516,8.4516,8.4516,8.4516,8.4516,8.4516,8.4552,8.5016,8.5087,8.5052,8.523,8.5337,8.5301,8.5337,8.5408,8.5979,8.7442,8.7658,8.6876,8.6307,8.5486,8.4766,8.4516,8.4516,8.4516,8.4516,8.4516,8.4945,8.5087,8.5908,8.7014,8.8298,8.919,8.9511,8.901,8.9186,8.9475,8.9188,8.8826,8.8798,8.9226,8.9686,8.9168,8.8622,8.8397,8.7925,8.7233,8.595,8.5044,8.4744,8.4259,8.3342,8.243,8.1574,8.0856,8.0223,7.9913,7.9697,8.0294,8.0335,7.9925,7.9778,7.9869,7.9687,7.9538,7.9446,7.9446,7.9446,7.9572,7.9572,7.9446,7.9446,7.9446,7.9446,7.9446,7.9446,7.9446,7.9446,8.4516,8.4516,8.4516,8.4516,8.4516,8.4516,8.4516,8.4516,8.4516,8.4516,8.4516,8.4516,8.4516,8.4516,8.4516,8.4516,8.4516,8.4516,8.4516,8.4516,8.4516,8.4516,8.4516,8.4516,8.4516,8.4516,8.4516,8.4516,8.4516,8.4516,8.4516,8.4516,8.4516,8.4516,8.4516,8.4516,8.4516,8.4516,8.4552,8.4588,8.4695,8.4695,8.4802,8.5159,8.5872,8.6514,8.6764,8.7513,8.8298,8.8512,8.8477,8.8477,8.8298,8.8084,8.7018,8.701,8.5986,8.5162,8.4695,8.4516,8.4516,8.4516,8.4588,8.5159,8.6122,8.655,8.7335,8.8405,8.9261,8.9904,9.0937,9.0468,9.0252,9.0684,9.0011,8.9003,8.9031,9.1304,9.2503,9.2424,9.1044,9.0245,8.9701,8.9032,8.7602,8.645,8.6342,8.5911,8.479,8.3718,8.2951,8.221,8.116,8.0607,8.051,8.0831,8.0227,7.9869,7.9687,7.9687,7.9505,7.9778,8.0104,7.9869,7.9745,7.9663,7.9697,7.9745,7.9711,7.9538,7.9446,7.9446,7.9446,7.9446,7.9446,8.4516,8.4516,8.4516,8.4516,8.4516,8.4516,8.4516,8.4516,8.4516,8.4516,8.4516,8.4516,8.4516,8.4516,8.4516,8.4516,8.4516,8.4516,8.4516,8.4516,8.4516,8.4516,8.4516,8.4516,8.4516,8.4516,8.4516,8.4516,8.4516,8.4516,8.4516,8.4516,8.4516,8.4516,8.4516,8.4516,8.4516,8.4588,8.4552,8.5052,8.5694,8.5836,8.6015,8.7083,8.769,8.812,8.8155,8.8905,8.919,8.9618,9.076,9.1723,9.1473,9.0296,8.9012,8.8121,8.6657,8.5615,8.4659,8.4516,8.4516,8.4516,8.5373,8.6122,8.6728,8.7727,8.8798,9.0046,9.0617,9.1081,9.2506,9.193,9.2036,9.2538,9.2113,9.1645,9.1546,9.2663,9.3935,9.3571,9.2509,9.2034,9.1736,9.1216,9.0085,8.9235,8.9044,8.8298,8.6998,8.5378,8.4496,8.3349,8.2235,8.1402,8.1331,8.0986,8.0525,8.0281,8.0193,8.0104,7.9778,8.0104,8.0615,8.0905,8.1101,8.0685,7.9879,8.0146,8.0132,7.9947,7.9721,7.9538,7.9538,7.9596,7.9687,8.4516,8.4516,8.4516,8.4516,8.4516,8.4516,8.4516,8.4516,8.4516,8.4516,8.4516,8.4516,8.4516,8.4516,8.4516,8.4516,8.4516,8.4516,8.4516,8.4516,8.4516,8.4516,8.4516,8.4516,8.4516,8.4516,8.4516,8.4516,8.4516,8.4516,8.4516,8.4516,8.4516,8.4516,8.4516,8.4552,8.4624,8.4945,8.4659,8.5515,8.6873,8.7051,8.7406,8.8797,8.9012,8.9297,8.9618,9.0046,9.0225,9.0688,9.2044,9.2793,9.2472,9.1152,8.9547,8.8227,8.7008,8.5722,8.4869,8.4552,8.4624,8.5159,8.6158,8.7192,8.7727,8.9154,9.0403,9.1687,9.2115,9.2544,9.3543,9.3864,9.3682,9.3611,9.365,9.3611,9.3789,9.3899,9.3935,9.3749,9.3225,9.3104,9.3678,9.2785,9.2473,9.2179,9.1472,9.0615,8.9083,8.7299,8.6091,8.4817,8.3567,8.2313,8.2196,8.1803,8.1396,8.116,8.1042,8.0873,8.0247,8.0247,8.0631,8.1197,8.1897,8.1117,8.0018,8.0224,8.0702,8.0301,8.0015,8.0104,8.0104,7.9925,7.9835,8.4516,8.4516,8.4516,8.4516,8.4516,8.4516,8.4516,8.4516,8.4516,8.4516,8.4516,8.4516,8.4516,8.4516,8.4516,8.4516,8.4516,8.4516,8.4516,8.4516,8.4516,8.4516,8.4516,8.4516,8.4516,8.4516,8.4516,8.4516,8.4516,8.4516,8.4516,8.4516,8.4516,8.4516,8.4516,8.4516,8.5301,8.5836,8.523,8.6125,8.7979,8.7978,8.8299,8.9547,8.9761,9.0296,9.1366,9.2401,9.2972,9.3293,9.233,9.1901,9.1473,8.8976,8.7547,8.7076,8.5972,8.494,8.4552,8.4659,8.5159,8.6336,8.6764,8.7977,9.0153,9.1045,9.1901,9.3257,9.3614,9.3614,9.3935,9.3935,9.3935,9.3935,9.3935,9.3935,9.3935,9.3935,9.3935,9.3825,9.3825,9.3749,9.3899,9.3789,9.3642,9.2556,9.2597,9.1486,8.9961,8.8668,8.7634,8.6164,8.4669,8.3326,8.2977,8.2585,8.221,8.1866,8.1785,8.1293,8.065,8.1038,8.1094,8.1316,8.2353,8.2085,8.092,8.0734,8.1179,8.1026,8.0856,8.0821,8.0821,8.065,8.0335,8.4516,8.4516,8.4516,8.4516,8.4516,8.4516,8.4516,8.4516,8.4516,8.4516,8.4516,8.4516,8.4516,8.4516,8.4516,8.4516,8.4516,8.4516,8.4516,8.4516,8.4516,8.4516,8.4516,8.4516,8.4516,8.4516,8.4516,8.4516,8.4516,8.4516,8.4516,8.4516,8.4516,8.4516,8.4516,8.4552,8.4909,8.5444,8.5979,8.6942,8.9119,8.9369,9.026,9.1543,9.19,9.2151,9.2793,9.3507,9.2972,9.1438,9.0617,9.0225,9.0011,8.8048,8.694,8.6822,8.5436,8.4516,8.4624,8.5472,8.6222,8.6942,8.8833,9.0189,9.1366,9.2508,9.3043,9.3792,9.3899,9.3935,9.3935,9.3935,9.3935,9.3935,9.3935,9.3935,9.3935,9.3935,9.3638,9.3139,9.2706,9.2427,9.3025,9.2509,9.259,9.2946,9.3289,9.2089,9.0819,9.0055,8.898,8.6982,8.5304,8.4408,8.3876,8.327,8.2721,8.2532,8.2263,8.1623,8.1785,8.2844,8.2739,8.2651,8.3148,8.3222,8.2406,8.1922,8.1958,8.1748,8.1773,8.1704,8.1623,8.1459,8.1042,8.4516,8.4516,8.4516,8.4516,8.4516,8.4516,8.4516,8.4516,8.4516,8.4516,8.4516,8.4516,8.4516,8.4516,8.4516,8.4516,8.4516,8.4516,8.4516,8.4516,8.4516,8.4516,8.4516,8.4516,8.4516,8.4516,8.4516,8.4516,8.4516,8.4516,8.4516,8.4516,8.4516,8.4516,8.4516,8.4516,8.4695,8.5266,8.6051,8.7121,8.894,8.9904,9.1152,9.2544,9.29,9.2936,9.2651,9.3079,9.1937,8.9475,8.8905,8.8619,8.8477,8.7085,8.6119,8.5972,8.5119,8.4516,8.4869,8.5972,8.7044,8.7656,8.9868,9.165,9.2151,9.3257,9.3792,9.3935,9.3935,9.3935,9.3935,9.3935,9.3935,9.3935,9.3935,9.3935,9.3935,9.3899,9.3602,9.3025,9.2462,9.2509,9.2786,9.2625,9.2427,9.2902,9.2981,9.2459,9.1593,9.0899,9.0388,8.8244,8.6449,8.5562,8.4602,8.389,8.3283,8.3024,8.2454,8.1785,8.2914,8.3432,8.327,8.345,8.3436,8.3328,8.2919,8.2954,8.242,8.2015,8.2263,8.2762,8.2609,8.2376,8.1946,8.4516,8.4516,8.4516,8.4516,8.4516,8.4516,8.4516,8.4516,8.4516,8.4516,8.4516,8.4516,8.4516,8.4516,8.4516,8.4516,8.4516,8.4516,8.4583,8.468,8.4516,8.4583,8.4583,8.4619,8.4516,8.4516,8.4516,8.4516,8.4516,8.4516,8.4516,8.4516,8.4516,8.4516,8.4516,8.4516,8.5159,8.5979,8.5408,8.6407,8.8869,8.8191,8.8227,8.969,9.0974,9.1152,9.0296,9.0902,9.076,8.9226,8.7656,8.7014,8.6764,8.5515,8.4802,8.4869,8.4624,8.4516,8.4838,8.6226,8.7585,8.8869,9.0653,9.2151,9.3293,9.3721,9.3935,9.3935,9.3935,9.3935,9.3935,9.3935,9.3935,9.3935,9.3935,9.3935,9.3935,9.3935,9.3714,9.3638,9.3749,9.3749,9.3485,9.3485,9.345,9.3562,9.345,9.3295,9.2557,9.1657,9.138,9.0006,8.8086,8.6876,8.5198,8.4377,8.3283,8.2873,8.2376,8.2574,8.3612,8.2954,8.2402,8.3009,8.3285,8.3115,8.3173,8.3683,8.3683,8.3064,8.3099,8.3719,8.3719,8.343,8.3024,8.4516,8.4516,8.4516,8.4516,8.4516,8.4516,8.4516,8.4516,8.4516,8.4516,8.4516,8.4516,8.4516,8.4516,8.4516,8.4516,8.4516,8.4516,8.4969,8.5454,8.4969,8.4782,8.5104,8.4817,8.4516,8.4516,8.4516,8.4516,8.4516,8.4516,8.4516,8.4516,8.4516,8.4516,8.4516,8.4552,8.4731,8.5373,8.5801,8.6586,8.7585,8.8155,8.8655,8.9154,8.9761,8.9797,8.9261,8.8762,8.7906,8.6479,8.5801,8.5444,8.5408,8.4909,8.4516,8.4516,8.4516,8.4516,8.4802,8.68,8.8691,8.9511,9.1616,9.3257,9.3685,9.3935,9.3935,9.3935,9.3935,9.3935,9.3935,9.3935,9.3935,9.3935,9.3935,9.3935,9.3935,9.3935,9.3714,9.326,9.3104,9.3025,9.3025,9.3025,9.3025,9.3025,9.3025,9.2946,9.2333,9.2176,9.1433,9.0412,8.9118,8.7694,8.6081,8.4619,8.3384,8.2838,8.2532,8.3286,8.3755,8.2954,8.2692,8.3329,8.3701,8.3684,8.3458,8.4179,8.4485,8.428,8.3825,8.4107,8.4245,8.4037,8.3825,8.4516,8.4516,8.4516,8.4516,8.4516,8.4516,8.4516,8.4516,8.4516,8.4686,8.4847,8.4883,8.4976,8.5096,8.5096,8.506,8.5096,8.5158,8.5514,8.6091,8.5454,8.5283,8.5416,8.5096,8.471,8.4583,8.4516,8.4516,8.4516,8.4516,8.4516,8.4516,8.4516,8.4516,8.4516,8.4516,8.4516,8.4659,8.5622,8.6158,8.63,8.7192,8.7727,8.7799,8.8227,8.8227,8.7763,8.6764,8.5658,8.4695,8.4516,8.4516,8.4552,8.4516,8.4516,8.4516,8.4516,8.4516,8.4873,8.6907,8.8369,8.894,9.0831,9.2472,9.3079,9.315,9.3364,9.3899,9.3935,9.3935,9.3935,9.3935,9.3935,9.3935,9.3935,9.3935,9.3935,9.3935,9.3526,9.3025,9.2911,9.2911,9.3025,9.3025,9.3104,9.3104,9.3104,9.2946,9.2427,9.2757,9.2384,9.1439,8.9787,8.8477,8.6724,8.5152,8.4102,8.354,8.3394,8.3825,8.3825,8.3504,8.3683,8.3998,8.4239,8.4316,8.4072,8.4144,8.4283,8.4245,8.4176,8.4313,8.4449,8.4449,8.4245,8.4583,8.4516,8.4516,8.4516,8.4516,8.4516,8.4516,8.4516,8.4516,8.4912,8.5355,8.5478,8.5669,8.6147,8.6091,8.6256,8.631,8.6256,8.6364,8.6471,8.622,8.5922,8.5682,8.5574,8.5247,8.4775,8.4583,8.4552,8.4516,8.4516,8.4516,8.4516,8.4516,8.4516,8.4516,8.4516,8.4516,8.4588,8.4659,8.4695,8.4588,8.4873,8.498,8.5016,8.6193,8.63,8.4838,8.4731,8.4695,8.4552,8.4516,8.4516,8.4516,8.4516,8.4516,8.4516,8.4516,8.4516,8.4695,8.6158,8.7157,8.7442,8.8512,9.026,9.1366,9.1616,9.2187,9.3293,9.3685,9.3864,9.3864,9.3757,9.365,9.3864,9.3899,9.3899,9.3935,9.3935,9.3825,9.3789,9.3714,9.3825,9.3825,9.3749,9.3674,9.3749,9.3749,9.3638,9.3562,9.3567,9.3828,9.3183,9.14,8.9404,8.7508,8.5684,8.4923,8.4245,8.4071,8.4071,8.4071,8.414,8.4209,8.4313,8.4516,8.4552,8.4285,8.425,8.4349,8.4381,8.4449,8.4516,8.4516,8.4516,8.4449,8.3872,8.4512,8.4516,8.4516,8.4516,8.4516,8.4516,8.4516,8.4516,8.4912,8.5478,8.5539,8.5823,8.6256,8.631,8.6678,8.7382,8.7026,8.7074,8.7382,8.6678,8.6381,8.6507,8.6254,8.5938,8.5704,8.541,8.4976,8.4588,8.4516,8.4516,8.4516,8.4516,8.4516,8.4516,8.4516,8.4516,8.4516,8.4516,8.4516,8.4516,8.4516,8.4516,8.4624,8.5016,8.5052,8.4588,8.4516,8.4516,8.4516,8.4516,8.4516,8.4516,8.4516,8.4516,8.4516,8.4516,8.4516,8.4695,8.6015,8.6907,8.6978,8.8298,8.9333,8.9868,9.0011,9.0795,9.1901,9.233,9.2865,9.3364,9.294,9.2331,9.2396,9.329,9.3899,9.3935,9.3899,9.3899,9.3899,9.3935,9.3935,9.3935,9.3935,9.3935,9.3935,9.3935,9.3935,9.3935,9.3935,9.3935,9.3721,9.1903,9.0331,8.8406,8.6733,8.5844,8.4738,8.4313,8.4381,8.4449,8.4449,8.4516,8.4516,8.4516,8.4516,8.4516,8.4516,8.4516,8.4516,8.4516,8.4516,8.4516,8.4516,8.4516,8.3178,8.4331,8.4969,8.5185,8.5221,8.5185,8.5185,8.5185,8.5221,8.5514,8.6015,8.6072,8.6418,8.6929,8.6965,8.7336,8.8008,8.7642,8.7605,8.793,8.7289,8.6978,8.7037,8.678,8.6444,8.6319,8.5945,8.5518,8.4948,8.4686,8.4516,8.4516,8.4516,8.4516,8.4516,8.4516,8.4516,8.4516,8.4516,8.4516,8.4516,8.4516,8.4516,8.4516,8.4516,8.4516,8.4516,8.4516,8.4516,8.4516,8.4516,8.4516,8.4516,8.4516,8.4516,8.4516,8.4516,8.4516,8.4659,8.5515,8.6051,8.6122,8.7014,8.7656,8.8262,8.8441,8.9012,9.0332,9.076,9.1082,9.1761,9.1331,9.0724,9.0788,9.157,9.2286,9.2859,9.3037,9.3325,9.3792,9.3935,9.3935,9.3935,9.3935,9.3935,9.3935,9.3935,9.3935,9.3935,9.3935,9.365,9.3043,9.2154,9.0831,8.8798,8.7442,8.6443,8.523,8.4516,8.4516,8.4516,8.4516,8.4516,8.4516,8.4516,8.4516,8.4516,8.4516,8.4516,8.4516,8.4516,8.4516,8.4516,8.4583,8.465,8.226,8.3703,8.5471,8.611,8.631,8.622,8.6274,8.6165,8.622,8.6539,8.6941,8.6989,8.739,8.7971,8.793,8.8049,8.8012,8.8012,8.8012,8.8049,8.8008,8.7686,8.7132,8.713,8.691,8.6554,8.642,8.6088,8.5623,8.4976,8.4619,8.4583,8.4583,8.4516,8.4516,8.4516,8.4516,8.4516,8.4516,8.4516,8.4516,8.4516,8.4516,8.4516,8.4516,8.4516,8.4516,8.4516,8.4516,8.4516,8.4516,8.4516,8.4516,8.4516,8.4516,8.4516,8.4516,8.4516,8.4516,8.4624,8.4659,8.4624,8.4873,8.5266,8.6657,8.68,8.7513,8.8976,8.894,8.8866,8.9034,8.8998,8.9115,8.9115,8.9216,9.011,9.1286,9.1503,9.2143,9.3076,9.3293,9.315,9.3435,9.3757,9.365,9.3614,9.3828,9.3935,9.3935,9.3935,9.3257,9.2222,9.1475,9.0438,8.7513,8.6764,8.6158,8.5087,8.4516,8.4516,8.4516,8.4516,8.4516,8.4516,8.4516,8.4516,8.4516,8.4516,8.4516,8.4583,8.4583,8.4686,8.4752,8.4716,8.4782,8.0588,8.1312,8.3494,8.5216,8.6274,8.631,8.631,8.631,8.631,8.6627,8.7037,8.7085,8.7435,8.7971,8.8012,8.8012,8.8012,8.8012,8.8012,8.8012,8.8012,8.8008,8.7809,8.7786,8.774,8.7546,8.7059,8.6763,8.6575,8.5728,8.5293,8.5167,8.4782,8.4516,8.4516,8.4516,8.4516,8.4516,8.4516,8.4516,8.4516,8.4516,8.4516,8.4516,8.4516,8.4516,8.4516,8.4516,8.4516,8.4516,8.4516,8.4516,8.4516,8.4516,8.4516,8.4516,8.4516,8.4516,8.4516,8.4516,8.4516,8.4516,8.4516,8.4731,8.5087,8.5194,8.5908,8.7228,8.6479,8.5908,8.6003,8.6857,8.7466,8.7616,8.865,8.9331,8.9796,8.9826,9.0074,9.0367,9.0795,9.0474,9.0653,9.1545,9.2187,9.2332,9.3117,9.3935,9.3935,9.3757,9.3257,9.1901,9.1511,8.9794,8.6226,8.5979,8.6122,8.5123,8.4516,8.4516,8.4516,8.4516,8.4516,8.4583,8.4516,8.4516,8.4619,8.4619,8.4552,8.4686,8.4853,8.4984,8.4919,8.4984,8.5048,8.0192,8.0409,8.2656,8.4466,8.6021,8.6757,8.7014,8.7014,8.6978,8.7206,8.7472,8.7435,8.7686,8.8012,8.8012,8.809,8.813,8.8167,8.817,8.8135,8.8135,8.817,8.813,8.8133,8.8093,8.8008,8.7677,8.7369,8.7014,8.6471,8.5902,8.5502,8.5167,8.4847,8.4516,8.4516,8.4516,8.4516,8.4516,8.4516,8.4516,8.4516,8.4516,8.4516,8.4516,8.4516,8.4516,8.4516,8.4516,8.4516,8.4516,8.4516,8.4516,8.4516,8.4516,8.4516,8.4516,8.4516,8.4516,8.4516,8.4516,8.4516,8.4516,8.4516,8.4516,8.4516,8.4909,8.5694,8.5087,8.4516,8.4659,8.54,8.5968,8.6075,8.675,8.7577,8.8157,8.8299,8.8582,8.9155,8.9226,8.9261,8.9368,9.0046,9.051,9.0796,9.126,9.1828,9.193,9.2006,9.1331,9.0046,8.9652,8.8113,8.5583,8.5408,8.5408,8.4838,8.4516,8.4516,8.4516,8.4583,8.465,8.465,8.4644,8.4644,8.4716,8.4721,8.4721,8.4919,8.5084,8.5148,8.5148,8.5212,8.5239,8.0437,8.0696,8.2181,8.3816,8.515,8.6783,8.7526,8.7711,8.7789,8.7752,8.7455,8.7752,8.7752,8.7827,8.7975,8.8127,8.8209,8.8247,8.8287,8.8213,8.8251,8.8288,8.8248,8.8288,8.8137,8.809,8.8049,8.7723,8.7299,8.7169,8.6642,8.5764,8.5623,8.5319,8.4811,8.4716,8.4686,8.465,8.468,8.468,8.465,8.4619,8.4516,8.4516,8.4516,8.4516,8.4516,8.4516,8.4516,8.4516,8.4516,8.4516,8.4516,8.4516,8.4516,8.4516,8.4516,8.4516,8.4516,8.4516,8.4516,8.4516,8.4516,8.4516,8.4516,8.4516,8.4516,8.4588,8.4588,8.4516,8.4516,8.4588,8.4695,8.4798,8.4833,8.5055,8.6378,8.6627,8.7161,8.8655,8.8405,8.8762,8.8405,8.8512,8.8762,8.8869,8.9475,8.9796,8.9757,8.9689,8.9082,8.7404,8.6722,8.6111,8.5048,8.4552,8.4659,8.4624,8.4516,8.4583,8.4619,8.4686,8.4817,8.4782,8.4804,8.4833,8.4976,8.4954,8.4859,8.5084,8.5148,8.5148,8.5212,8.5302,8.5391,7.8877,7.9025,8.0585,8.1439,8.1885,8.3556,8.5004,8.6044,8.6081,8.5413,8.4559,8.5561,8.6081,8.623,8.7492,8.809,8.809,8.817,8.8286,8.8287,8.825,8.8288,8.825,8.8288,8.825,8.8209,8.809,8.7971,8.7851,8.7809,8.7509,8.6743,8.631,8.6035,8.5922,8.5527,8.5293,8.5319,8.5307,8.5307,8.5319,8.4782,8.4516,8.4516,8.4516,8.4516,8.4516,8.4516,8.4516,8.4516,8.4516,8.4516,8.4516,8.4516,8.4516,8.4516,8.4516,8.4516,8.4516,8.4516,8.4516,8.4516,8.4516,8.4516,8.4516,8.4516,8.4516,8.4516,8.4516,8.4516,8.4516,8.4516,8.4516,8.4516,8.4516,8.4766,8.4984,8.5055,8.5301,8.548,8.5587,8.5658,8.5587,8.5587,8.6158,8.7335,8.8477,8.919,8.919,8.9222,8.8038,8.6079,8.5083,8.494,8.4659,8.4516,8.4583,8.4516,8.465,8.4752,8.4716,8.4883,8.5048,8.5048,8.5024,8.505,8.514,8.5084,8.5112,8.5203,8.5302,8.5329,8.5391,8.5453,8.5514,7.8357,7.8466,7.9247,8.01,8.0918,8.1848,8.3113,8.4376,8.3819,8.3373,8.3373,8.4191,8.4526,8.4637,8.5493,8.6349,8.7207,8.7207,8.7729,8.8399,8.8436,8.8399,8.8325,8.8324,8.8325,8.8287,8.8167,8.8127,8.8167,8.809,8.7888,8.7517,8.6941,8.6539,8.6274,8.5979,8.5844,8.5865,8.5148,8.4832,8.4833,8.4251,8.39,8.3928,8.4358,8.4516,8.4516,8.4516,8.4516,8.4516,8.4516,8.4516,8.4516,8.4516,8.4516,8.4516,8.4516,8.4516,8.4516,8.4516,8.4516,8.4516,8.4516,8.4516,8.4516,8.4516,8.4516,8.4516,8.4516,8.4516,8.4516,8.4516,8.4516,8.4516,8.4516,8.4516,8.4516,8.4516,8.4516,8.4516,8.4516,8.4516,8.4516,8.4516,8.4945,8.5658,8.6443,8.7014,8.7014,8.7076,8.6397,8.4976,8.4588,8.4655,8.4686,8.4752,8.4817,8.4817,8.4919,8.4883,8.4984,8.5076,8.5176,8.5239,8.5247,8.5236,8.5293,8.5266,8.5293,8.5416,8.5416,8.5416,8.5478,8.5539,8.5539,7.8355,7.835,7.835,7.9276,8.0685,8.0723,8.1396,8.2405,8.1247,8.1468,8.2737,8.2923,8.3072,8.3108,8.3296,8.4261,8.5709,8.5747,8.6678,8.8275,8.8312,8.8353,8.8433,8.8428,8.8393,8.8288,8.8284,8.8282,8.8209,8.813,8.809,8.8012,8.7517,8.7026,8.6575,8.6434,8.6434,8.6502,8.513,8.4435,8.4415,8.389,8.338,8.3041,8.4098,8.4573,8.4102,8.44,8.4257,8.3493,8.3393,8.3328,8.3328,8.3185,8.3691,8.4445,8.4516,8.4516,8.4516,8.4516,8.4516,8.4516,8.4516,8.4445,8.4231,8.4231,8.4302,8.4516,8.4516,8.4516,8.4516,8.4516,8.4516,8.4516,8.4516,8.4516,8.4516,8.4516,8.4516,8.4516,8.4516,8.4516,8.4516,8.4516,8.4552,8.4552,8.4945,8.4695,8.4838,8.4588,8.4588,8.4624,8.4762,8.4829,8.4889,8.4984,8.5084,8.5148,8.5148,8.5148,8.5112,8.5302,8.5329,8.5329,8.5344,8.543,8.5539,8.543,8.5406,8.5478,8.5539,8.5539,8.5539,8.5539,8.5539,7.8385,7.849,7.8385,7.8571,7.9008,7.9008,7.9124,7.9347,0.0,0.0,0.0,8.0872,8.1468,8.158,8.2847,8.3592,8.3853,8.3995,8.4925,8.6528,8.6559,8.7303,8.8574,8.8499,8.8465,8.8435,8.8325,8.8288,8.8288,8.8211,8.8247,8.817,8.7971,8.7846,8.7723,8.7206,8.7206,8.7686,8.6924,8.6532,8.6548,8.6019,8.4444,8.1791,8.409,8.4298,8.2125,8.3693,8.2501,7.8314,7.754,7.7366,7.733,7.733,7.9524,8.4084,8.4516,8.4516,8.4516,8.4516,8.4516,8.4516,8.4516,8.3981,8.2697,8.2626,8.3161,8.4445,8.4516,8.4516,8.4516,8.4516,8.4516,8.4516,8.4516,8.4516,8.4516,8.4516,8.4516,8.4516,8.4516,8.4516,8.4516,8.4516,8.4516,8.4516,8.4516,8.4516,8.4552,8.4655,8.4726,8.4905,8.4971,8.5038,8.5055,8.5148,8.5148,8.5148,8.5239,8.5302,8.5329,8.5391,8.5478,8.5514,8.5442,8.5502,8.5539,8.5539,8.5539,8.5539,8.5539,8.5539,8.5539,8.5539,8.5539,7.7708,0.0,7.8594,7.859,0.0,7.8617,7.8617,7.8654,7.8717,7.8648,7.8691,7.9513,7.9849,7.9886,8.0707,8.1491,8.2312,8.2383,8.3312,8.4919,8.4947,8.5396,8.6219,8.6925,8.7266,8.731,8.7989,8.8325,8.8325,8.8288,8.825,8.825,8.8209,8.7761,8.7019,8.7364,8.7766,8.8012,8.6969,8.6405,8.6347,8.59,8.4882,8.3379,8.4962,0.0,0.0,0.0,0.0,0.0,0.0,0.0,0.0,0.0,0.0,7.6132,7.2007,6.9397,6.9428,7.0217,7.2307,7.6023,7.717,7.6645,7.4238,7.8407,8.0057,7.78,8.0378,8.2198,8.2233,8.2905,8.3399,8.3435,8.4084,8.4516,8.4516,8.4516,8.4516,8.4516,8.4516,8.4516,8.4516,8.4516,8.4516,8.4516,8.4516,8.4583,8.465,8.4632,8.4625,8.4817,8.4984,8.5112,8.5112,8.5239,8.5329,8.5365,8.5391,8.5453,8.5416,8.5478,8.5539,8.5539,8.5539,8.5539,8.5539,8.5539,8.5539,8.5539,8.5539,8.5539,8.5539,8.5539,8.5539,7.6426,7.7789,7.7795,7.797,7.8255,7.7918,7.7806,7.7806,7.7806,7.7993,7.8292,7.8584,7.8704,7.8704,7.8704,7.9489,8.076,8.0797,8.1695,8.3302,8.3302,8.3452,8.3863,8.5087,8.5686,8.577,8.6943,8.7728,8.7987,8.7915,8.7953,8.825,8.8248,8.7616,8.6462,0.0,0.0,0.0,8.6635,8.6193,8.616,8.5712,8.5251,8.4657,8.5839,0.0,8.5748,8.6052,8.5655,8.4251,8.3776,0.0,0.0,0.0,0.0,0.0,0.0,0.0,0.0,0.0,0.0,0.0,6.6607,6.681,6.5521,7.2251,7.4443,6.9196,7.5407,7.9549,7.8662,8.0478,8.1776,8.1827,8.2911,8.3701,8.3736,8.3946,8.4088,8.4088,8.4374,8.4516,8.4516,8.4516,8.4516,8.4516,8.4516,8.4583,8.4847,8.4817,8.47,8.4753,8.506,8.5185,8.5203,8.5391,8.5478,8.5539,8.5539,8.5539,8.5539,8.5539,8.5539,8.5539,8.5539,8.5539,8.5539,8.5539,8.5539,8.5539,8.5539,8.5539,8.5539,8.5539,8.5539,7.4167,7.4487,7.4361,7.525,7.6535,7.5077,7.4479,7.4479,7.4479,7.5339,7.6797,7.8143,7.8704,7.8704,7.8704,7.8816,7.904,7.904,7.9975,8.1545,8.1582,8.2368,8.3751,8.3958,8.4108,8.4088,8.4287,8.5112,8.6381,8.6275,8.6947,8.8248,8.8286,8.8174,8.7988,8.8019,8.7384,8.605,8.7198,8.7752,8.7793,8.7707,8.6297,8.3667,8.572,8.5934,8.3772,8.5373,8.4126,7.9539,7.7484,7.6502,7.6386,7.4007,7.0948,0.0,6.5958,0.0,0.0,0.0,0.0,0.0,0.0,0.0,0.0,6.4195,6.4231,6.0882,7.2287,7.8209,7.4161,7.7664,8.0201,8.0196,8.0348,8.0525,8.056,8.168,8.2519,8.2519,8.3696,8.4516,8.4481,8.4516,8.4516,8.4583,8.4512,8.4639,8.514,8.5227,8.5234,8.5364,8.5463,8.541,8.5453,8.5442,8.5539,8.5539,8.5539,8.5539,8.5539,8.5539,8.5539,8.5539,8.5539,8.5539,8.5539,8.5539,8.5539,8.543,8.5322,8.5286,8.5322,8.525,8.5539,7.2992,7.388,7.3785,7.3702,7.3544,7.2759,7.2983,7.3843,7.388,7.4292,7.5039,7.5712,7.6012,7.6086,7.7021,7.7395,7.747,7.833,7.9115,7.9825,7.9825,8.0236,8.0984,8.1937,8.2386,8.2405,8.3345,8.4134,8.4769,8.4702,8.4968,8.5678,8.6462,8.4117,7.9238,8.4191,8.6498,8.5754,8.7236,8.8012,8.8012,8.8012,8.7384,8.5972,8.703,8.7104,8.5935,8.5977,8.4775,8.2128,8.027,7.9181,7.8585,6.8076,6.3123,0.0,0.0,0.0,0.0,0.0,0.0,0.0,0.0,0.0,0.0,0.0,5.5464,5.9948,7.0607,7.442,6.7386,7.0786,7.3836,7.4822,7.2521,7.3329,7.9272,7.8211,7.805,8.0628,8.2334,8.3328,8.3364,8.4078,8.4752,8.4853,8.4071,8.3873,8.4952,8.5239,8.5239,8.5293,8.5311,8.5311,8.5406,8.5466,8.5539,8.5539,8.5539,8.5539,8.5539,8.5539,8.5539,8.5539,8.5539,8.5261,8.4479,8.49,8.5177,8.4419,8.3553,8.3011,8.2939,8.2939,8.2939,7.1525,7.2572,7.1093,7.0146,6.9634,6.9659,7.0804,7.2647,7.2721,7.2946,7.3245,7.3282,7.2609,7.1579,7.1681,7.2392,7.3562,7.5096,7.6481,7.7582,7.7993,7.821,7.8255,7.9848,8.0641,8.0723,8.1582,8.2373,8.3121,8.2644,8.1827,8.0712,8.1322,7.7938,7.1114,7.8416,8.3333,8.5159,8.6348,8.6941,8.6941,8.6898,8.6898,8.6941,8.6901,8.6901,8.6904,8.5791,8.4967,8.4491,8.1613,7.9346,7.7937,6.236,0.0,0.0,0.0,0.0,0.0,0.0,0.0,0.0,0.0,4.6166,3.4509,0.0,4.8009,0.0,6.6696,6.9315,6.2928,6.4854,0.0,0.0,6.4037,6.4531,7.3363,7.2551,7.2894,7.7218,8.0139,8.1819,8.1855,8.2892,8.3773,8.4026,8.3024,8.2758,8.4439,8.4706,8.4828,8.5153,8.5257,8.523,8.5369,8.5466,8.5539,8.5539,8.5214,8.4997,8.4961,8.4672,8.4419,8.4419,8.4419,8.3998,8.2845,8.3578,8.3733,8.2397,8.1458,8.0845,8.0845,8.0881,8.0881,6.9217,6.887,6.3072,6.2235,6.4675,6.4713,6.6461,6.9356,6.9394,7.0179,7.1562,7.1562,6.9072,6.4662,6.0455,0.0,6.5201,6.6859,6.9973,7.4292,7.5825,7.6572,7.6647,7.8143,7.8921,7.8853,7.7589,7.8462,8.1118,7.9849,7.6725,7.2201,7.0711,6.9594,6.8961,7.1121,7.6036,8.3408,8.3743,8.3817,8.378,8.3628,8.3628,8.3817,8.367,8.367,8.378,8.3631,8.3557,8.326,7.6288,7.0772,6.7464,0.0,0.0,0.0,0.0,0.0,0.0,0.0,0.0,0.0,0.0,0.0,0.0,0.0,0.0,0.0,5.7954,0.0,6.3531,6.2524,0.0,0.0,0.0,5.4394,5.8341,6.3361,6.7799,7.1271,0.0,0.0,8.0128,8.0291,8.0672,8.1126,8.0989,8.1422,8.3096,8.3361,8.3878,8.5141,8.5466,8.5406,8.5153,8.5177,8.5105,8.5177,8.4311,8.3444,8.3336,8.2361,8.135,8.1386,8.1242,8.122,8.1105,8.1103,8.0736,7.922,7.9834,8.0736,8.0628,8.0592,8.052,6.3146,5.835,5.4986,5.5342,5.8124,5.7183,6.0325,6.5999,6.5002,6.3748,6.2548,6.2548,5.8735,5.2175,5.0288,0.0,0.0,0.0,6.244,6.8075,6.971,7.2082,7.4815,7.5488,7.6311,7.7245,7.6692,7.7521,7.9614,7.9022,6.9247,5.1233,0.0,0.0,5.4165,6.3356,7.1257,7.7336,8.1359,8.3401,8.3382,8.337,8.3336,8.3408,8.3334,8.337,8.337,8.2472,8.0194,7.6245,7.0218,6.4483,0.0,0.0,0.0,0.0,0.0,0.0,0.0,0.0,0.0,0.0,0.0,3.2695,2.5795,0.0,0.0,0.0,4.1219,4.3823,4.8332,5.3007,0.0,0.0,0.0,0.0,0.0,0.0,0.0,6.1708,6.7911,7.2422,7.46,7.6359,7.7941,7.905,7.9292,7.9982,8.1567,0.0,8.1992,8.265,8.2689,8.2676,8.2676,8.2079,8.1907,8.26,8.2144,8.1783,8.1783,8.1314,8.0866,8.0853,8.0873,8.0564,7.9617,7.8606,7.7667,7.7162,7.7523,7.7884,7.7956,7.792,7.7956,5.4896,0.0,0.0,0.0,0.0,4.8916,5.2257,5.8431,5.7193,5.5421,5.3226,5.3265,0.0,0.0,0.0,0.0,0.0,0.0,5.6229,6.2113,6.6199,6.9797,7.3133,7.3647,7.447,7.56,7.516,7.4562,7.3768,7.146,5.9014,3.7469,0.0,0.0,0.0,0.0,6.5487,7.2286,7.8776,8.2047,8.2049,8.2047,8.2024,8.2064,8.2062,8.2062,8.2021,7.9182,7.4996,6.9396,6.2241,0.0,0.0,0.0,0.0,0.0,0.0,0.0,0.0,0.0,0.0,0.0,0.0,0.0,0.0,0.0,0.0,0.0,0.0,0.0,3.8253,4.5371,4.8379,0.0,0.0,0.0,0.0,0.0,0.0,0.0,0.0,0.0,6.6812,7.1005,7.4725,0.0,0.0,7.8391,7.9942,8.0297,8.0513,8.0945,8.0751,0.0,0.0,7.9712,7.9378,8.022,8.0669,8.0251,7.85,7.8951,7.9025,7.7709,7.8599,7.9224,7.8102,7.597,7.4167,7.4125,7.414,7.414,7.4248,7.5229,7.6042,0.0,0.0,0.0,0.0,0.0,0.0,0.0,0.0,4.5219,4.5107,0.0,4.4887,0.0,0.0,0.0,0.0,0.0,4.4945,0.0,0.0,6.6353,7.1188,7.1338,7.2841,7.3777,7.3806,7.1992,6.7995,6.1804,5.4183,0.0,0.0,0.0,0.0,0.0,0.0,5.7743,6.8881,7.5638,7.889,7.8958,7.8928,7.8904,7.8921,7.8953,7.8835,7.8591,7.2796,6.7786,6.4159,5.1933,0.0,0.0,0.0,0.0,0.0,0.0,0.0,0.0,0.0,0.0,0.0,0.0,0.0,0.0,0.0,0.0,0.0,0.0,0.0,0.0,4.1666,0.0,0.0,0.0,0.0,0.0,0.0,0.0,0.0,0.0,0.0,5.6633,6.3931,7.0606,7.3422,0.0,0.0,0.0,0.0,7.971,8.1145,8.0419,7.9748,7.9718,7.9303,7.8985,7.9044,0.0,0.0,7.2976,7.43,7.4814,7.0651,7.3564,7.6313,7.6421,7.2261,6.9369,6.9299,6.9256,6.951,6.9765,7.2177,7.512,0.0,0.0,0.0,0.0,0.0,0.0,0.0,0.0,0.0,3.8594,0.0,3.6504,0.0,0.0,0.0,0.0,0.0,0.0,0.0,0.0,5.2985,5.7611,5.8839,6.2565,6.3262,0.0,5.8335,5.1927,0.0,0.0,0.0,0.0,0.0,0.0,0.0,0.0,5.4716,6.4122,7.3768,7.8704,7.8704,7.8704,7.8741,7.8748,7.8748,7.5646,6.9319,6.6889,6.2701,0.0,0.0,0.0,0.0,0.0,0.0,0.0,0.0,0.0,0.0,0.0,0.0,0.0,0.0,0.0,0.0,0.0,0.0,0.0,0.0,0.0,0.0,0.0,3.8872,0.0,0.0,0.0,0.0,0.0,0.0,0.0,0.0,0.0,5.0845,5.8903,6.5751,6.8937,7.2358,7.4667,7.5248,0.0,0.0,0.0,0.0,0.0,0.0,0.0,7.2273,7.3051,7.019,6.7366,6.5999,6.9244,7.1609,7.0067,0.0,0.0,6.3055,5.9765,5.8643,5.8606,6.0326,6.1459,6.0326,6.3093,6.542,0.0,0.0,0.0,0.0,0.0,0.0,0.0,0.0,0.0,3.0233,2.8243,0.0,0.0,0.0,0.0,0.0,0.0,0.0,0.0,0.0,0.0,0.0,4.9558,5.2833,0.0,0.0,0.0,0.0,0.0,0.0,0.0,0.0,0.0,0.0,0.0,0.0,5.2997,6.0906,7.2609,7.8704,7.8704,7.8704,7.8704,7.8704,7.8217,7.3806,6.5057,0.0,0.0,0.0,0.0,0.0,0.0,0.0,0.0,0.0,0.0,0.0,0.0,0.0,0.0,0.0,0.0,0.0,0.0,0.0,0.0,0.0,0.0,0.0,0.0,0.0,3.4512,0.0,0.0,0.0,0.0,0.0,0.0,0.0,0.0,0.0,0.0,0.0,5.9887,6.4026,6.8597,7.1831,7.2951,7.4326,7.538,0.0,0.0,0.0,0.0,0.0,0.0,0.0,0.0,0.0,0.0,0.0,0.0,0.0,0.0,6.6235,5.5111,5.1733,5.042,4.9925,0.0,0.0,0.0,0.0,0.0,0.0,0.0,0.0,0.0,0.0,0.0,0.0,0.0,0.0,0.0,0.0,0.0,0.0,2.0046,0.0,0.0,0.0,0.0,0.0,0.0,0.0,0.0,0.0,0.0,0.0,0.0,0.0,0.0,0.0,0.0,0.0,0.0,0.0,0.0,0.0,0.0,5.2382,5.9149,7.2011,7.8629,7.8629,7.8666,7.8591,7.8479,7.7096,7.3207,6.6515,0.0,0.0,0.0,0.0,0.0,0.0,0.0,0.0,0.0,0.0,0.0,0.0,0.0,0.0,0.0,0.0,0.0,0.0,0.0,0.0,0.0,0.0,0.0,0.0,0.0,0.0,3.265,3.5278,3.6029,0.0,0.0,0.0,0.0,0.0,0.0,0.0,0.0,0.0,0.0,6.3918,6.826,7.1392,7.2236,7.2734,7.3097,7.2164,7.1469,7.1572,7.0972,6.9602,0.0,0.0,0.0,0.0,0.0,0.0,0.0,0.0,0.0,0.0,0.0,0.0,0.0,0.0,0.0,0.0,0.0,0.0,0.0,0.0,0.0,0.0,0.0,0.0,0.0,0.0,0.0,0.0,0.0,0.0,0.0,0.0,0.0,0.0,0.0,0.0,0.0,0.0,0.0,0.0,0.0,0.0,0.0,0.0,0.0,0.0,0.0,0.0,0.0,0.0,0.0,0.0,0.0,0.0,5.1411,5.921,7.1018,7.7096,7.7096,7.7096,7.6535,7.5376,7.4852,7.1525,0.0,0.0,0.0,0.0,0.0,0.0,0.0,0.0,0.0,0.0,0.0,0.0,0.0,0.0,0.0,0.0,0.0,0.0,0.0,0.0,0.0,0.0,0.0,0.0,0.0,0.0,0.0,0.0,4.188,4.2106,3.7604,0.0,0.0,0.0,0.0,0.0,0.0,0.0,0.0,0.0,0.0,6.693,7.0241,7.1028,7.1759,7.3052,7.2158,7.1768,7.2908,7.0096,6.7465,6.6457,0.0,0.0,0.0,0.0,0.0,0.0,0.0,0.0,0.0,0.0,0.0,0.0,0.0,0.0,0.0,0.0,0.0,0.0,0.0,0.0,0.0,0.0,0.0,0.0,0.0,0.0,0.0,0.0,0.0,0.0,0.0,0.0,0.0,0.0,0.0,0.0,0.0,0.0,0.0,0.0,0.0,0.0,0.0,0.0,0.0,0.0,0.0,0.0,0.0,0.0,0.0,0.0,0.0,5.0623,5.8294,6.9585,7.5451,7.5413,7.5413,7.4927,7.388,7.3245,6.8609,0.0,0.0,0.0,0.0,0.0,0.0,0.0,0.0,0.0,0.0,0.0,0.0,0.0,0.0,0.0,0.0,0.0,0.0,0.0,0.0,0.0,0.0,0.0,0.0,0.0,0.0,0.0,0.0,3.7837,3.9487,3.7618,0.0,0.0,0.0,0.0,0.0,0.0,0.0,0.0,0.0,0.0,6.3777,6.711,6.7754,0.0,0.0,6.987,6.9312,7.1609,6.9431,6.6365,6.315,5.9635,0.0,0.0,0.0,0.0,0.0,0.0,0.0,0.0,0.0,0.0,0.0,0.0,0.0,0.0,0.0,0.0,0.0,0.0,0.0,0.0,0.0,0.0,0.0,0.0,0.0,0.0,0.0,0.0,0.0,0.0,0.0,0.0,0.0,0.0,0.0,0.0,0.0,0.0,0.0,0.0,0.0,0.0,0.0,0.0,0.0,0.0,0.0,0.0,0.0,0.0,0.0,0.0,0.0,5.6717,6.7875,7.3702,7.3693,7.3702,7.3665,7.3506,7.2011,6.5131,0.0,0.0,0.0,0.0,0.0,0.0,0.0,0.0,0.0,0.0,0.0,0.0,0.0,0.0,0.0,0.0,0.0,0.0,0.0,0.0,0.0,0.0,0.0,0.0,0.0,0.0,0.0,0.0,0.0,0.0,0.0,0.0,0.0,0.0,0.0,0.0,0.0,0.0,0.0,0.0,0.0,5.9776,6.3115,6.3385,6.4528,0.0,0.0,6.489,6.8021,6.8496,6.5842,5.8087,0.0,0.0,0.0,0.0,0.0,0.0,0.0,0.0,0.0,0.0,0.0,0.0,0.0,0.0,0.0,0.0,0.0,0.0,0.0,0.0,0.0,0.0,0.0,0.0,0.0,0.0,0.0,0.0,0.0,0.0,0.0,0.0,0.0,0.0,0.0,0.0,0.0,0.0,0.0,0.0,0.0,0.0,0.0,0.0,0.0,0.0,0.0,0.0,0.0,0.0,0.0,0.0,0.0,0.0,5.5058,6.6203,7.1983,7.1974,7.1983,7.1422,7.0254,6.9805,0.0,0.0,0.0,0.0,0.0,0.0,0.0,0.0,0.0,0.0,0.0,0.0,0.0,0.0,0.0,0.0,0.0,0.0,0.0,0.0,0.0,0.0,0.0,0.0,0.0,0.0,0.0,2.1779,0.0,0.0,0.0,0.0,0.0,0.0,0.0,0.0,0.0,0.0,0.0,0.0,0.0,0.0,6.0579,6.5055,6.3606,6.2823,0.0,0.0,6.2514,6.3324,6.346,6.2375,0.0,0.0,0.0,0.0,0.0,0.0,0.0,0.0,0.0,0.0,0.0,0.0,0.0,0.0,0.0,0.0,0.0,0.0,0.0,0.0,0.0,0.0,0.0,0.0,0.0,0.0,0.0,0.0,0.0,0.0,0.0,0.0,0.0,0.0,0.0,0.0,0.0,0.0,0.0,0.0,0.0,0.0,0.0,0.0,0.0,0.0,0.0,0.0,0.0,0.0,0.0,0.0,0.0,0.0,4.4608,5.3262,6.1776,6.7492,7.0189,7.0376,6.9927,6.903,6.9048,6.3702,0.0,0.0,0.0,0.0,0.0,0.0,0.0,0.0,0.0,0.0,0.0,0.0,0.0,0.0,0.0,0.0,0.0,0.0,0.0,0.0,0.0,0.0,0.0,0.0,0.0,0.0,0.0,0.0,0.0,0.0,0.0,0.0,0.0,0.0,0.0,0.0,0.0,0.0,0.0,0.0,0.0,0.0,6.1865,6.0052,0.0,0.0,0.0,5.9119,6.1289,0.0,0.0,0.0,0.0,0.0,0.0,0.0,0.0,0.0,0.0,0.0,0.0,0.0,0.0,0.0,0.0,0.0,0.0,0.0,0.0,0.0,0.0,0.0,0.0,0.0,0.0,0.0,0.0,0.0,0.0,0.0,0.0,0.0,0.0,0.0,0.0,0.0,0.0,0.0,0.0,0.0,0.0,0.0,0.0,0.0,0.0,0.0,0.0,0.0,0.0,0.0,0.0,0.0,0.0,0.0,0.0,0.0,5.1409,5.7435,6.3237,6.8724,6.9158,6.9158,6.9074,6.9165,6.3887,0.0,0.0,0.0,0.0,0.0,0.0,0.0,0.0,0.0,0.0,0.0,0.0,0.0,0.0,0.0,0.0,0.0,0.0,0.0,0.0,0.0,0.0,0.0,0.0,0.0,0.0,0.0,0.0,0.0,0.0,0.0,0.0,0.0,0.0,0.0,0.0,0.0,0.0,0.0,0.0,0.0,5.8102,5.7002,5.5329,5.5194,0.0,0.0,5.5487,5.983,5.8879,0.0,0.0,0.0,0.0,0.0,0.0,0.0,0.0,0.0,0.0,0.0,0.0,0.0,0.0,0.0,0.0,0.0,0.0,0.0,0.0,0.0,0.0,0.0,0.0,0.0,0.0,0.0,0.0,0.0,0.0,0.0,0.0,0.0,0.0,0.0,0.0,0.0,0.0,0.0,0.0,0.0,0.0,0.0,0.0,0.0,0.0,0.0,0.0,0.0,0.0,0.0,0.0,0.0,0.0,0.0,0.0,5.0371,6.1514,6.8017,6.9223,6.9358,6.9367,6.9339,6.9354,6.4573,0.0,0.0,0.0,0.0,0.0,0.0,0.0,0.0,0.0,0.0,0.0,0.0,0.0,0.0,0.0,0.0,0.0,0.0,0.0,0.0,0.0,0.0,0.0,0.0,0.0,0.0,0.0,0.0,0.0,0.0,0.0,0.0,0.0,0.0,0.0,0.0,0.0,0.0,0.0,0.0,0.0,5.6034,5.8243,5.6083,0.0,0.0,0.0,0.0,5.3697,5.1298,0.0,0.0,0.0,0.0,0.0,0.0,0.0,0.0,0.0,0.0,0.0,0.0,0.0,0.0,0.0,0.0,0.0,0.0,0.0,0.0,0.0,0.0,0.0,0.0,0.0,0.0,0.0,0.0,0.0,0.0,0.0,0.0,0.0,0.0,0.0,0.0,0.0,0.0,0.0,0.0,0.0,0.0,0.0,0.0,0.0,0.0,0.0,0.0,0.0,0.0,0.0,0.0,0.0,0.0,0.0,0.0,5.4311,6.1228,6.6249,6.9285,6.9528,6.9528,6.9398,6.8719,6.4471,0.0,0.0,0.0,0.0,0.0,0.0,0.0,0.0,0.0,0.0,0.0,0.0,0.0,0.0,0.0,0.0,0.0,0.0,0.0,0.0,0.0,0.0,0.0,0.0,0.0,0.0,0.0,0.0,0.0,0.0,0.0,0.0,0.0,0.0,0.0,0.0,0.0,0.0,0.0,0.0,4.8656,5.2797,5.5207,0.0,0.0,0.0,0.0,0.0,0.0,4.7752,4.4803,0.0,0.0,0.0,0.0,0.0,0.0,0.0,0.0,0.0,0.0,0.0,0.0,0.0,0.0,0.0,0.0,0.0,0.0,0.0,0.0,0.0,0.0,0.0,0.0,0.0,0.0,0.0,0.0,0.0,0.0,0.0,0.0,0.0,0.0,0.0,0.0,0.0,0.0,0.0,0.0,0.0,0.0,0.0,0.0,0.0,0.0,0.0,0.0,0.0,0.0,0.0,0.0,0.0,0.0,0.0,5.7445,5.9297,6.3164,6.9308,6.97,6.9571,6.9061,6.7926,6.3991,5.6948,0.0,0.0,0.0,0.0,0.0,0.0,0.0,0.0,0.0,0.0,0.0,0.0,0.0,0.0,0.0,0.0,0.0,0.0,0.0,0.0,0.0,0.0,0.0,0.0,0.0,0.0,0.0,0.0,0.0,0.0,0.0,0.0,0.0,0.0,0.0,0.0,0.0,0.0,0.0,4.6041,4.9558,0.0,0.0,0.0,0.0,0.0,0.0,0.0,0.0,4.2866,0.0,0.0,0.0,0.0,0.0,0.0,0.0,0.0,0.0,0.0,0.0,0.0,0.0,0.0,0.0,0.0,0.0,0.0,0.0,0.0,0.0,0.0,0.0,0.0,0.0,0.0,0.0,0.0,0.0,0.0,0.0,0.0,0.0,0.0,0.0,0.0,0.0,0.0,0.0,0.0,0.0,0.0,0.0,0.0,0.0,0.0,0.0,0.0,0.0,0.0,0.0,0.0,0.0,0.0,0.0,0.0,5.7647,6.454,6.9601,6.9933,6.9255,6.7796,6.7533,6.3589,5.562,0.0,0.0,0.0,0.0,0.0,0.0,0.0,0.0,0.0,0.0,0.0,0.0,0.0,0.0,0.0,0.0,0.0,0.0,0.0,0.0,0.0,0.0,0.0,0.0,0.0,0.0,0.0,0.0,0.0,0.0,0.0,0.0,0.0,0.0,0.0,0.0,0.0,0.0,3.1572,4.0904,0.0,0.0,0.0,0.0,0.0,0.0,0.0,0.0,4.3871,0.0,0.0,0.0,0.0,0.0,0.0,0.0,0.0,0.0,0.0,0.0,0.0,0.0,0.0,0.0,0.0,0.0,0.0,0.0,0.0,0.0,0.0,0.0,0.0,0.0,0.0,0.0,0.0,0.0,0.0,0.0,0.0,0.0,0.0,0.0,0.0,0.0,0.0,0.0,0.0,0.0,0.0,0.0,0.0,0.0,0.0,0.0,0.0,0.0,0.0,0.0,0.0,0.0,0.0,0.0,0.0,0.0,0.0,6.3585,6.8411,6.8636,6.8258,6.7389,6.4883,6.0403,0.0,0.0,0.0,0.0,0.0,0.0,0.0,0.0,0.0,0.0,0.0,0.0,0.0,0.0,0.0,0.0,0.0,0.0,0.0,0.0,0.0,0.0,0.0,0.0,0.0,0.0,0.0,0.0,0.0,0.0,0.0,0.0,0.0,0.0,0.0,0.0,0.0,0.0,0.0,0.0,0.0,0.0,0.0,0.0,0.0,0.0,0.0,0.0,0.0,0.0,0.0,0.0,0.0,0.0,0.0,0.0,0.0,0.0,0.0,0.0,0.0,0.0,0.0,0.0,0.0,0.0,0.0,0.0,0.0,0.0,0.0,0.0,0.0,0.0,0.0,0.0,0.0,0.0,0.0,0.0,0.0,0.0,0.0,0.0,0.0,0.0,0.0,0.0,0.0,0.0,0.0,0.0,0.0,0.0,0.0,0.0,0.0,0.0,0.0,0.0,0.0,0.0,0.0,0.0,0.0,0.0,0.0,0.0,6.158,6.6706,6.6895,6.6744,6.6402,6.158,5.6607,0.0,0.0,0.0,0.0,0.0,0.0,0.0,0.0,0.0,0.0,0.0,0.0,0.0,0.0,0.0,0.0,0.0,0.0,0.0,0.0,0.0,0.0,0.0,0.0,0.0,0.0,0.0,0.0,0.0,0.0,0.0,0.0,0.0,0.0,0.0,0.0,0.0,0.0,0.0,0.0,0.0,0.0,0.0,0.0,0.0,0.0,0.0,0.0,4.0446,0.0,0.0,0.0,0.0,0.0,0.0,0.0,0.0,0.0,0.0,0.0,0.0,0.0,0.0,0.0,0.0,0.0,0.0,0.0,0.0,0.0,0.0,0.0,0.0,0.0,0.0,0.0,0.0,0.0,0.0,0.0,0.0,0.0,0.0,0.0,0.0,0.0,0.0,0.0,0.0,0.0,0.0,0.0,0.0,0.0,0.0,0.0,0.0,0.0,0.0,0.0,0.0,0.0,0.0,0.0,0.0,0.0,0.0,0.0,5.8695,6.5035,6.5187,6.4542,6.3023,5.8163,5.3152,0.0,0.0,0.0,0.0,0.0,0.0,0.0,0.0,0.0,0.0,0.0,0.0,0.0,0.0,0.0,0.0,0.0,0.0,0.0,0.0,0.0,0.0,0.0,0.0,0.0,0.0,0.0,0.0,0.0,0.0,0.0,0.0,0.0,0.0,0.0,0.0,0.0,0.0,0.0,0.0,0.0,0.0,0.0,0.0,0.0,0.0,0.0,0.0,0.0,0.0,0.0,0.0,0.0,0.0,0.0,0.0,0.0,0.0,0.0,0.0,0.0,0.0,0.0,0.0,0.0,0.0,0.0,0.0,0.0,0.0,0.0,0.0,0.0,0.0,0.0,0.0,0.0,0.0,0.0,0.0,0.0,0.0,0.0,0.0,0.0,0.0,0.0,0.0,0.0,0.0,0.0,0.0,0.0,0.0,0.0,0.0,0.0,0.0,0.0,0.0,0.0,0.0,0.0,0.0,0.0,0.0,0.0,0.0,5.3911,6.0517,6.2567,6.2302,5.9682,5.4746,5.0153,0.0,0.0,0.0,0.0,0.0,0.0,0.0,0.0,0.0,0.0,0.0,0.0,0.0,0.0,0.0,0.0,0.0,0.0,0.0,0.0,0.0,0.0,0.0,0.0,0.0,0.0,0.0,0.0,0.0,0.0,0.0,0.0,0.0,0.0,0.0,0.0,0.0,0.0,0.0,0.0,0.0,0.0,0.0,0.0,0.0,0.0,0.0,0.0,0.0,0.0,0.0,0.0,0.0,0.0,0.0,0.0,0.0,0.0,0.0,0.0,0.0,0.0,0.0,0.0,0.0,0.0,0.0,0.0,0.0,0.0,0.0,0.0,0.0,0.0,0.0,0.0,0.0,0.0,0.0,0.0,0.0,0.0,0.0,0.0,0.0,0.0,0.0,0.0,0.0,0.0,0.0,0.0,0.0,0.0,0.0,0.0,0.0,0.0,0.0,0.0,0.0,0.0,0.0,0.0,0.0,0.0,0.0,0.0,0.0,5.543,5.972,6.01,5.6303,5.1292,4.666,0.0,0.0,0.0,0.0,0.0,0.0,0.0,0.0,0.0,0.0,0.0,0.0,0.0,0.0,0.0,0.0,0.0,0.0,0.0,0.0,0.0,0.0,0.0,0.0,0.0,0.0,0.0,0.0,0.0,0.0,0.0,0.0,0.0,0.0,0.0,0.0,0.0,0.0,0.0,0.0,0.0,0.0,0.0,0.0,0.0,0.0,0.0,0.0,0.0,0.0,0.0,0.0,0.0,0.0,0.0,0.0,0.0,0.0,0.0,0.0,0.0,0.0,0.0,0.0,0.0,0.0,0.0,0.0,0.0,0.0,0.0,0.0,0.0,0.0,0.0,0.0,0.0,0.0,0.0,0.0,0.0,0.0,0.0,0.0,0.0,0.0,0.0,0.0,0.0,0.0,0.0,0.0,0.0,0.0,0.0,0.0,0.0,0.0,0.0,0.0,0.0,0.0,0.0,0.0,0.0,0.0,0.0,0.0,0.0,5.0342,5.6797,5.7746,5.2848,4.7799,4.2142,0.0,0.0,0.0,0.0,0.0,0.0,0.0,0.0,0.0,0.0,0.0,0.0,0.0,0.0,0.0,0.0,0.0,0.0,0.0,0.0,0.0,0.0,0.0,0.0,0.0,0.0,0.0,0.0,0.0,0.0,0.0,0.0,0.0,0.0,0.0,0.0,0.0,0.0,0.0,0.0,0.0,0.0,0.0,0.0,0.0,0.0,0.0,0.0,0.0,0.0,0.0,0.0,0.0,0.0,0.0,0.0,0.0,0.0,0.0,0.0,0.0,0.0,0.0,0.0,0.0,0.0,0.0,0.0,0.0,0.0,0.0,0.0,0.0,0.0,0.0,0.0,0.0,0.0,0.0,0.0,0.0,0.0,0.0,0.0,0.0,0.0,0.0,0.0,0.0,0.0,0.0,0.0,0.0,0.0,0.0,0.0,0.0,0.0,0.0,0.0,0.0,0.0,0.0,0.0,0.0,0.0,0.0,0.0,0.0,4.0998,4.7115,5.0646,5.0874,4.2977,3.8535,3.7966,0.0,0.0,0.0,0.0,0.0,0.0,0.0,0.0,0.0,0.0,0.0,0.0,0.0,0.0,0.0,0.0,0.0,0.0,0.0,0.0,0.0,0.0,0.0,0.0,0.0,0.0,0.0,0.0,0.0,0.0,0.0,0.0,0.0,0.0,0.0,0.0,0.0,0.0,0.0,0.0,0.0,0.0,0.0,0.0,0.0,0.0,0.0,0.0,0.0,0.0,0.0,0.0,0.0,0.0,0.0,0.0,0.0,0.0,0.0,0.0,0.0,0.0,0.0,0.0,0.0,0.0,0.0,0.0,0.0,0.0,0.0,0.0,0.0,0.0,0.0,0.0,0.0,0.0,0.0,0.0,0.0,0.0,0.0,0.0,0.0,0.0,0.0,0.0,0.0,0.0,0.0,0.0,0.0,0.0,0.0,0.0,0.0,0.0,0.0,0.0,0.0,0.0,0.0,0.0,0.0,0.0,0.0,0.0,3.6738,4.3051,4.6622,4.6622,4.0168,3.5953,0.0,0.0,0.0,0.0,0.0,0.0,0.0,0.0,0.0,0.0,0.0,0.0,0.0,0.0,0.0,0.0,0.0,0.0,0.0,0.0,0.0,0.0,0.0,0.0,0.0,0.0,0.0,0.0,0.0,0.0,0.0,0.0,0.0,0.0,0.0,0.0,0.0,0.0,0.0,0.0,0.0,0.0,0.0,0.0,0.0,0.0,0.0,0.0,0.0,0.0,0.0,0.0,0.0,0.0,0.0,0.0,0.0,0.0,0.0,0.0,0.0,0.0,0.0,0.0,0.0,0.0,0.0,0.0,0.0,0.0,0.0,0.0,0.0,0.0,0.0,0.0,0.0,0.0,0.0,0.0,0.0,0.0,0.0,0.0,0.0,0.0,0.0,0.0,0.0,0.0,0.0,0.0,0.0,0.0,0.0,0.0,0.0,0.0,0.0,0.0,0.0,0.0,0.0,0.0,0.0,0.0,0.0,0.0,3.1687,3.9663,4.6127,4.6508,4.0547,3.994,3.451,0.0,0.0,0.0,0.0,0.0,0.0,0.0,0.0,0.0,0.0,0.0,0.0,0.0,0.0,0.0,0.0,0.0,0.0,0.0,0.0,0.0,0.0,0.0,0.0,0.0,0.0,0.0,0.0,0.0,0.0,0.0,0.0,0.0,0.0,0.0,0.0,0.0,0.0,0.0,0.0,0.0,0.0,0.0,0.0,0.0,0.0,0.0,0.0,0.0,0.0,0.0,0.0,0.0,0.0,0.0,0.0,0.0,0.0,0.0,0.0,0.0,0.0,0.0,0.0,0.0,0.0,0.0,0.0,0.0,0.0,0.0,0.0,0.0,0.0,0.0,0.0,0.0,0.0,0.0,0.0,0.0,0.0,0.0,0.0,0.0,0.0,0.0,0.0,0.0,0.0,0.0,0.0,0.0,0.0,0.0,0.0,0.0,0.0,0.0,0.0,0.0,0.0,0.0,0.0,0.0,0.0,0.0,0.0,0.0,3.3207,0.0,4.2103,0.0,3.7998,3.3059,0.0,0.0,0.0,0.0,0.0,0.0,0.0,0.0,0.0,0.0,0.0,0.0,0.0,0.0,0.0,0.0,0.0,0.0,0.0,0.0,0.0,0.0,0.0,0.0,0.0,0.0,0.0,0.0,0.0,0.0,0.0,0.0,0.0,0.0,0.0,0.0,0.0,0.0,0.0,0.0,0.0,0.0,0.0,0.0,0.0,0.0,0.0,0.0,0.0,0.0,0.0,0.0,0.0,0.0,0.0,0.0,0.0,0.0,0.0,0.0,0.0,0.0,0.0,0.0,0.0,0.0,0.0,0.0,0.0,0.0,0.0,0.0,0.0,0.0,0.0,0.0,0.0,0.0,0.0,0.0,0.0,0.0,0.0,0.0,0.0,0.0,0.0,0.0,0.0,0.0,0.0,0.0,0.0,0.0,0.0,0.0,0.0,0.0,0.0,0.0,0.0,0.0,0.0,0.0,0.0,0.0,0.0,0.0,0.0,3.3472,3.4468,3.8379,4.4862,3.7834,3.3918,0.0,0.0,0.0,0.0,0.0,0.0,0.0,0.0,0.0,0.0,0.0,0.0,0.0,0.0,0.0,0.0,0.0,0.0,0.0,0.0,0.0,0.0,0.0,0.0,0.0,0.0,0.0,0.0,0.0,0.0,0.0,0.0,0.0,0.0,0.0,0.0,0.0,0.0,0.0,0.0,0.0,0.0,0.0,0.0,0.0,0.0,0.0,0.0,0.0,0.0,0.0,0.0,0.0,0.0,0.0,0.0,0.0,0.0,0.0,0.0,0.0,0.0,0.0,0.0,0.0,0.0,0.0,0.0,0.0,0.0,0.0,0.0,0.0,0.0,0.0,0.0,0.0,0.0,0.0,0.0,0.0,0.0,0.0,0.0,0.0,0.0,0.0,0.0,0.0,0.0,0.0,0.0,0.0,0.0,0.0,0.0,0.0,0.0,0.0,0.0,0.0,0.0,0.0,0.0,0.0,0.0,0.0,0.0,0.0,0.0,3.6622,3.5861,3.753,3.885,3.6681,0.0,0.0,0.0,0.0,0.0,0.0,0.0,0.0,0.0,0.0,0.0,0.0,0.0,0.0,0.0,0.0,0.0,0.0,0.0,0.0,0.0,0.0,0.0,0.0,0.0,0.0,0.0,0.0,0.0,0.0,0.0,0.0,0.0,0.0,0.0,0.0,0.0,0.0,0.0,0.0,0.0,0.0,0.0,0.0,0.0,0.0,0.0,0.0,0.0,0.0,0.0,0.0,0.0,0.0,0.0,0.0,0.0,0.0,0.0,0.0,0.0,0.0,0.0,0.0,0.0,0.0,0.0,0.0,0.0,0.0,0.0,0.0,0.0,0.0,0.0,0.0,0.0,0.0,0.0,0.0,0.0,0.0,0.0,0.0,0.0,0.0,0.0,0.0,0.0,0.0,0.0,0.0,0.0,0.0,0.0,0.0,0.0,0.0,0.0,0.0,0.0,0.0,0.0,0.0,0.0,0.0,0.0,0.0,0.0,0.0,3.5323,0.0,3.5546,3.4816,3.356,3.17,0.0,0.0,0.0,0.0,0.0,0.0,0.0,0.0,0.0,0.0,0.0,0.0,0.0,0.0,0.0,0.0,0.0,0.0,0.0,0.0,0.0,0.0,0.0,0.0,0.0,0.0,0.0,0.0,0.0,0.0,0.0,0.0,0.0,0.0,0.0,0.0,0.0,0.0,0.0,0.0,0.0,0.0,0.0,0.0,0.0,0.0,0.0,0.0,0.0,0.0,0.0,0.0,0.0,0.0,0.0,0.0,0.0,0.0,0.0,0.0,0.0,0.0,0.0,0.0,0.0,0.0,0.0,0.0,0.0,0.0,0.0,0.0,0.0,0.0,0.0,0.0,0.0,0.0,0.0,0.0,0.0,0.0,0.0,0.0,0.0,0.0,0.0,0.0,0.0,0.0,0.0,0.0,0.0,0.0,0.0,0.0,0.0,0.0,0.0,0.0,0.0,0.0,0.0,0.0,0.0,0.0,0.0,0.0,0.0,0.0,0.0,3.4768,3.3812,3.3279,0.0,0.0,0.0,0.0,0.0,0.0,0.0,0.0,0.0,0.0,0.0,0.0,0.0,0.0,0.0,0.0,0.0,0.0,0.0,0.0,0.0,0.0,0.0,0.0,0.0,0.0,0.0,0.0,0.0,0.0,0.0,0.0,0.0,0.0,0.0,0.0,0.0,0.0,0.0,0.0,0.0,0.0,0.0,0.0,0.0,0.0,0.0,0.0,0.0,0.0,0.0,0.0,0.0,0.0,0.0,0.0,0.0,0.0,0.0,0.0,0.0,0.0,0.0,0.0,0.0,0.0,0.0,0.0,0.0,0.0,0.0,0.0,0.0,0.0,0.0,0.0,0.0,0.0,0.0,0.0,0.0,0.0,0.0,0.0,0.0,0.0,0.0,0.0,0.0,0.0,0.0,0.0,0.0,0.0,0.0,0.0,0.0,0.0,0.0,0.0,0.0,0.0,0.0,0.0,0.0,0.0,0.0,0.0,0.0,0.0,0.0,3.1468,3.4251,3.488,0.0,3.4148,0.0,0.0,0.0,0.0,0.0,0.0,0.0,0.0,0.0,0.0,0.0,0.0,0.0,0.0,0.0,0.0,0.0,0.0,0.0,0.0,0.0,0.0,0.0,0.0,0.0,0.0,0.0,0.0,0.0,0.0,0.0,0.0,0.0,0.0,0.0,0.0,0.0,0.0,0.0,0.0,0.0,0.0,0.0,0.0,0.0,0.0,0.0,0.0,0.0,0.0,0.0,0.0,0.0,0.0,0.0,0.0,0.0,0.0,0.0,0.0,0.0,0.0,0.0,0.0,0.0,0.0,0.0,0.0,0.0,0.0,0.0,0.0,0.0,0.0,0.0,0.0,0.0,0.0,0.0,0.0,0.0,0.0,0.0,0.0,0.0,0.0,0.0,0.0,0.0,0.0,0.0,0.0,0.0,0.0,0.0,0.0,0.0,0.0,0.0,0.0,0.0,0.0,0.0,0.0,0.0,0.0,0.0,0.0,0.0,0.0,0.0,0.0,3.5735,3.5423,2.9184,0.0,0.0,0.0,0.0,0.0,0.0,0.0,0.0,0.0,0.0,0.0,0.0,0.0,0.0,0.0,0.0,0.0,0.0,0.0,0.0,0.0,0.0,0.0,0.0,0.0,0.0,0.0,0.0,0.0,0.0,0.0,0.0,0.0,0.0,0.0,0.0,0.0,0.0,0.0,0.0,0.0,0.0,0.0,0.0,0.0,0.0,0.0,0.0,0.0,0.0,0.0,0.0,0.0,0.0,0.0,0.0,0.0,0.0,0.0,0.0,0.0,0.0,0.0,0.0,0.0,0.0,0.0,0.0,0.0,0.0,0.0,0.0,0.0,0.0,0.0,0.0,0.0,0.0,0.0,0.0,0.0,0.0,0.0,0.0,0.0,0.0,0.0,0.0,0.0,0.0,0.0,0.0,0.0,0.0,0.0,0.0,0.0,0.0,0.0,0.0,0.0,0.0,0.0,0.0,0.0,0.0,0.0,0.0,0.0,0.0,3.2902,2.9859,3.4499,3.3986,2.7395,0.0,0.0,0.0,0.0,0.0,0.0,0.0,0.0,0.0,0.0,0.0,0.0,0.0,0.0,0.0,0.0,0.0,0.0,0.0,0.0,0.0,0.0,0.0,0.0,0.0,0.0,0.0,0.0,0.0,0.0,0.0,0.0,0.0,0.0,0.0,0.0,0.0,0.0,0.0,0.0,0.0,0.0,0.0,0.0,0.0,0.0,0.0,0.0,0.0,0.0,0.0,0.0,0.0,0.0,0.0,0.0,0.0,0.0,0.0,0.0,0.0,0.0,0.0,0.0,0.0,0.0,0.0,0.0,0.0,0.0,0.0,0.0,0.0,0.0,0.0,0.0,0.0,0.0,0.0,0.0,0.0,0.0,0.0,0.0,0.0,0.0,0.0,0.0,0.0,0.0,0.0,0.0,0.0,0.0,0.0,0.0,0.0,0.0,0.0,0.0,0.0,0.0,0.0,0.0,0.0,0.0,0.0,0.0,0.0,0.0,0.0,0.0,0.0,0.0,2.7982,0.0,0.0,0.0,0.0,0.0,0.0,0.0,0.0,0.0,0.0,0.0,0.0,0.0,0.0,0.0,0.0,0.0,0.0,0.0,0.0,0.0,0.0,0.0,0.0,0.0,0.0,0.0,0.0,0.0,0.0,0.0,0.0,0.0,0.0,0.0,0.0,0.0,0.0,0.0,0.0,0.0,0.0,0.0,0.0,0.0,0.0,0.0,0.0,0.0,0.0,0.0,0.0,0.0,0.0,0.0,0.0,0.0,0.0,0.0,0.0,0.0,0.0,0.0,0.0,0.0,0.0,0.0,0.0,0.0,0.0,0.0,0.0,0.0,0.0,0.0,0.0,0.0,0.0,0.0,0.0,0.0,0.0,0.0,0.0,0.0,0.0,0.0,0.0,0.0,0.0,0.0,0.0,0.0,0.0,0.0,0.0,0.0,0.0,0.0,0.0,0.0,0.0,0.0,0.0,0.0,0.0,0.0,0.0,0.0,0.0,0.0,0.0,0.0,0.0,0.0,0.0,0.0,0.0,0.0,0.0,0.0,0.0,0.0,0.0,0.0,0.0,0.0,0.0,0.0,0.0,0.0,0.0,0.0,0.0,0.0,0.0,0.0,0.0,0.0,0.0,0.0,0.0,0.0,0.0,0.0,0.0,0.0,0.0,0.0,0.0,0.0,0.0,0.0,0.0,0.0,0.0,0.0,0.0,0.0,0.0,0.0,0.0,0.0,0.0,0.0,0.0,0.0,0.0,0.0,0.0,0.0,0.0,0.0,0.0,0.0,0.0,0.0,0.0,0.0,0.0,0.0,0.0,0.0,0.0,0.0,0.0,0.0,0.0,0.0,0.0,0.0,0.0,0.0,0.0,0.0,0.0,0.0,0.0,0.0,0.0,0.0,0.0,0.0,0.0,0.0,0.0,0.0,0.0,0.0,0.0,0.0,0.0,0.0,0.0,0.0,0.0,0.0,0.0,0.0,0.0,0.0,0.0,0.0,0.0,0.0,0.0,0.0,0.0,0.0,0.0,0.0,0.0,0.0,0.0,0.0,0.0,0.0,0.0,0.0,0.0,0.0,0.0,0.0,0.0,0.0,0.0,0.0,0.0,0.0,0.0,0.0,0.0,0.0,0.0,0.0,0.0,0.0,0.0,0.0,0.0,0.0,0.0,0.0,0.0,0.0,0.0,0.0,0.0,0.0,0.0,0.0,0.0,0.0,0.0,0.0,0.0,0.0,0.0,0.0,0.0,0.0,0.0,0.0,0.0,0.0,0.0,0.0,0.0,0.0,0.0,0.0,0.0,0.0,0.0,0.0,0.0,0.0,0.0,0.0,0.0,0.0,0.0,0.0,0.0,0.0,0.0,0.0,0.0,0.0,0.0,0.0,0.0,0.0,0.0,0.0,0.0,0.0,0.0,0.0,0.0,0.0,0.0,0.0,0.0,0.0,0.0,0.0,0.0,0.0,0.0,0.0,0.0,0.0,0.0,0.0,0.0,0.0,0.0,0.0,0.0,0.0,0.0,0.0,0.0,0.0,0.0,0.0,0.0,0.0,0.0,0.0,0.0,0.0,0.0,0.0,0.0,0.0,0.0,0.0,0.0,0.0,0.0,0.0,0.0,0.0,0.0,0.0,0.0,0.0,0.0,0.0,0.0,0.0,0.0,0.0,0.0,0.0,0.0,0.0,0.0,0.0,0.0,0.0,0.0,0.0,0.0,0.0,0.0,0.0,0.0,0.0,0.0,0.0,0.0,0.0,0.0,0.0,0.0,0.0,0.0,0.0,0.0,0.0,0.0,0.0,0.0,0.0,0.0,0.0,0.0,0.0,0.0,0.0,0.0,0.0,0.0,0.0,0.0,0.0,0.0,0.0,0.0,0.0,0.0,0.0,0.0,0.0,0.0,0.0,0.0,0.0,0.0,0.0,0.0,0.0,0.0,0.0,0.0,0.0,0.0,0.0,0.0,0.0,0.0,0.0,0.0,0.0,0.0,0.0,0.0,0.0,0.0,0.0,0.0,0.0,0.0,0.0,0.0,0.0,0.0,0.0,0.0,0.0,0.0,0.0,0.0,0.0,0.0,0.0,0.0,0.0,0.0,0.0,0.0,0.0,0.0,0.0,0.0,0.0,0.0,0.0,0.0,0.0,0.0,0.0,0.0,0.0,0.0,0.0,0.0,0.0,0.0,0.0,0.0,0.0,0.0,0.0,0.0,0.0,0.0,0.0,0.0,0.0,0.0,0.0,0.0,0.0,0.0,0.0,0.0,0.0,0.0,0.0,0.0,0.0,0.0,0.0,0.0,0.0,0.0,0.0,0.0,0.0,0.0,0.0,0.0,0.0,0.0,0.0,0.0,0.0,0.0,0.0,0.0,0.0,0.0,0.0,0.0,0.0,0.0,0.0,0.0,0.0,0.0,0.0,0.0,0.0,0.0,0.0,0.0,0.0,0.0,0.0,0.0,0.0,0.0,0.0,0.0,0.0,0.0,0.0,0.0,0.0,0.0,0.0,0.0,0.0,0.0,0.0,0.0,0.0,0.0,0.0,0.0,0.0,0.0,0.0,0.0,0.0,0.0,0.0,0.0,0.0,0.0,0.0,0.0,0.0,0.0,0.0,0.0,0.0,0.0,0.0,0.0,0.0,0.0,0.0,0.0,0.0,0.0,0.0,0.0,0.0,0.0,0.0,0.0,0.0,0.0,0.0,0.0,0.0,0.0,0.0,0.0,0.0,0.0,0.0,0.0,0.0,0.0,0.0,0.0,0.0,0.0,0.0,0.0,0.0,0.0,0.0,0.0,0.0,0.0,0.0,0.0,0.0,0.0,0.0,0.0,0.0,0.0,0.0,0.0,0.0,0.0,0.0,0.0,0.0,0.0,0.0,0.0,0.0,0.0,0.0,0.0,0.0,0.0,0.0,0.0,0.0,0.0,0.0,0.0,0.0,0.0,0.0,0.0,0.0,0.0,0.0,0.0,0.0,0.0,0.0,0.0,0.0,0.0,0.0,0.0,0.0,0.0,0.0,0.0,0.0,0.0,0.0,0.0,0.0,0.0,0.0,0.0,0.0,0.0,0.0,0.0,0.0,0.0,0.0,0.0,0.0,0.0,0.0,0.0,0.0,0.0,0.0,0.0,0.0,0.0,0.0,0.0,0.0,0.0,0.0,0.0,0.0,0.0,0.0,0.0,0.0,0.0,0.0,0.0,0.0,0.0,0.0,0.0,0.0,0.0,0.0,0.0,0.0,0.0,0.0,0.0,0.0,0.0,0.0,0.0,0.0,0.0,0.0,0.0,0.0,0.0,0.0,0.0,0.0,0.0,0.0,0.0,0.0,0.0,0.0,0.0,0.0,0.0,0.0,0.0,0.0,0.0,0.0,0.0,0.0,0.0,0.0,0.0,0.0,0.0,0.0,0.0,0.0,0.0,0.0,0.0,0.0,0.0,0.0,0.0,0.0,0.0,0.0,0.0,0.0,0.0,0.0,0.0,0.0,0.0,0.0,0.0,0.0,0.0,0.0,0.0,0.0,0.0,0.0,0.0,0.0,0.0,0.0,0.0,0.0,0.0,0.0,0.0,0.0,0.0,0.0,0.0,0.0,0.0,0.0,0.0,0.0,0.0,0.0,0.0,0.0,0.0,0.0,0.0,0.0,0.0,0.0,0.0,0.0,0.0,0.0,0.0,0.0,0.0,0.0,0.0,0.0,0.0,0.0,0.0,0.0,0.0,0.0,0.0,0.0,0.0,0.0,0.0,0.0,0.0,0.0,0.0,0.0,0.0,0.0,0.0,0.0,0.0,0.0,0.0,0.0,0.0,0.0,0.0,0.0,0.0,0.0,0.0,0.0,0.0,0.0,0.0,0.0,0.0,0.0,0.0,0.0,0.0,0.0,0.0,0.0,0.0,0.0,0.0,0.0,0.0,0.0,0.0,0.0,0.0,0.0,0.0,0.0,0.0,0.0,0.0,0.0,0.0,0.0,0.0,0.0,0.0,0.0,0.0,0.0,0.0,0.0,0.0,0.0,0.0,0.0,0.0,0.0,0.0,0.0,0.0,0.0,0.0,0.0,0.0,0.0,0.0,0.0,0.0,0.0,0.0,0.0,0.0,0.0,0.0,0.0,0.0,0.0,0.0,0.0,0.0,0.0,0.0,0.0,0.0,0.0,0.0,0.0,0.0,0.0,0.0,0.0,0.0,0.0,0.0,0.0,0.0,0.0,0.0,0.0,0.0,0.0,0.0,0.0,0.0,0.0,0.0,0.0,0.0,0.0,0.0,0.0,0.0,0.0,0.0,0.0,0.0,0.0,0.0,0.0,0.0,0.0,0.0,0.0,0.0,0.0,0.0,0.0,0.0,0.0,0.0,0.0,0.0,0.0,0.0]}],[{"header":{"parameterUnit":"kt","parameterCategory":2,"dx":1,"dy":1,"la1":29.587661999999998,"la2":31.0,"lo1":-88.76705300000003,"lo2":-86.6583820000003,"nx":115,"ny":88,"refTime":"2022-10-05T06:00:00:Z","depth":0,"parameterNumber":2,"parameterNumberName":"V-component_of_WINDS"},"data":[-2.7385,-2.7385,-2.7385,-2.7385,-2.7385,-2.7385,-2.7385,-2.7385,-2.7385,-2.7385,-2.745,-2.7502,-2.771,-2.7762,-2.8229,-2.8385,-2.845,-2.871,-2.9009,-2.9242,-2.9242,-2.9333,-2.9489,-2.9749,-2.9762,-3.0021,-3.0398,-3.0697,-3.0606,-3.0671,-3.0736,-3.0697,-3.0723,-3.0538,-3.0157,-2.9947,-2.9687,-2.9515,-2.933,-2.9133,-2.9195,-2.9577,-3.0392,-3.0577,-3.0761,-3.0761,-3.0761,-3.0761,-3.0761,-3.0761,-3.0564,-3.0551,-3.0525,-3.0512,-3.0525,-3.0606,-3.0619,-3.0512,-3.05,-3.0461,-3.0422,-3.0435,-3.0396,-3.0541,-3.0541,-3.0554,-3.0554,-3.0554,-3.058,-3.0671,-3.0697,-3.0749,-3.0761,-3.0658,-3.0619,-3.058,-3.0554,-3.0489,-3.045,-3.0268,-3.0073,-2.9891,-2.9606,-2.9606,-2.9554,-2.9294,-2.9242,-2.9195,-2.8866,-2.9052,-2.9211,-2.871,-2.8199,-2.8628,-2.8983,-2.9052,-2.9117,-2.9182,-2.8957,-2.8671,-2.8632,-2.8931,-2.9292,-2.9256,-3.0162,-3.1729,-3.3624,-3.4882,-3.5402,-3.6026,-3.7288,-3.7876,-3.7827,-3.8107,-3.8072,-2.7385,-2.7385,-2.7385,-2.7385,-2.7385,-2.7385,-2.7385,-2.7385,-2.7398,-2.7398,-2.7567,-2.8437,-2.8827,-2.8879,-2.8983,-2.8983,-2.9073,-2.9307,-2.9528,-2.9723,-2.9814,-2.9969,-3.0203,-3.0424,-3.0424,-3.058,-3.0697,-3.0736,-3.0761,-3.0761,-3.0761,-3.0761,-3.0774,-3.059,-3.0577,-3.0392,-3.0208,-3.0035,-2.9665,-2.948,-2.9838,-3.0195,-3.0577,-3.0761,-3.0761,-3.0761,-3.0761,-3.0761,-3.0761,-3.0761,-3.0761,-3.0761,-3.0761,-3.0761,-3.0761,-3.0761,-3.0761,-3.0761,-3.0761,-3.0761,-3.0761,-3.0761,-3.0761,-3.0736,-3.0723,-3.0723,-3.0723,-3.0723,-3.0723,-3.0749,-3.0749,-3.0761,-3.0761,-3.0736,-3.0736,-3.0723,-3.0723,-3.071,-3.0697,-3.0684,-3.0619,-3.0619,-3.0528,-3.0541,-3.0333,-2.9956,-2.971,-2.9476,-2.9522,-2.9653,-3.0058,-2.9913,-2.932,-2.919,-2.9326,-2.9378,-2.9496,-2.9763,-3.0424,-2.9593,-2.9435,-3.0533,-3.1002,-3.0719,-3.1601,-3.3191,-3.4999,-3.6517,-3.784,-3.8539,-3.9051,-3.8981,-3.8981,-3.8749,-3.8624,-2.7385,-2.7385,-2.7385,-2.7385,-2.7385,-2.7385,-2.7385,-2.7437,-2.7723,-2.8022,-2.8424,-2.8814,-2.9261,-2.9086,-2.9437,-2.9554,-2.9606,-2.9853,-3.0099,-3.0294,-3.0437,-3.0567,-3.0632,-3.0684,-3.0761,-3.0761,-3.0761,-3.0761,-3.0761,-3.0761,-3.0761,-3.0761,-3.0761,-3.0761,-3.0761,-3.0577,-3.0392,-3.0392,-3.022,-3.0208,-3.0392,-3.0577,-3.0761,-3.0761,-3.0761,-3.0761,-3.0761,-3.0761,-3.0761,-3.0761,-3.0761,-3.0761,-3.0761,-3.0761,-3.0761,-3.0761,-3.0761,-3.0761,-3.0761,-3.0761,-3.0761,-3.0761,-3.0761,-3.0761,-3.0761,-3.0761,-3.0761,-3.0761,-3.0761,-3.0761,-3.0761,-3.0761,-3.0761,-3.0761,-3.0761,-3.0761,-3.0761,-3.0761,-3.0761,-3.0761,-3.0761,-3.0761,-3.0761,-3.0761,-3.0684,-3.0307,-3.0372,-3.0177,-3.0164,-3.0242,-3.108,-3.1193,-3.0539,-3.028,-3.0375,-3.0323,-3.0336,-3.1018,-3.1937,-3.2087,-3.2478,-3.2888,-3.324,-3.3956,-3.4674,-3.5552,-3.5954,-3.6884,-3.8252,-3.947,-3.9827,-4.005,-3.9765,-3.9497,-3.9711,-2.7385,-2.7385,-2.7385,-2.7385,-2.7385,-2.7385,-2.745,-2.7645,-2.8307,-2.8879,-2.9255,-2.9424,-2.9541,-2.9671,-2.9995,-3.0125,-3.019,-3.0398,-3.071,-3.071,-3.0697,-3.071,-3.0761,-3.0761,-3.0761,-3.0761,-3.0761,-3.0761,-3.0761,-3.0761,-3.0761,-3.0761,-3.0761,-3.0761,-3.0761,-3.0761,-3.0577,-3.0577,-3.0577,-3.0577,-3.0577,-3.0761,-3.0761,-3.0761,-3.0761,-3.0761,-3.0761,-3.0761,-3.0761,-3.0761,-3.0761,-3.0761,-3.0761,-3.0761,-3.0761,-3.0761,-3.0761,-3.0761,-3.0761,-3.0761,-3.0761,-3.0761,-3.0761,-3.0761,-3.0761,-3.0761,-3.0761,-3.0761,-3.0761,-3.0761,-3.0761,-3.0761,-3.0761,-3.0761,-3.0761,-3.0761,-3.0761,-3.0761,-3.0761,-3.0761,-3.0761,-3.0761,-3.0761,-3.0761,-3.0761,-3.0761,-3.0761,-3.0736,-3.0632,-3.0593,-3.1387,-3.1401,-3.1051,-3.1498,-3.1561,-3.161,-3.1475,-3.2114,-3.2824,-3.4352,-3.5891,-3.5724,-3.5526,-3.6649,-3.7513,-3.7827,-3.8184,-3.8529,-3.8876,-3.9574,-4.0145,-4.0826,-4.0763,-4.0603,-4.0888,-2.7385,-2.7385,-2.7385,-2.7385,-2.7385,-2.7424,-2.7723,-2.8255,-2.9255,-2.9814,-2.993,-3.0372,-3.0502,-3.0398,-3.0489,-3.058,-3.0632,-3.0671,-3.0761,-3.0761,-3.0761,-3.0761,-3.0761,-3.0761,-3.0761,-3.0761,-3.0761,-3.0761,-3.0761,-3.0761,-3.0761,-3.0761,-3.0761,-3.0761,-3.0761,-3.0761,-3.0761,-3.0761,-3.0761,-3.0761,-3.0761,-3.0761,-3.0761,-3.0761,-3.0761,-3.0761,-3.0761,-3.0761,-3.0761,-3.0761,-3.0761,-3.0761,-3.0761,-3.0761,-3.0761,-3.0761,-3.0761,-3.0761,-3.0761,-3.0761,-3.0761,-3.0761,-3.0761,-3.0761,-3.0761,-3.0761,-3.0761,-3.0761,-3.0761,-3.0761,-3.0761,-3.0761,-3.0761,-3.0761,-3.0761,-3.0761,-3.0761,-3.0761,-3.0761,-3.0761,-3.0761,-3.0761,-3.0761,-3.0761,-3.0761,-3.0761,-3.0761,-3.0761,-3.0723,-3.0723,-3.1051,-3.1235,-3.1775,-3.2804,-3.2538,-3.2049,-3.2232,-3.2949,-3.3621,-3.5098,-3.7591,-3.8156,-3.8027,-3.8815,-3.9578,-3.9945,-4.0069,-4.0539,-4.0902,-4.0881,-4.1053,-4.1678,-4.1939,-4.1832,-4.1886,-2.7385,-2.7385,-2.7385,-2.7385,-2.7437,-2.7749,-2.8437,-2.9229,-2.971,-3.0151,-3.0437,-3.0671,-3.0761,-3.0761,-3.0761,-3.0761,-3.0761,-3.0761,-3.0761,-3.0761,-3.0761,-3.0761,-3.0761,-3.0761,-3.0761,-3.0761,-3.0761,-3.0761,-3.0761,-3.0761,-3.0761,-3.0761,-3.0761,-3.0761,-3.0761,-3.0761,-3.0761,-3.0761,-3.0761,-3.0761,-3.0761,-3.0761,-3.0761,-3.0761,-3.0761,-3.0761,-3.0761,-3.0761,-3.0761,-3.0761,-3.0761,-3.0761,-3.0761,-3.0761,-3.0761,-3.0761,-3.0761,-3.0761,-3.0761,-3.0761,-3.0761,-3.0761,-3.0761,-3.0761,-3.0761,-3.0761,-3.0761,-3.0761,-3.0761,-3.0761,-3.0761,-3.0761,-3.0761,-3.0761,-3.0761,-3.0761,-3.0761,-3.0761,-3.0761,-3.0761,-3.0761,-3.0761,-3.0761,-3.0761,-3.0761,-3.0761,-3.0761,-3.0749,-3.0736,-3.1288,-3.1838,-3.1838,-3.2947,-3.3595,-3.2763,-3.2049,-3.33,-3.4556,-3.5098,-3.6699,-3.9201,-4.0114,-4.0131,-4.0692,-4.1443,-4.1373,-4.1251,-4.2051,-4.2242,-4.198,-4.1874,-4.21,-4.2135,-4.2242,-4.2242,-2.7385,-2.7398,-2.7567,-2.7632,-2.7736,-2.8411,-2.9255,-3.0099,-3.0177,-3.0359,-3.0761,-3.0761,-3.0761,-3.0761,-3.0761,-3.0761,-3.0761,-3.0761,-3.0761,-3.0761,-3.0761,-3.0761,-3.0761,-3.0761,-3.0761,-3.0761,-3.0761,-3.0761,-3.0761,-3.0761,-3.0761,-3.0761,-3.0761,-3.0761,-3.0761,-3.0761,-3.0761,-3.0761,-3.0761,-3.0761,-3.0761,-3.0761,-3.0761,-3.0761,-3.0761,-3.0761,-3.0761,-3.0761,-3.0761,-3.0761,-3.0761,-3.0761,-3.0761,-3.0761,-3.0761,-3.0761,-3.0761,-3.0761,-3.0761,-3.0761,-3.0761,-3.0761,-3.0761,-3.0761,-3.0761,-3.0761,-3.0761,-3.0761,-3.0761,-3.0761,-3.0761,-3.0761,-3.0761,-3.0761,-3.0761,-3.0761,-3.0761,-3.0761,-3.0761,-3.0761,-3.0761,-3.0761,-3.0761,-3.0761,-3.0761,-3.0761,-3.0749,-3.071,-3.1051,-3.2529,-3.3076,-3.2894,-3.3342,-3.3202,-3.2601,-3.3132,-3.4737,-3.6326,-3.7041,-3.8301,-4.0273,-4.153,-4.1895,-4.2087,-4.1931,-4.1913,-4.2242,-4.2242,-4.2242,-4.2242,-4.2242,-4.2242,-4.2242,-4.2242,-4.2242,-2.7385,-2.7463,-2.797,-2.8203,-2.8385,-2.9372,-3.0138,-3.0697,-3.071,-3.0723,-3.0761,-3.0761,-3.0761,-3.0761,-3.0761,-3.0761,-3.0761,-3.0761,-3.0761,-3.0761,-3.0761,-3.0761,-3.0761,-3.0761,-3.0761,-3.0761,-3.0761,-3.0761,-3.0761,-3.0761,-3.0761,-3.0761,-3.0761,-3.0761,-3.0761,-3.0761,-3.0761,-3.0761,-3.0761,-3.0761,-3.0761,-3.0761,-3.0761,-3.0761,-3.0761,-3.0761,-3.0761,-3.0761,-3.0761,-3.0761,-3.0761,-3.0761,-3.0761,-3.0761,-3.0761,-3.0761,-3.0761,-3.0761,-3.0761,-3.0761,-3.0761,-3.0761,-3.0761,-3.0761,-3.0761,-3.0761,-3.0761,-3.0761,-3.0761,-3.0761,-3.0761,-3.0761,-3.0761,-3.0761,-3.0761,-3.0761,-3.0761,-3.0761,-3.0761,-3.0761,-3.0761,-3.0761,-3.0761,-3.0761,-3.0749,-3.0736,-3.071,-3.1077,-3.2708,-3.3989,-3.2725,-3.2543,-3.2992,-3.2948,-3.3919,-3.5054,-3.652,-3.7753,-3.8655,-3.9185,-4.0798,-4.2069,-4.2242,-4.2242,-4.2242,-4.2242,-4.2242,-4.2242,-4.2242,-4.2242,-4.2242,-4.2242,-4.2242,-4.2242,-4.2242,-2.7944,-2.7996,-2.8554,-2.8788,-2.897,-2.9995,-3.058,-3.0736,-3.0761,-3.0761,-3.0761,-3.0761,-3.0761,-3.0761,-3.0761,-3.0761,-3.0761,-3.0761,-3.0761,-3.0761,-3.0761,-3.0761,-3.0761,-3.0761,-3.0761,-3.0761,-3.0761,-3.0761,-3.0761,-3.0761,-3.0761,-3.0761,-3.0761,-3.0761,-3.0761,-3.0761,-3.0761,-3.0761,-3.0761,-3.0761,-3.0761,-3.0761,-3.0761,-3.0761,-3.0761,-3.0761,-3.0761,-3.0761,-3.0761,-3.0761,-3.0761,-3.0761,-3.0761,-3.0761,-3.0761,-3.0761,-3.0761,-3.0761,-3.0761,-3.0761,-3.0761,-3.0761,-3.0761,-3.0761,-3.0761,-3.0761,-3.0761,-3.0761,-3.0761,-3.0761,-3.0761,-3.0761,-3.0761,-3.0761,-3.0761,-3.0761,-3.0761,-3.0761,-3.0761,-3.0761,-3.0761,-3.0761,-3.0761,-3.0749,-3.0723,-3.0684,-3.0854,-3.2777,-3.4487,-3.2961,-3.1485,-3.2259,-3.2949,-3.376,-3.4873,-3.6372,-3.7769,-3.9185,-3.9729,-3.9905,-4.1338,-4.2242,-4.2242,-4.2242,-4.2242,-4.2242,-4.2242,-4.2242,-4.2242,-4.2242,-4.2242,-4.2242,-4.2242,-4.2242,-4.2242,-2.8333,-2.8567,-2.9125,-2.9476,-2.9749,-3.0476,-3.0761,-3.0761,-3.0761,-3.0761,-3.0761,-3.0761,-3.0761,-3.0761,-3.0761,-3.0761,-3.0761,-3.0761,-3.0761,-3.0761,-3.0761,-3.0761,-3.0761,-3.0761,-3.0761,-3.0761,-3.0761,-3.0761,-3.0761,-3.0761,-3.0761,-3.0761,-3.0761,-3.0761,-3.0761,-3.0761,-3.0761,-3.0761,-3.0761,-3.0761,-3.0761,-3.0761,-3.0761,-3.0761,-3.0761,-3.0761,-3.0761,-3.0761,-3.0761,-3.0761,-3.0761,-3.0761,-3.0761,-3.0761,-3.0761,-3.0761,-3.0761,-3.0761,-3.0761,-3.0761,-3.0761,-3.0761,-3.0761,-3.0761,-3.0761,-3.0761,-3.0761,-3.0761,-3.0761,-3.0761,-3.0761,-3.0761,-3.0761,-3.0761,-3.0761,-3.0761,-3.0761,-3.0761,-3.0761,-3.0761,-3.0761,-3.0761,-3.0761,-3.0761,-3.0658,-3.0789,-3.1771,-3.368,-3.3455,-3.1615,-3.1405,-3.2584,-3.3749,-3.4658,-3.5744,-3.7266,-3.8832,-3.9729,-4.008,-4.0623,-4.1164,-4.2069,-4.2242,-4.2242,-4.2242,-4.2242,-4.2242,-4.2242,-4.2242,-4.2242,-4.2242,-4.2242,-4.2242,-4.2242,-4.2242,-2.8619,-2.9151,-2.971,-3.0242,-3.0645,-3.0761,-3.0761,-3.0761,-3.0761,-3.0761,-3.0761,-3.0761,-3.0761,-3.0761,-3.0761,-3.0761,-3.0761,-3.0761,-3.0761,-3.0761,-3.0761,-3.0761,-3.0761,-3.0761,-3.0761,-3.0761,-3.0761,-3.0761,-3.0761,-3.0761,-3.0761,-3.0761,-3.0761,-3.0761,-3.0761,-3.0761,-3.0761,-3.0761,-3.0761,-3.0761,-3.0761,-3.0761,-3.0761,-3.0761,-3.0761,-3.0761,-3.0761,-3.0761,-3.0761,-3.0761,-3.0761,-3.0761,-3.0761,-3.0761,-3.0761,-3.0761,-3.0761,-3.0761,-3.0761,-3.0761,-3.0761,-3.0761,-3.0761,-3.0761,-3.0761,-3.0761,-3.0761,-3.0761,-3.0761,-3.0761,-3.0761,-3.0761,-3.0761,-3.0761,-3.0761,-3.0761,-3.0761,-3.0761,-3.0761,-3.0761,-3.0761,-3.0761,-3.0761,-3.092,-3.0802,-3.169,-3.2866,-3.2601,-3.1724,-3.1307,-3.2476,-3.3645,-3.4829,-3.5773,-3.7088,-3.8462,-3.9361,-3.9922,-4.064,-4.1356,-4.1895,-4.2242,-4.2242,-4.2242,-4.2242,-4.2242,-4.2242,-4.2242,-4.2242,-4.2242,-4.2242,-4.2242,-4.2242,-4.2242,-4.2242,-2.9515,-2.9749,-3.0281,-3.0619,-3.0749,-3.0761,-3.0761,-3.0761,-3.0761,-3.0761,-3.0761,-3.0761,-3.0761,-3.0761,-3.0761,-3.0761,-3.0761,-3.0761,-3.0761,-3.0761,-3.0761,-3.0761,-3.0761,-3.0761,-3.0761,-3.0761,-3.0761,-3.0761,-3.0761,-3.0761,-3.0761,-3.0761,-3.0761,-3.0761,-3.0761,-3.0761,-3.0761,-3.0761,-3.0761,-3.0761,-3.0761,-3.0761,-3.0761,-3.0761,-3.0761,-3.0761,-3.0761,-3.0761,-3.0761,-3.0761,-3.0761,-3.0761,-3.0761,-3.0761,-3.0761,-3.0761,-3.0761,-3.0761,-3.0761,-3.0761,-3.0761,-3.0761,-3.0761,-3.0761,-3.0761,-3.0761,-3.0761,-3.0761,-3.0761,-3.0761,-3.0761,-3.0761,-3.0761,-3.0761,-3.0761,-3.0761,-3.0761,-3.0761,-3.0761,-3.113,-3.0946,-3.0946,-3.113,-3.1655,-3.2305,-3.3579,-3.4375,-3.3926,-3.2602,-3.2712,-3.3862,-3.4861,-3.5637,-3.6931,-3.8252,-3.9168,-4.008,-4.064,-4.099,-4.1895,-4.2242,-4.2242,-4.2242,-4.2242,-4.2242,-4.2242,-4.2242,-4.2242,-4.2242,-4.2242,-4.2242,-4.2242,-4.2242,-4.2242,-4.2242,-3.0047,-3.0268,-3.0619,-3.0761,-3.0761,-3.0761,-3.0761,-3.0761,-3.0761,-3.0761,-3.0761,-3.0761,-3.0761,-3.0761,-3.0761,-3.0761,-3.0761,-3.0761,-3.0761,-3.0761,-3.0761,-3.0761,-3.0761,-3.0761,-3.0761,-3.0761,-3.0761,-3.0761,-3.0761,-3.0761,-3.0761,-3.0761,-3.0761,-3.0761,-3.0761,-3.0761,-3.0761,-3.0761,-3.0761,-3.0761,-3.0761,-3.0761,-3.0761,-3.0761,-3.0761,-3.0761,-3.0761,-3.0761,-3.0761,-3.0761,-3.0761,-3.0761,-3.0761,-3.0761,-3.0761,-3.0761,-3.0761,-3.0761,-3.0761,-3.0761,-3.0761,-3.0761,-3.0761,-3.0761,-3.0761,-3.0761,-3.0761,-3.0761,-3.0761,-3.0761,-3.0761,-3.0761,-3.0761,-3.0761,-3.0761,-3.0761,-3.0761,-3.0761,-3.0946,-3.2049,-3.2049,-3.1682,-3.2035,-3.257,-3.4013,-3.5278,-3.5684,-3.5654,-3.4517,-3.422,-3.5264,-3.6295,-3.6055,-3.6978,-3.7397,-3.9008,-4.0815,-4.1164,-4.1512,-4.1878,-4.2242,-4.2242,-4.2242,-4.2242,-4.2242,-4.2242,-4.2242,-4.2242,-4.2242,-4.2242,-4.2242,-4.2242,-4.2242,-4.2242,-4.2242,-3.0294,-3.0761,-3.0761,-3.0761,-3.0761,-3.0761,-3.0761,-3.0761,-3.0761,-3.0761,-3.0761,-3.0761,-3.0761,-3.0761,-3.0761,-3.0761,-3.0761,-3.0761,-3.0761,-3.0761,-3.0761,-3.0761,-3.0761,-3.0761,-3.0761,-3.0761,-3.0761,-3.0761,-3.0761,-3.0761,-3.0761,-3.0761,-3.0761,-3.0761,-3.0761,-3.0761,-3.0761,-3.0761,-3.0761,-3.0761,-3.0761,-3.0761,-3.0761,-3.0761,-3.0761,-3.0761,-3.0761,-3.0761,-3.0761,-3.0761,-3.0761,-3.0761,-3.0761,-3.0761,-3.0761,-3.0761,-3.0761,-3.0761,-3.0761,-3.0761,-3.0761,-3.0761,-3.0761,-3.0761,-3.0761,-3.0761,-3.0761,-3.0761,-3.0761,-3.0761,-3.0761,-3.0761,-3.0761,-3.0761,-3.0761,-3.0761,-3.0761,-3.0761,-3.1498,-3.2949,-3.3132,-3.2767,-3.2935,-3.4194,-3.5623,-3.5638,-3.5864,-3.6028,-3.5264,-3.5234,-3.6295,-3.7329,-3.7072,-3.7009,-3.7429,-3.8494,-4.0815,-4.153,-4.1878,-4.2069,-4.2242,-4.2242,-4.2242,-4.2242,-4.2242,-4.2242,-4.2242,-4.2242,-4.2242,-4.2242,-4.2242,-4.2242,-4.2242,-4.2242,-4.2242,-3.0632,-3.0761,-3.0761,-3.0761,-3.0761,-3.0761,-3.0761,-3.0761,-3.0761,-3.0761,-3.0761,-3.0761,-3.0761,-3.0761,-3.0761,-3.0761,-3.0761,-3.0761,-3.0761,-3.0761,-3.0761,-3.0761,-3.0761,-3.0761,-3.0761,-3.0761,-3.0761,-3.0761,-3.0761,-3.0761,-3.0761,-3.0761,-3.0761,-3.0761,-3.0761,-3.0761,-3.0761,-3.0761,-3.0761,-3.0761,-3.0761,-3.0761,-3.0761,-3.0761,-3.0761,-3.0761,-3.0761,-3.0761,-3.0761,-3.0761,-3.0761,-3.0761,-3.0761,-3.0761,-3.0761,-3.0761,-3.0761,-3.0761,-3.0761,-3.0761,-3.0761,-3.0761,-3.0761,-3.0761,-3.0761,-3.0761,-3.0761,-3.0761,-3.0761,-3.0761,-3.0761,-3.0761,-3.0761,-3.0761,-3.0761,-3.0761,-3.0761,-3.0761,-3.1314,-3.2401,-3.2767,-3.2935,-3.3846,-3.5444,-3.5998,-3.5818,-3.5998,-3.6162,-3.6101,-3.6055,-3.7508,-3.9388,-3.9239,-3.9234,-3.9411,-3.9905,-4.099,-4.1895,-4.2069,-4.2242,-4.2242,-4.2242,-4.2242,-4.2242,-4.2242,-4.2242,-4.2242,-4.2242,-4.2242,-4.2242,-4.2242,-4.2242,-4.2242,-4.2242,-4.2242,-3.0761,-3.0761,-3.0761,-3.0761,-3.0761,-3.0761,-3.0761,-3.0761,-3.0761,-3.0761,-3.0761,-3.0761,-3.0761,-3.0761,-3.0761,-3.0761,-3.0761,-3.0761,-3.0761,-3.0761,-3.0761,-3.0761,-3.0761,-3.0761,-3.0761,-3.0761,-3.0761,-3.0761,-3.0761,-3.0761,-3.0761,-3.0761,-3.0761,-3.0761,-3.0761,-3.0761,-3.0761,-3.0761,-3.0761,-3.0761,-3.0761,-3.0761,-3.0761,-3.0761,-3.0761,-3.0761,-3.0761,-3.0761,-3.0761,-3.0761,-3.0761,-3.0761,-3.0761,-3.0761,-3.0761,-3.0761,-3.0761,-3.0761,-3.0761,-3.0761,-3.0761,-3.0761,-3.0761,-3.0761,-3.0761,-3.0761,-3.0761,-3.0761,-3.0761,-3.0761,-3.0761,-3.0761,-3.0761,-3.0761,-3.0761,-3.0761,-3.0761,-3.0761,-3.113,-3.1682,-3.2218,-3.2767,-3.3496,-3.4737,-3.5278,-3.6147,-3.7172,-3.7543,-3.7721,-3.6915,-3.7978,-4.031,-4.0562,-4.0533,-4.064,-4.0798,-4.153,-4.2069,-4.2087,-4.1721,-4.1895,-4.2242,-4.2242,-4.2242,-4.2242,-4.2242,-4.2242,-4.2242,-4.2242,-4.2242,-4.2242,-4.2242,-4.2242,-4.2242,-4.2242,-3.0761,-3.0761,-3.0761,-3.0761,-3.0761,-3.0761,-3.0761,-3.0761,-3.0761,-3.0761,-3.0761,-3.0761,-3.0761,-3.0761,-3.0761,-3.0761,-3.0761,-3.0761,-3.0761,-3.0761,-3.0761,-3.0761,-3.0761,-3.0761,-3.0761,-3.0761,-3.0761,-3.0761,-3.0761,-3.0761,-3.0761,-3.0761,-3.0761,-3.0761,-3.0761,-3.0761,-3.0761,-3.0761,-3.0761,-3.0761,-3.0761,-3.0761,-3.0761,-3.0761,-3.0761,-3.0761,-3.0761,-3.0761,-3.0761,-3.0761,-3.0761,-3.0761,-3.0761,-3.0761,-3.0761,-3.0761,-3.0761,-3.0761,-3.0761,-3.0761,-3.0761,-3.0761,-3.0761,-3.0761,-3.0761,-3.0761,-3.0761,-3.0761,-3.0761,-3.08,-3.0943,-3.0839,-3.0839,-3.0878,-3.0878,-3.0761,-3.0894,-3.1025,-3.2021,-3.2598,-3.3057,-3.337,-3.3525,-3.4157,-3.4932,-3.6816,-3.8541,-3.9118,-3.9261,-3.7049,-3.7065,-3.9301,-4.025,-4.0307,-4.0414,-4.0798,-4.1356,-4.2087,-4.1721,-4.1007,-4.153,-4.2242,-4.2242,-4.2242,-4.2242,-4.2242,-4.2242,-4.2242,-4.2242,-4.2242,-4.2242,-4.2242,-4.2242,-4.2242,-4.2242,-3.0761,-3.0761,-3.0761,-3.0761,-3.0761,-3.0761,-3.0761,-3.0761,-3.0761,-3.0761,-3.0761,-3.0761,-3.0761,-3.0761,-3.0761,-3.0761,-3.0761,-3.0761,-3.0761,-3.0761,-3.0761,-3.0761,-3.0761,-3.0761,-3.0761,-3.0761,-3.0761,-3.0761,-3.0761,-3.0761,-3.0761,-3.0761,-3.0761,-3.0761,-3.0761,-3.0761,-3.0761,-3.0761,-3.0761,-3.0761,-3.0761,-3.0761,-3.0761,-3.0761,-3.0761,-3.0761,-3.0761,-3.0761,-3.0761,-3.0761,-3.0761,-3.0761,-3.0761,-3.0761,-3.0761,-3.0761,-3.0761,-3.0761,-3.0761,-3.0761,-3.0761,-3.0761,-3.0761,-3.0761,-3.0761,-3.0761,-3.0774,-3.0761,-3.0826,-3.1008,-3.1346,-3.1086,-3.1298,-3.1642,-3.1298,-3.0761,-3.113,-3.1748,-3.2804,-3.351,-3.4062,-3.4361,-3.4403,-3.4859,-3.5484,-3.7354,-3.8869,-3.9599,-3.822,-3.6488,-3.7625,-3.9427,-4.0006,-4.0239,-4.078,-4.1164,-4.099,-4.1721,-4.1356,-4.099,-4.153,-4.2069,-4.2242,-4.2242,-4.2242,-4.2242,-4.2242,-4.2242,-4.2242,-4.2242,-4.2242,-4.2242,-4.2242,-4.2242,-4.2242,-3.0761,-3.0761,-3.0761,-3.0761,-3.0761,-3.0761,-3.0761,-3.0761,-3.0761,-3.0761,-3.0761,-3.0761,-3.0761,-3.0761,-3.0761,-3.0761,-3.0761,-3.0761,-3.0761,-3.0761,-3.0761,-3.0761,-3.0761,-3.0761,-3.0761,-3.0761,-3.0761,-3.0761,-3.0761,-3.0761,-3.0761,-3.0761,-3.0761,-3.0761,-3.0761,-3.0761,-3.0761,-3.0761,-3.0761,-3.0761,-3.0761,-3.0761,-3.0761,-3.0761,-3.0761,-3.0761,-3.0761,-3.0761,-3.0774,-3.0787,-3.0774,-3.0761,-3.0943,-3.1177,-3.169,-3.1669,-3.1616,-3.1325,-3.0839,-3.0761,-3.0761,-3.0761,-3.0761,-3.0761,-3.0761,-3.0813,-3.0904,-3.1151,-3.1346,-3.1722,-3.1995,-3.2438,-3.2398,-3.2339,-3.1393,-3.0745,-3.1034,-3.2067,-3.3318,-3.4383,-3.4727,-3.5001,-3.5175,-3.5681,-3.6283,-3.7491,-3.8845,-3.8312,-3.6925,-3.7753,-3.9604,-4.0426,-4.0013,-4.0537,-4.1512,-4.099,-4.0448,-4.1338,-4.1338,-4.1164,-4.153,-4.2069,-4.2242,-4.2242,-4.2242,-4.2242,-4.2242,-4.2242,-4.2242,-4.2242,-4.2242,-4.2242,-4.2242,-4.2242,-4.2242,-3.0761,-3.0761,-3.0761,-3.0761,-3.0761,-3.0761,-3.0761,-3.0761,-3.0761,-3.0761,-3.0761,-3.0761,-3.0761,-3.0761,-3.0761,-3.0761,-3.0761,-3.0761,-3.0761,-3.0761,-3.0761,-3.0761,-3.0761,-3.0761,-3.0761,-3.0761,-3.0761,-3.0761,-3.0761,-3.0761,-3.0761,-3.0761,-3.0761,-3.0761,-3.0761,-3.0761,-3.0761,-3.0761,-3.0761,-3.0761,-3.0761,-3.0761,-3.0761,-3.0774,-3.0943,-3.0969,-3.0956,-3.1021,-3.106,-3.1047,-3.106,-3.1086,-3.1294,-3.1826,-3.2339,-3.2482,-3.2269,-3.1537,-3.0852,-3.0761,-3.0761,-3.0761,-3.0761,-3.0761,-3.0917,-3.0969,-3.1268,-3.167,-3.2138,-3.2463,-3.2579,-3.3279,-3.3567,-3.2788,-3.2022,-3.1455,-3.232,-3.2917,-3.3532,-3.4676,-3.5133,-3.5491,-3.5747,-3.6133,-3.6927,-3.7864,-3.7509,-3.5766,-3.5592,-3.7565,-3.9127,-3.9218,-3.9561,-4.0938,-4.1931,-4.0692,-4.0273,-4.1164,-4.153,-4.1356,-4.1704,-4.2069,-4.2242,-4.2242,-4.2242,-4.2087,-4.2087,-4.2242,-4.2242,-4.2242,-4.2242,-4.2242,-4.2242,-4.2242,-4.2242,-3.0761,-3.0761,-3.0761,-3.0761,-3.0761,-3.0761,-3.0761,-3.0761,-3.0761,-3.0761,-3.0761,-3.0761,-3.0761,-3.0761,-3.0761,-3.0761,-3.0761,-3.0761,-3.0761,-3.0761,-3.0761,-3.0761,-3.0761,-3.0761,-3.0761,-3.0761,-3.0761,-3.0761,-3.0761,-3.0761,-3.0761,-3.0761,-3.0761,-3.0761,-3.0761,-3.0761,-3.0761,-3.0761,-3.0774,-3.0787,-3.0826,-3.0826,-3.0865,-3.0995,-3.1255,-3.1489,-3.158,-3.1852,-3.2138,-3.2216,-3.2203,-3.2203,-3.2138,-3.206,-3.2319,-3.3836,-3.1935,-3.1207,-3.0826,-3.0761,-3.0761,-3.0761,-3.0787,-3.0995,-3.1346,-3.1502,-3.1787,-3.2177,-3.2488,-3.2722,-3.3323,-3.3825,-3.3968,-3.368,-3.2761,-3.3943,-3.5745,-3.5048,-3.4126,-3.4556,-3.5405,-3.5776,-3.6014,-3.6651,-3.7411,-3.759,-3.5104,-3.3625,-3.4688,-3.5968,-3.5638,-3.5533,-3.8494,-4.0409,-4.1022,-4.0301,-4.0657,-4.1356,-4.1704,-4.1704,-4.2051,-4.153,-4.0815,-4.1356,-4.1512,-4.1913,-4.1931,-4.1512,-4.1495,-4.2069,-4.2242,-4.2242,-4.2242,-4.2242,-4.2242,-3.0761,-3.0761,-3.0761,-3.0761,-3.0761,-3.0761,-3.0761,-3.0761,-3.0761,-3.0761,-3.0761,-3.0761,-3.0761,-3.0761,-3.0761,-3.0761,-3.0761,-3.0761,-3.0761,-3.0761,-3.0761,-3.0761,-3.0761,-3.0761,-3.0761,-3.0761,-3.0761,-3.0761,-3.0761,-3.0761,-3.0761,-3.0761,-3.0761,-3.0761,-3.0761,-3.0761,-3.0761,-3.0787,-3.0774,-3.0956,-3.119,-3.1242,-3.1307,-3.1481,-3.17,-3.2073,-3.2086,-3.2359,-3.2463,-3.2618,-3.3034,-3.3384,-3.3294,-3.2865,-3.2838,-3.2947,-3.1541,-3.0739,-3.0813,-3.0761,-3.0761,-3.0761,-3.1073,-3.1346,-3.1567,-3.193,-3.232,-3.2774,-3.2982,-3.3151,-3.3898,-3.4143,-3.4182,-3.4139,-3.3754,-3.4037,-3.537,-3.5107,-3.419,-3.452,-3.5511,-3.579,-3.6136,-3.6622,-3.7084,-3.6053,-3.3514,-3.3233,-3.4489,-3.3631,-3.3071,-3.4099,-3.726,-3.9483,-3.9888,-4.0158,-4.0148,-4.0465,-4.064,-4.0815,-4.153,-4.0815,-3.9537,-3.859,-3.7818,-3.9135,-4.092,-4.0397,-4.0171,-4.0955,-4.1721,-4.2069,-4.2069,-4.1878,-4.1704,-3.0761,-3.0761,-3.0761,-3.0761,-3.0761,-3.0761,-3.0761,-3.0761,-3.0761,-3.0761,-3.0761,-3.0761,-3.0761,-3.0761,-3.0761,-3.0761,-3.0761,-3.0761,-3.0761,-3.0761,-3.0761,-3.0761,-3.0761,-3.0761,-3.0761,-3.0761,-3.0761,-3.0761,-3.0761,-3.0761,-3.0761,-3.0761,-3.0761,-3.0761,-3.0761,-3.0774,-3.08,-3.0917,-3.0813,-3.1125,-3.1834,-3.1899,-3.1813,-3.21,-3.2398,-3.2501,-3.2618,-3.2774,-3.2839,-3.3008,-3.3501,-3.3774,-3.3657,-3.3177,-3.2592,-3.2112,-3.1239,-3.0777,-3.068,-3.0774,-3.08,-3.0995,-3.1359,-3.1735,-3.193,-3.245,-3.2904,-3.3371,-3.3527,-3.3683,-3.4047,-3.4164,-3.4329,-3.4303,-3.4086,-3.4303,-3.4368,-3.4177,-3.419,-3.4586,-3.5552,-3.5972,-3.456,-3.5849,-3.5497,-3.4235,-3.3519,-3.343,-3.2644,-3.1774,-3.1761,-3.2134,-3.5257,-3.7729,-3.7893,-3.7928,-3.8172,-3.8494,-3.8655,-3.9008,-4.0448,-4.0448,-3.8459,-3.679,-3.5397,-3.6967,-3.9461,-3.9128,-3.9361,-4.0256,-4.099,-4.0815,-4.0815,-4.1164,-4.1338,-3.0761,-3.0761,-3.0761,-3.0761,-3.0761,-3.0761,-3.0761,-3.0761,-3.0761,-3.0761,-3.0761,-3.0761,-3.0761,-3.0761,-3.0761,-3.0761,-3.0761,-3.0761,-3.0761,-3.0761,-3.0761,-3.0761,-3.0761,-3.0761,-3.0761,-3.0761,-3.0761,-3.0761,-3.0761,-3.0761,-3.0761,-3.0761,-3.0761,-3.0761,-3.0761,-3.0761,-3.1047,-3.1242,-3.1021,-3.156,-3.2457,-3.2239,-3.2357,-3.2814,-3.2892,-3.2865,-3.3255,-3.3631,-3.3839,-3.3956,-3.3605,-3.3449,-3.3294,-3.2385,-3.1648,-3.1049,-3.0867,-3.0706,-3.0774,-3.0813,-3.0995,-3.1424,-3.158,-3.2021,-3.2813,-3.3138,-3.3449,-3.3943,-3.4073,-3.4073,-3.419,-3.419,-3.419,-3.419,-3.419,-3.419,-3.419,-3.419,-3.419,-3.4381,-3.4381,-3.4586,-3.4177,-3.4368,-3.4547,-3.5066,-3.4851,-3.4889,-3.4308,-3.4704,-3.4741,-3.3075,-3.3566,-3.6015,-3.5864,-3.5909,-3.6387,-3.6878,-3.7056,-3.8124,-3.9553,-3.822,-3.6743,-3.578,-3.4322,-3.5055,-3.7305,-3.8508,-3.872,-3.9301,-3.9218,-3.9201,-3.9201,-3.9553,-4.0273,-3.0761,-3.0761,-3.0761,-3.0761,-3.0761,-3.0761,-3.0761,-3.0761,-3.0761,-3.0761,-3.0761,-3.0761,-3.0761,-3.0761,-3.0761,-3.0761,-3.0761,-3.0761,-3.0761,-3.0761,-3.0761,-3.0761,-3.0761,-3.0761,-3.0761,-3.0761,-3.0761,-3.0761,-3.0761,-3.0761,-3.0761,-3.0761,-3.0761,-3.0761,-3.0761,-3.0774,-3.0904,-3.1099,-3.1294,-3.1644,-3.2657,-3.2748,-3.3075,-3.3545,-3.3676,-3.354,-3.3774,-3.4034,-3.3839,-3.3281,-3.2982,-3.2839,-3.2761,-3.2047,-3.1429,-3.0745,-3.0675,-3.0761,-3.08,-3.0687,-3.0957,-3.1644,-3.2333,-3.2826,-3.3255,-3.367,-3.3865,-3.4138,-3.4177,-3.419,-3.419,-3.419,-3.419,-3.419,-3.419,-3.419,-3.419,-3.419,-3.4777,-3.5986,-3.6986,-3.7578,-3.6176,-3.7376,-3.7174,-3.6378,-3.581,-3.6275,-3.6693,-3.9391,-3.9849,-3.5143,-3.3817,-3.4317,-3.4315,-3.4491,-3.5113,-3.5459,-3.5983,-3.7413,-3.7056,-3.4527,-3.4483,-3.5083,-3.3383,-3.2992,-3.4979,-3.6474,-3.7135,-3.7686,-3.7266,-3.7235,-3.7413,-3.7769,-3.8655,-3.0761,-3.0761,-3.0761,-3.0761,-3.0761,-3.0761,-3.0761,-3.0761,-3.0761,-3.0761,-3.0761,-3.0761,-3.0761,-3.0761,-3.0761,-3.0761,-3.0761,-3.0761,-3.0761,-3.0761,-3.0761,-3.0761,-3.0761,-3.0761,-3.0761,-3.0761,-3.0761,-3.0761,-3.0761,-3.0761,-3.0761,-3.0761,-3.0761,-3.0761,-3.0761,-3.0761,-3.0826,-3.1034,-3.132,-3.1709,-3.2372,-3.2722,-3.3177,-3.3683,-3.3813,-3.3826,-3.3722,-3.3878,-3.3462,-3.2566,-3.2359,-3.2255,-3.2203,-3.1696,-3.1132,-3.0867,-3.0771,-3.0761,-3.068,-3.0867,-3.1252,-3.1904,-3.2709,-3.3584,-3.354,-3.3943,-3.4138,-3.419,-3.419,-3.419,-3.419,-3.419,-3.419,-3.419,-3.419,-3.419,-3.419,-3.4177,-3.4764,-3.6176,-3.7592,-3.7376,-3.6784,-3.7188,-3.7578,-3.6595,-3.6392,-3.6887,-3.7006,-3.8584,-3.8135,-3.4538,-3.2968,-3.2844,-3.3113,-3.3469,-3.386,-3.439,-3.5638,-3.7056,-3.4556,-3.3286,-3.4491,-3.4353,-3.2237,-3.3034,-3.4346,-3.4361,-3.5623,-3.673,-3.5983,-3.4918,-3.5278,-3.5818,-3.6699,-3.0761,-3.0761,-3.0761,-3.0761,-3.0761,-3.0761,-3.0761,-3.0761,-3.0761,-3.0761,-3.0761,-3.0761,-3.0761,-3.0761,-3.0761,-3.0761,-3.0761,-3.0761,-3.0577,-3.0195,-3.0761,-3.0577,-3.0577,-3.059,-3.0761,-3.0761,-3.0761,-3.0761,-3.0761,-3.0761,-3.0761,-3.0761,-3.0761,-3.0761,-3.0761,-3.0761,-3.0995,-3.1294,-3.1086,-3.145,-3.2346,-3.2099,-3.2112,-3.2644,-3.3112,-3.3177,-3.2865,-3.3086,-3.3034,-3.2476,-3.1904,-3.167,-3.158,-3.1125,-3.0865,-3.068,-3.08,-3.0761,-3.0878,-3.1171,-3.1878,-3.2346,-3.2995,-3.354,-3.3956,-3.4112,-3.419,-3.419,-3.419,-3.419,-3.419,-3.419,-3.419,-3.419,-3.419,-3.419,-3.419,-3.419,-3.4573,-3.4777,-3.4586,-3.4586,-3.5185,-3.5185,-3.5172,-3.4981,-3.5172,-3.5579,-3.6226,-3.6336,-3.4849,-3.3652,-3.2497,-3.2698,-3.3775,-3.4091,-3.386,-3.4752,-3.5818,-3.5263,-3.2935,-3.4361,-3.6044,-3.3117,-3.1139,-3.3159,-3.4027,-3.2753,-3.2753,-3.4194,-3.4208,-3.2767,-3.2767,-3.3496,-3.439,-3.0761,-3.0761,-3.0761,-3.0761,-3.0761,-3.0761,-3.0761,-3.0761,-3.0761,-3.0761,-3.0761,-3.0761,-3.0761,-3.0761,-3.0761,-3.0761,-3.0761,-3.0761,-2.9257,-2.756,-2.9257,-3.0023,-2.9096,-3.0035,-3.0761,-3.0761,-3.0761,-3.0761,-3.0761,-3.0761,-3.0761,-3.0761,-3.0761,-3.0761,-3.0761,-3.0774,-3.0839,-3.1073,-3.1229,-3.1515,-3.1878,-3.2086,-3.2268,-3.245,-3.267,-3.2683,-3.2488,-3.2307,-3.1995,-3.1476,-3.1229,-3.1099,-3.1086,-3.0904,-3.0761,-3.0761,-3.0761,-3.0761,-3.0865,-3.1593,-3.2281,-3.2579,-3.3346,-3.3943,-3.4099,-3.419,-3.419,-3.419,-3.419,-3.419,-3.419,-3.419,-3.419,-3.419,-3.419,-3.419,-3.419,-3.419,-3.4573,-3.5566,-3.5972,-3.6176,-3.6176,-3.6176,-3.6176,-3.6176,-3.6176,-3.6378,-3.7305,-3.5845,-3.5556,-3.4933,-3.3098,-3.3006,-3.4125,-3.4403,-3.4113,-3.4737,-3.5459,-3.365,-3.257,-3.4361,-3.4888,-3.1987,-3.0671,-3.2543,-3.3931,-3.2103,-3.0959,-3.1511,-3.2598,-3.1865,-3.1498,-3.2049,-3.2598,-3.0761,-3.0761,-3.0761,-3.0761,-3.0761,-3.0761,-3.0761,-3.0761,-3.0761,-3.0405,-2.9838,-2.985,-2.9467,-2.8886,-2.8886,-2.8874,-2.8886,-2.87,-2.7373,-2.5501,-2.756,-2.8328,-2.8166,-2.8886,-2.9997,-3.0577,-3.0761,-3.0761,-3.0761,-3.0761,-3.0761,-3.0761,-3.0761,-3.0761,-3.0761,-3.0761,-3.0761,-3.0813,-3.1164,-3.1359,-3.1411,-3.1735,-3.193,-3.1956,-3.2112,-3.2112,-3.1943,-3.158,-3.1177,-3.0826,-3.0761,-3.0761,-3.0774,-3.0761,-3.0761,-3.0761,-3.0761,-3.0761,-3.0891,-3.1631,-3.2164,-3.2372,-3.306,-3.3657,-3.3878,-3.3904,-3.3982,-3.4177,-3.419,-3.419,-3.419,-3.419,-3.419,-3.419,-3.419,-3.419,-3.419,-3.419,-3.4968,-3.6176,-3.6365,-3.6365,-3.6176,-3.6176,-3.5972,-3.5972,-3.5972,-3.6378,-3.7578,-3.5606,-3.4771,-3.5329,-3.4017,-3.2861,-3.3943,-3.4403,-3.3553,-3.3118,-3.3482,-3.2388,-3.2388,-3.3104,-3.2753,-3.1615,-3.1077,-3.1524,-3.2905,-3.2722,-3.1722,-3.1498,-3.1682,-3.1314,-3.0946,-3.0946,-3.1498,-3.0577,-3.0761,-3.0761,-3.0761,-3.0761,-3.0761,-3.0761,-3.0761,-3.0761,-2.9653,-2.8352,-2.798,-2.7011,-2.5313,-2.5501,-2.4937,-2.4749,-2.4937,-2.4561,-2.4184,-2.4927,-2.6064,-2.7221,-2.7187,-2.8317,-2.9813,-3.0577,-3.0774,-3.0761,-3.0761,-3.0761,-3.0761,-3.0761,-3.0761,-3.0761,-3.0761,-3.0761,-3.0787,-3.0813,-3.0826,-3.0787,-3.0891,-3.093,-3.0943,-3.1372,-3.1411,-3.0878,-3.0839,-3.0826,-3.0774,-3.0761,-3.0761,-3.0761,-3.0761,-3.0761,-3.0761,-3.0761,-3.0761,-3.0826,-3.1359,-3.1722,-3.1826,-3.2216,-3.2852,-3.3255,-3.3346,-3.3553,-3.3956,-3.4099,-3.4164,-3.4164,-3.4125,-3.4086,-3.4164,-3.4177,-3.4177,-3.419,-3.419,-3.4381,-3.4368,-3.4573,-3.4381,-3.4381,-3.4586,-3.479,-3.4586,-3.4586,-3.4777,-3.4981,-3.4751,-3.4151,-3.4146,-3.3493,-3.2983,-3.3811,-3.4401,-3.2812,-3.1498,-3.1852,-3.1852,-3.1852,-3.1668,-3.1485,-3.1314,-3.0761,-3.0774,-3.2143,-3.213,-3.1327,-3.113,-3.0946,-3.0761,-3.0761,-3.0761,-3.0946,-2.929,-3.0551,-3.0761,-3.0761,-3.0761,-3.0761,-3.0761,-3.0761,-3.0761,-2.9653,-2.798,-2.7793,-2.6649,-2.4937,-2.4749,-2.3428,-2.0978,-2.2102,-2.1912,-2.0978,-2.3428,-2.4362,-2.4194,-2.5754,-2.6274,-2.5998,-2.8785,-3.0719,-3.0787,-3.0761,-3.0761,-3.0761,-3.0761,-3.0761,-3.0761,-3.0761,-3.0761,-3.0761,-3.0761,-3.0761,-3.0761,-3.0761,-3.0761,-3.08,-3.0943,-3.0956,-3.0787,-3.0761,-3.0761,-3.0761,-3.0761,-3.0761,-3.0761,-3.0761,-3.0761,-3.0761,-3.0761,-3.0761,-3.0826,-3.1307,-3.1631,-3.1657,-3.2138,-3.2514,-3.2709,-3.2761,-3.3047,-3.3449,-3.3605,-3.38,-3.3982,-3.3369,-3.3378,-3.4087,-3.4185,-3.4177,-3.419,-3.4177,-3.4177,-3.4177,-3.419,-3.419,-3.419,-3.419,-3.419,-3.419,-3.419,-3.419,-3.419,-3.419,-3.419,-3.4112,-3.3223,-3.3101,-3.3053,-3.3077,-3.1882,-3.1261,-3.1314,-3.113,-3.0946,-3.0946,-3.0761,-3.0761,-3.0761,-3.0761,-3.0761,-3.0761,-3.0761,-3.0761,-3.0761,-3.0761,-3.0761,-3.0761,-3.0761,-2.6826,-2.8421,-2.843,-2.8502,-2.8514,-2.8502,-2.8502,-2.8502,-2.8514,-2.7373,-2.5888,-2.57,-2.4372,-2.2481,-2.2491,-2.1169,-1.8908,-2.0033,-2.0024,-1.9091,-2.136,-2.2292,-2.1903,-2.305,-2.3567,-2.3736,-2.6892,-2.8822,-2.9665,-3.0405,-3.0761,-3.0761,-3.0761,-3.0761,-3.0761,-3.0761,-3.0761,-3.0761,-3.0761,-3.0761,-3.0761,-3.0761,-3.0761,-3.0761,-3.0761,-3.0761,-3.0761,-3.0761,-3.0761,-3.0761,-3.0761,-3.0761,-3.0761,-3.0761,-3.0761,-3.0761,-3.0761,-3.0761,-3.0813,-3.1125,-3.132,-3.1346,-3.167,-3.1904,-3.2125,-3.219,-3.2398,-3.2878,-3.3034,-3.2926,-3.2945,-3.2342,-3.235,-3.3944,-3.4237,-3.4275,-3.4257,-3.4323,-3.4198,-3.4138,-3.419,-3.419,-3.419,-3.419,-3.419,-3.419,-3.419,-3.419,-3.419,-3.419,-3.4086,-3.3865,-3.3087,-3.2388,-3.232,-3.1826,-3.1463,-3.1021,-3.0761,-3.0761,-3.0761,-3.0761,-3.0761,-3.0761,-3.0761,-3.0761,-3.0761,-3.0761,-3.0761,-3.0761,-3.0761,-3.0761,-3.0761,-3.0577,-3.0392,-2.3588,-2.4199,-2.4508,-2.4895,-2.4749,-2.4927,-2.4739,-2.5115,-2.4927,-2.3796,-2.2282,-2.2092,-2.0779,-1.89,-1.9091,-1.8715,-1.8708,-1.8708,-1.8708,-1.8715,-1.8908,-1.9841,-2.1523,-1.9716,-2.0665,-2.3597,-2.4781,-2.591,-2.7408,-2.9467,-3.059,-3.0577,-3.0577,-3.0761,-3.0761,-3.0761,-3.0761,-3.0761,-3.0761,-3.0761,-3.0761,-3.0761,-3.0761,-3.0761,-3.0761,-3.0761,-3.0761,-3.0761,-3.0761,-3.0761,-3.0761,-3.0761,-3.0761,-3.0761,-3.0761,-3.0761,-3.0761,-3.0761,-3.0761,-3.08,-3.0813,-3.08,-3.0891,-3.1034,-3.1541,-3.1593,-3.1852,-3.2385,-3.2372,-3.1906,-3.1092,-3.1079,-3.1776,-3.354,-3.4024,-3.3915,-3.413,-3.3984,-3.4222,-3.4107,-3.3956,-3.3904,-3.4008,-3.4125,-3.4086,-3.4073,-3.4151,-3.419,-3.419,-3.419,-3.3943,-3.3566,-3.2843,-3.2248,-3.1852,-3.158,-3.1359,-3.0969,-3.0761,-3.0761,-3.0761,-3.0761,-3.0761,-3.0761,-3.0761,-3.0761,-3.0761,-3.0761,-3.0761,-3.0577,-3.0577,-3.0405,-3.022,-3.0208,-3.0023,-2.1217,-2.1598,-2.3548,-2.4435,-2.4739,-2.4749,-2.4749,-2.4749,-2.4749,-2.3617,-2.1903,-2.1713,-2.0588,-1.89,-1.8708,-1.8708,-1.8708,-1.8708,-1.8708,-1.8708,-1.8708,-1.8908,-1.9467,-1.886,-1.9251,-2.0614,-2.3327,-2.4266,-2.3806,-2.6824,-2.8539,-2.891,-3.0023,-3.0761,-3.0761,-3.0761,-3.0761,-3.0761,-3.0761,-3.0761,-3.0761,-3.0761,-3.0761,-3.0761,-3.0761,-3.0761,-3.0761,-3.0761,-3.0761,-3.0761,-3.0761,-3.0761,-3.0761,-3.0761,-3.0761,-3.0761,-3.0761,-3.0761,-3.0761,-3.0761,-3.0761,-3.0761,-3.0761,-3.0839,-3.0969,-3.1008,-3.1268,-3.1748,-3.1476,-3.1268,-3.0667,-3.0758,-3.0973,-3.1457,-3.161,-3.2073,-3.2905,-3.3808,-3.3902,-3.3114,-3.3047,-3.293,-3.2995,-3.332,-3.3553,-3.3151,-3.3662,-3.419,-3.419,-3.4125,-3.3943,-3.3449,-3.2856,-3.2018,-3.1171,-3.1294,-3.1346,-3.0982,-3.0761,-3.0761,-3.0761,-3.0761,-3.0761,-3.0577,-3.0761,-3.0761,-3.059,-3.059,-3.0774,-3.0405,-3.0048,-2.9678,-2.9863,-2.9678,-2.9492,-1.8883,-1.9119,-2.08,-2.1844,-2.2047,-2.2235,-2.2301,-2.2301,-2.2292,-2.1541,-2.0597,-2.0588,-1.9841,-1.8708,-1.8708,-1.8523,-1.8331,-1.8339,-1.8139,-1.7931,-1.7931,-1.8139,-1.8331,-1.8131,-1.8323,-1.8908,-2.1049,-2.1986,-2.2301,-2.4184,-2.6263,-2.7781,-2.891,-2.9838,-3.0761,-3.0761,-3.0761,-3.0761,-3.0761,-3.0761,-3.0761,-3.0761,-3.0761,-3.0761,-3.0761,-3.0761,-3.0761,-3.0761,-3.0761,-3.0761,-3.0761,-3.0761,-3.0761,-3.0761,-3.0761,-3.0761,-3.0761,-3.0761,-3.0761,-3.0761,-3.0761,-3.0761,-3.0761,-3.0761,-3.0761,-3.0761,-3.0904,-3.119,-3.0969,-3.0761,-3.0813,-3.0662,-3.0654,-3.0692,-3.072,-3.1228,-3.2304,-3.3014,-3.334,-3.267,-3.2476,-3.2488,-3.2527,-3.2774,-3.2943,-3.2599,-3.2991,-3.365,-3.4143,-3.3715,-3.3242,-3.2774,-3.2189,-3.1419,-3.0938,-3.1086,-3.1086,-3.0878,-3.0761,-3.0761,-3.0761,-3.0577,-3.0392,-3.0392,-3.0182,-3.0182,-3.0208,-3.0418,-3.0418,-2.9863,-2.9505,-2.9319,-2.9319,-2.9133,-2.8935,-1.7097,-1.7153,-1.7656,-1.7816,-1.8293,-1.8644,-1.8804,-1.8844,-1.866,-1.8652,-1.8589,-1.8652,-1.8652,-1.8668,-1.87,-1.8531,-1.7946,-1.7954,-1.7561,-1.7347,-1.7154,-1.7361,-1.7754,-1.7361,-1.7731,-1.8523,-1.8715,-1.985,-2.116,-2.1532,-2.3418,-2.6836,-2.7408,-2.834,-2.9825,-3.0208,-3.0405,-3.0392,-3.0195,-3.0195,-3.0392,-3.059,-3.0761,-3.0761,-3.0761,-3.0761,-3.0761,-3.0761,-3.0761,-3.0761,-3.0761,-3.0761,-3.0761,-3.0761,-3.0761,-3.0761,-3.0761,-3.0761,-3.0761,-3.0761,-3.0761,-3.0761,-3.0761,-3.0761,-3.0761,-3.0761,-3.0761,-3.0787,-3.0787,-3.0761,-3.0761,-3.0787,-3.0826,-3.0654,-3.0667,-3.1168,-3.2081,-3.2389,-3.2371,-3.2268,-3.2177,-3.2307,-3.2177,-3.2216,-3.2307,-3.2346,-3.2566,-3.2905,-3.3559,-3.3088,-3.2203,-3.1597,-3.1137,-3.0705,-3.0745,-3.0774,-3.0813,-3.08,-3.0761,-3.0577,-3.059,-3.0405,-3.0035,-3.0023,-2.9615,-2.9417,-2.9467,-2.9876,-3.0259,-2.9505,-2.9319,-2.9319,-2.9133,-2.8749,-2.8364,-1.6766,-1.6797,-1.7129,-1.731,-1.7405,-1.776,-1.8068,-1.8289,-1.8297,-1.8155,-1.7973,-1.8187,-1.8297,-1.8329,-1.8597,-1.8523,-1.8523,-1.8139,-1.7761,-1.7561,-1.7354,-1.7161,-1.7354,-1.7161,-1.7354,-1.7946,-1.8523,-1.89,-1.9275,-1.9467,-2.0606,-2.304,-2.4749,-2.5689,-2.6064,-2.7583,-2.8539,-2.834,-2.6897,-2.6897,-2.834,-3.0023,-3.0761,-3.0761,-3.0761,-3.0761,-3.0761,-3.0761,-3.0761,-3.0761,-3.0761,-3.0761,-3.0761,-3.0761,-3.0761,-3.0761,-3.0761,-3.0761,-3.0761,-3.0761,-3.0761,-3.0761,-3.0761,-3.0761,-3.0761,-3.0761,-3.0761,-3.0761,-3.0761,-3.0761,-3.0761,-3.0761,-3.0761,-3.0761,-3.0761,-3.0852,-3.1142,-3.1168,-3.1047,-3.1112,-3.1151,-3.1177,-3.1151,-3.1151,-3.1359,-3.1787,-3.2203,-3.2463,-3.2683,-3.1814,-3.1176,-3.0906,-3.0758,-3.0706,-3.0813,-3.0761,-3.0577,-3.0761,-3.0392,-3.022,-3.0208,-2.985,-2.9492,-2.9492,-2.8862,-2.8664,-2.9108,-2.9505,-2.9307,-2.8923,-2.8749,-2.8551,-2.8364,-2.8178,-2.7992,-1.6655,-1.6321,-1.6483,-1.6479,-1.6463,-1.6652,-1.7098,-1.755,-1.7244,-1.7152,-1.7152,-1.732,-1.7389,-1.7412,-1.7588,-1.7568,-1.7347,-1.7149,-1.6854,-1.6783,-1.659,-1.6583,-1.6769,-1.6569,-1.6769,-1.7561,-1.8339,-1.8531,-1.8339,-1.8523,-1.9283,-2.0406,-2.2282,-2.3796,-2.4739,-2.5877,-2.645,-2.6252,-2.3414,-2.3128,-2.5734,-2.901,-3.0123,-2.8899,-3.008,-3.0761,-3.0761,-3.0761,-3.0761,-3.0761,-3.0761,-3.0761,-3.0761,-3.0761,-3.0761,-3.0761,-3.0761,-3.0761,-3.0761,-3.0761,-3.0761,-3.0761,-3.0761,-3.0761,-3.0761,-3.0761,-3.0761,-3.0761,-3.0761,-3.0761,-3.0761,-3.0761,-3.0761,-3.0761,-3.0761,-3.0761,-3.0761,-3.0761,-3.0761,-3.0761,-3.0761,-3.0761,-3.0761,-3.0761,-3.0917,-3.1177,-3.1463,-3.167,-3.167,-3.1049,-3.0807,-3.0719,-3.0787,-3.0603,-3.0405,-3.022,-3.0035,-3.0035,-2.9863,-2.985,-2.9678,-2.9294,-2.9121,-2.8935,-2.8317,-2.8107,-2.8539,-2.8737,-2.8539,-2.8166,-2.8166,-2.8166,-2.798,-2.7793,-2.7793,-1.6298,-1.5941,-1.5941,-1.5769,-1.5684,-1.5691,-1.6006,-1.6578,-1.5977,-1.5836,-1.627,-1.6306,-1.6336,-1.6155,-1.638,-1.6188,-1.5885,-1.5892,-1.5869,-1.5565,-1.5572,-1.5778,-1.6191,-1.5791,-1.5984,-1.6962,-1.7962,-1.8162,-1.7946,-1.8331,-1.8523,-1.8708,-2.0406,-2.2102,-2.3806,-2.4173,-2.4173,-2.3786,-2.0438,-2.0076,-2.3212,-2.746,-2.8507,-2.6382,-2.8752,-3.0157,-2.9782,-3.0303,-3.0251,-2.9567,-2.9736,-2.9918,-2.9918,-2.9866,-3.0254,-3.0736,-3.0761,-3.0761,-3.0761,-3.0761,-3.0761,-3.0761,-3.0761,-3.0736,-3.0658,-3.0658,-3.0684,-3.0761,-3.0761,-3.0761,-3.0761,-3.0761,-3.0761,-3.0761,-3.0761,-3.0761,-3.0761,-3.0761,-3.0761,-3.0761,-3.0761,-3.0761,-3.0761,-3.0761,-3.0774,-3.0774,-3.0917,-3.0826,-3.0878,-3.0787,-3.0787,-3.08,-3.0642,-3.0457,-3.0061,-2.9678,-2.9505,-2.9319,-2.9319,-2.9319,-2.9307,-2.8749,-2.8551,-2.8551,-2.8142,-2.7758,-2.7793,-2.7758,-2.7956,-2.798,-2.7793,-2.7793,-2.7793,-2.7793,-2.7793,-1.577,-1.5435,-1.577,-1.5807,-1.5358,-1.5358,-1.5559,-1.5603,0.0,0.0,0.0,-1.572,-1.5836,-1.5858,-1.6104,-1.6249,-1.6299,-1.5757,-1.574,-1.5842,-1.5457,-1.5394,-1.5618,-1.5605,-1.5798,-1.639,-1.6969,-1.7361,-1.7161,-1.7746,-1.7954,-1.8139,-1.89,-1.9475,-1.985,-2.1541,-2.1541,-1.9841,-1.9072,-1.9779,-2.198,-2.325,-2.3816,-2.384,-2.6715,-2.7187,-2.4717,-2.841,-2.8609,-2.3943,-2.5381,-2.6262,-2.625,-2.625,-2.7577,-3.0396,-3.0761,-3.0761,-3.0761,-3.0761,-3.0761,-3.0761,-3.0761,-3.0567,-3.0099,-3.0073,-3.0268,-3.0736,-3.0761,-3.0761,-3.0761,-3.0761,-3.0761,-3.0761,-3.0761,-3.0761,-3.0761,-3.0761,-3.0761,-3.0761,-3.0761,-3.0761,-3.0761,-3.0761,-3.0761,-3.0761,-3.0761,-3.0761,-3.0774,-3.0603,-3.0629,-3.0693,-3.0508,-3.0322,-2.9703,-2.9319,-2.9319,-2.9319,-2.8935,-2.8749,-2.8551,-2.8364,-2.798,-2.7992,-2.7968,-2.7781,-2.7793,-2.7793,-2.7793,-2.7793,-2.7793,-2.7793,-2.7793,-2.7793,-2.7793,-1.5281,0.0,-1.5099,-1.4921,0.0,-1.4571,-1.4571,-1.4578,-1.4234,-1.4399,-1.4585,-1.4737,-1.4799,-1.4806,-1.4958,-1.5103,-1.5256,-1.5083,-1.5065,-1.5356,-1.4979,-1.5058,-1.5203,-1.5132,-1.5387,-1.5788,-1.6705,-1.6969,-1.6769,-1.7161,-1.7554,-1.7554,-1.7946,-1.8055,-1.7704,-1.9368,-1.9658,-1.8708,-1.8684,-1.8958,-1.9736,-2.2215,-2.2943,-2.1952,-2.4764,0.0,0.0,0.0,0.0,0.0,0.0,0.0,0.0,0.0,0.0,-3.0374,-2.8002,-2.7687,-3.0368,-2.8192,-2.6675,-2.6548,-2.6949,-2.6953,-2.6472,-2.8344,-2.9138,-2.8125,-2.9255,-2.9917,-2.993,-2.997,-2.9943,-2.9956,-3.0396,-3.0761,-3.0761,-3.0761,-3.0761,-3.0761,-3.0761,-3.0761,-3.0761,-3.0761,-3.0761,-3.0761,-3.0761,-3.0577,-3.0392,-2.9762,-2.9552,-3.0035,-2.9678,-2.9307,-2.9307,-2.8935,-2.8551,-2.8563,-2.8364,-2.8178,-2.8166,-2.798,-2.7793,-2.7793,-2.7793,-2.7793,-2.7793,-2.7793,-2.7793,-2.7793,-2.7793,-2.7793,-2.7793,-2.7793,-2.7793,-1.451,-1.4242,-1.4419,-1.4099,-1.3798,-1.3739,-1.3719,-1.3719,-1.3719,-1.3752,-1.3805,-1.368,-1.3878,-1.3878,-1.3878,-1.4016,-1.424,-1.4247,-1.4405,-1.4688,-1.4688,-1.4715,-1.4787,-1.4621,-1.4723,-1.5124,-1.631,-1.6656,-1.6307,-1.6691,-1.7096,-1.7354,-1.7754,-1.7627,-1.7002,0.0,0.0,0.0,-1.8612,-1.8321,-1.7921,-2.1569,-2.2445,-2.0129,-2.2599,0.0,-2.3378,-2.4269,-2.4966,-2.5557,-2.5813,0.0,0.0,0.0,0.0,0.0,0.0,0.0,0.0,0.0,0.0,0.0,-2.1803,-2.2516,-2.2881,-2.5941,-2.6911,-2.4674,-2.726,-2.8757,-2.7856,-2.8301,-2.8958,-2.9379,-3.0177,-3.0671,-3.0685,-3.0554,-3.0606,-3.0606,-3.071,-3.0761,-3.0761,-3.0761,-3.0761,-3.0761,-3.0761,-3.0577,-2.9838,-2.8998,-2.8752,-2.9183,-2.8874,-2.8502,-2.8923,-2.8364,-2.798,-2.7793,-2.7793,-2.7793,-2.7793,-2.7793,-2.7793,-2.7793,-2.7793,-2.7793,-2.7793,-2.7793,-2.7793,-2.7793,-2.7793,-2.7793,-2.7793,-2.7793,-2.7793,-1.3579,-1.3302,-1.3782,-1.3777,-1.3495,-1.3238,-1.3133,-1.3133,-1.3133,-1.3284,-1.3541,-1.3779,-1.3878,-1.3878,-1.3878,-1.3897,-1.3937,-1.3937,-1.4102,-1.4379,-1.4385,-1.4524,-1.4768,-1.4238,-1.4264,-1.4827,-1.5432,-1.5775,-1.601,-1.6575,-1.7098,-1.7754,-1.7761,-1.7739,-1.7702,-1.8308,-1.8375,-1.7703,-1.8336,-1.8652,-1.8461,-1.9043,-1.8737,-1.7784,-2.058,-2.0829,-1.838,-2.2278,-2.2541,-1.7998,-1.8781,-1.9429,-1.9577,-1.8452,-1.6054,0.0,-1.5228,0.0,0.0,0.0,0.0,0.0,0.0,0.0,0.0,-2.2418,-2.243,-2.0963,-2.5954,-2.7312,-2.285,-2.561,-2.8401,-3.0184,-3.0642,-3.0709,-3.0723,-3.0336,-3.0034,-3.0034,-3.0463,-3.0761,-3.0749,-3.0761,-3.0761,-3.0577,-3.0551,-2.9972,-2.9108,-2.9554,-2.9765,-2.9393,-2.9219,-2.8785,-2.8178,-2.7968,-2.7793,-2.7793,-2.7793,-2.7793,-2.7793,-2.7793,-2.7793,-2.7793,-2.7793,-2.7793,-2.7793,-2.7793,-2.7793,-2.7758,-2.7723,-2.7711,-2.7723,-2.7699,-2.7793,-1.3035,-1.3027,-1.3343,-1.3162,-1.2968,-1.2829,-1.2869,-1.3021,-1.3027,-1.31,-1.3231,-1.335,-1.3403,-1.3416,-1.3581,-1.3647,-1.366,-1.3812,-1.395,-1.4075,-1.4075,-1.4148,-1.428,-1.3895,-1.3972,-1.453,-1.4884,-1.5214,-1.5329,-1.5698,-1.6132,-1.646,-1.7198,-1.7114,-1.5762,-1.6938,-1.7598,-1.7447,-1.8344,-1.8708,-1.8708,-1.8708,-1.8375,-1.8078,-1.9294,-1.9311,-1.807,-1.9652,-1.9962,-1.8772,-1.8716,-1.9193,-2.0323,-1.6973,-1.3994,0.0,0.0,0.0,0.0,0.0,0.0,0.0,0.0,0.0,0.0,0.0,-1.7888,-2.0642,-2.3968,-2.49,-2.271,-2.5415,-2.779,-2.8722,-2.9484,-2.9813,-2.9836,-2.866,-2.8215,-2.9346,-2.9764,-2.9918,-2.9931,-3.0187,-3.022,-3.0048,-2.8948,-2.8471,-2.8837,-2.8935,-2.8935,-2.8539,-2.8959,-2.8959,-2.7956,-2.777,-2.7793,-2.7793,-2.7793,-2.7793,-2.7793,-2.7793,-2.7793,-2.7793,-2.7793,-2.7909,-2.7857,-2.7791,-2.7676,-2.7429,-2.7148,-2.6972,-2.6948,-2.6948,-2.6948,-1.2612,-1.2796,-1.2216,-1.1896,-1.1965,-1.1813,-1.2325,-1.281,-1.2823,-1.2862,-1.2915,-1.2922,-1.2803,-1.23,-1.2156,-1.2277,-1.264,-1.2904,-1.3142,-1.368,-1.3752,-1.3615,-1.3798,-1.372,-1.4038,-1.4234,-1.4385,-1.471,-1.4843,-1.5131,-1.5166,-1.5141,-1.5992,-1.568,-1.3984,-1.542,-1.6387,-1.7132,-1.7764,-1.8084,-1.8084,-1.8471,-1.8471,-1.8084,-1.8273,-1.8273,-1.8076,-1.7454,-1.806,-1.9506,-1.8467,-1.8501,-1.9793,-1.5259,0.0,0.0,0.0,0.0,0.0,0.0,0.0,0.0,0.0,-1.3238,-0.9814,0.0,-1.4107,0.0,-2.1029,-2.2188,-2.3684,-2.3285,0.0,0.0,-2.6853,-2.8395,-2.7429,-2.6227,-2.6172,-2.7724,-2.8576,-2.9175,-2.9188,-2.9557,-2.946,-2.8728,-2.7177,-2.689,-2.8458,-2.8137,-2.7767,-2.7873,-2.8527,-2.8725,-2.7944,-2.777,-2.7793,-2.7793,-2.7688,-2.7617,-2.7605,-2.7512,-2.7429,-2.7429,-2.7429,-2.7495,-2.7719,-2.756,-2.7207,-2.6772,-2.6467,-2.6268,-2.6268,-2.628,-2.628,-1.2361,-1.2144,-0.999,-0.944,-0.981,-0.9816,-1.0675,-1.2229,-1.2236,-1.2374,-1.2618,-1.2618,-1.1869,-1.0386,-0.8765,0.0,-1.0619,-1.0589,-1.1553,-1.31,-1.337,-1.3502,-1.3515,-1.3779,-1.3738,-1.3904,-1.3856,-1.4365,-1.5034,-1.4799,-1.4567,-1.4362,-1.4065,-1.3843,-1.3717,-1.4147,-1.5125,-1.6402,-1.6468,-1.6482,-1.6475,-1.7967,-1.7967,-1.6482,-1.6833,-1.6833,-1.6475,-1.6446,-1.6431,-1.6561,-1.4829,-1.3757,-1.3266,0.0,0.0,0.0,0.0,0.0,0.0,0.0,0.0,0.0,0.0,0.0,0.0,0.0,0.0,0.0,-1.6481,0.0,-2.4866,-1.6315,0.0,0.0,0.0,-2.609,-2.2395,-2.3061,-2.3842,-2.402,0.0,0.0,-2.9164,-2.8827,-2.7975,-2.6751,-2.6315,-2.6456,-2.72,-2.7488,-2.7862,-2.7664,-2.777,-2.7956,-2.7873,-2.7676,-2.7652,-2.7676,-2.7394,-2.7113,-2.7078,-2.6761,-2.6432,-2.6444,-2.6397,-2.6586,-2.7531,-2.694,-2.6233,-2.574,-2.594,-2.6233,-2.6198,-2.6186,-2.6162,-1.0709,-0.846,-0.785,-0.7778,-0.8169,-1.0212,-1.159,-1.2232,-1.2194,-1.1671,-1.0607,-1.0607,-0.9697,-0.7914,-0.7179,0.0,0.0,0.0,-0.961,-1.1392,-1.1509,-1.2062,-1.3192,-1.3311,-1.3456,-1.362,-1.3695,-1.4018,-1.4396,-1.4468,-1.2834,-0.9611,0.0,0.0,-1.0651,-1.2315,-1.3851,-1.5208,-1.5999,-1.5834,-1.489,-1.6394,-1.6955,-1.6402,-1.6576,-1.6394,-1.6394,-1.5844,-1.5225,-1.4648,-1.3014,-1.166,0.0,0.0,0.0,0.0,0.0,0.0,0.0,0.0,0.0,0.0,0.0,-0.8379,-0.6074,0.0,0.0,0.0,-1.1045,-1.1742,-1.5007,-1.6079,0.0,0.0,0.0,0.0,0.0,0.0,0.0,-2.005,-2.3053,-2.5114,-2.4961,-2.5921,-2.6458,-2.6258,-2.5764,-2.5602,-2.6503,0.0,-2.7633,-2.6855,-2.7467,-2.7864,-2.7864,-2.6274,-2.5433,-2.6639,-2.669,-2.6573,-2.6573,-2.6421,-2.608,-2.5493,-2.5305,-2.5402,-2.5869,-2.5541,-2.5236,-2.5071,-2.5189,-2.5306,-2.5329,-2.5318,-2.5329,-0.7105,0.0,0.0,0.0,0.0,-0.9398,-1.0513,-1.0566,-1.1766,-1.1527,-1.0105,-0.9033,0.0,0.0,0.0,0.0,0.0,0.0,-0.8529,-0.9977,-1.0633,-1.168,-1.2895,-1.282,-1.2964,-1.333,-1.3422,-1.3315,-1.3007,-1.2761,-1.0539,-0.6354,0.0,0.0,0.0,0.0,-1.2285,-1.3724,-1.4956,-1.5021,-1.3914,-1.5021,-1.5758,-1.5952,-1.5765,-1.5765,-1.5572,-1.4854,-1.39,-1.2862,-1.1255,0.0,0.0,0.0,0.0,0.0,0.0,0.0,0.0,0.0,0.0,0.0,0.0,0.0,0.0,0.0,0.0,0.0,0.0,0.0,-0.7349,-1.3117,-1.433,0.0,0.0,0.0,0.0,0.0,0.0,0.0,0.0,0.0,-2.0267,-2.2388,-2.446,0.0,0.0,-2.5093,-2.5975,-2.6478,-2.6549,-2.5328,-2.6433,0.0,0.0,-2.4561,-2.3701,-2.5101,-2.5822,-2.5882,-2.5128,-2.5462,-2.5106,-2.265,-2.3656,-2.46,-2.4625,-2.4684,-2.4457,-2.3727,-2.3554,-2.3554,-2.3589,-2.4262,-2.4708,0.0,0.0,0.0,0.0,0.0,0.0,0.0,0.0,-1.0544,-1.2086,0.0,-0.8016,0.0,0.0,0.0,0.0,0.0,-0.7219,0.0,0.0,-1.1551,-1.2552,-1.2579,-1.2353,-1.2512,-1.3014,-1.3018,-1.2295,-1.0898,-0.9067,0.0,0.0,0.0,0.0,0.0,0.0,-1.0312,-1.2301,-1.3337,-1.3911,-1.3745,-1.3917,-1.4268,-1.4805,-1.4633,-1.4433,-1.3858,-1.2836,-1.1952,-1.1313,-0.9157,0.0,0.0,0.0,0.0,0.0,0.0,0.0,0.0,0.0,0.0,0.0,0.0,0.0,0.0,0.0,0.0,0.0,0.0,0.0,0.0,-0.5208,0.0,0.0,0.0,0.0,0.0,0.0,0.0,0.0,0.0,0.0,-1.5706,-1.8634,-2.1755,-2.3679,0.0,0.0,0.0,0.0,-2.418,-2.2504,-2.4587,-2.5336,-2.2671,-2.274,-2.3022,-2.3226,0.0,0.0,-2.2311,-2.3427,-2.3052,-1.7943,-2.1268,-2.4612,-2.4647,-2.4529,-2.3717,-2.1352,-2.0844,-2.092,-2.0997,-2.2584,-2.4227,0.0,0.0,0.0,0.0,0.0,0.0,0.0,0.0,0.0,-0.9355,0.0,-0.3113,0.0,0.0,0.0,0.0,0.0,0.0,0.0,0.0,-0.8867,-0.9512,-0.8793,-1.1173,-1.1155,0.0,-1.1868,-1.0801,0.0,0.0,0.0,0.0,0.0,0.0,0.0,0.0,-0.9771,-1.1306,-1.3007,-1.3878,-1.3878,-1.3878,-1.3884,-1.4063,-1.4063,-1.3509,-1.2223,-1.1794,-1.1056,0.0,0.0,0.0,0.0,0.0,0.0,0.0,0.0,0.0,0.0,0.0,0.0,0.0,0.0,0.0,0.0,0.0,0.0,0.0,0.0,0.0,0.0,0.0,-0.6244,0.0,0.0,0.0,0.0,0.0,0.0,0.0,0.0,0.0,-1.2795,-1.6751,-2.0102,-2.1241,-2.2641,-2.3901,-2.445,0.0,0.0,0.0,0.0,0.0,0.0,0.0,-1.8187,-1.9574,-1.8807,-1.8051,-1.8303,-1.9529,-1.9523,-1.7145,0.0,0.0,-2.4204,-2.2494,-1.9764,-1.7499,-1.7298,-1.7478,-1.7298,-1.839,-1.9223,0.0,0.0,0.0,0.0,0.0,0.0,0.0,0.0,0.0,-0.5195,-0.0431,0.0,0.0,0.0,0.0,0.0,0.0,0.0,0.0,0.0,0.0,0.0,-0.7186,-0.8132,0.0,0.0,0.0,0.0,0.0,0.0,0.0,0.0,0.0,0.0,0.0,0.0,-0.9464,-1.0739,-1.2803,-1.3878,-1.3878,-1.3878,-1.3878,-1.3878,-1.3792,-1.3014,-1.1471,0.0,0.0,0.0,0.0,0.0,0.0,0.0,0.0,0.0,0.0,0.0,0.0,0.0,0.0,0.0,0.0,0.0,0.0,0.0,0.0,0.0,0.0,0.0,0.0,0.0,-0.5853,0.0,0.0,0.0,0.0,0.0,0.0,0.0,0.0,0.0,0.0,0.0,-1.7314,-1.9117,-1.9994,-2.1107,-2.2652,-2.3971,-2.3406,0.0,0.0,0.0,0.0,0.0,0.0,0.0,0.0,0.0,0.0,0.0,0.0,0.0,0.0,-1.6976,-2.0742,-1.7561,-1.4101,-1.3611,0.0,0.0,0.0,0.0,0.0,0.0,0.0,0.0,0.0,0.0,0.0,0.0,0.0,0.0,0.0,0.0,0.0,0.0,0.0,0.0,0.0,0.0,0.0,0.0,0.0,0.0,0.0,0.0,0.0,0.0,0.0,0.0,0.0,0.0,0.0,0.0,0.0,0.0,0.0,0.0,0.0,-0.9236,-1.043,-1.2697,-1.3864,-1.3864,-1.3871,-1.3858,-1.3838,-1.3594,-1.2908,-1.1728,0.0,0.0,0.0,0.0,0.0,0.0,0.0,0.0,0.0,0.0,0.0,0.0,0.0,0.0,0.0,0.0,0.0,0.0,0.0,0.0,0.0,0.0,0.0,0.0,0.0,0.0,-0.6717,-0.6937,-0.6434,0.0,0.0,0.0,0.0,0.0,0.0,0.0,0.0,0.0,0.0,-1.6382,-1.6545,-2.0303,-2.2776,-2.2064,-1.6708,-1.4354,-1.2924,-1.2781,-1.4117,-1.5112,0.0,0.0,0.0,0.0,0.0,0.0,0.0,0.0,0.0,0.0,0.0,0.0,0.0,0.0,0.0,0.0,0.0,0.0,0.0,0.0,0.0,0.0,0.0,0.0,0.0,0.0,0.0,0.0,0.0,0.0,0.0,0.0,0.0,0.0,0.0,0.0,0.0,0.0,0.0,0.0,0.0,0.0,0.0,0.0,0.0,0.0,0.0,0.0,0.0,0.0,0.0,0.0,0.0,0.0,-0.8373,-0.9378,-1.2203,-1.3594,-1.3594,-1.3594,-1.3495,-1.3291,-1.3199,-1.2612,0.0,0.0,0.0,0.0,0.0,0.0,0.0,0.0,0.0,0.0,0.0,0.0,0.0,0.0,0.0,0.0,0.0,0.0,0.0,0.0,0.0,0.0,0.0,0.0,0.0,0.0,0.0,0.0,-0.5328,-0.6199,-0.7309,0.0,0.0,0.0,0.0,0.0,0.0,0.0,0.0,0.0,0.0,-1.6068,-1.8166,-1.7052,-1.5909,-1.5861,-1.4189,-1.2978,-1.2856,-1.2833,-1.2656,-1.2467,0.0,0.0,0.0,0.0,0.0,0.0,0.0,0.0,0.0,0.0,0.0,0.0,0.0,0.0,0.0,0.0,0.0,0.0,0.0,0.0,0.0,0.0,0.0,0.0,0.0,0.0,0.0,0.0,0.0,0.0,0.0,0.0,0.0,0.0,0.0,0.0,0.0,0.0,0.0,0.0,0.0,0.0,0.0,0.0,0.0,0.0,0.0,0.0,0.0,0.0,0.0,0.0,0.0,-0.8018,-0.8842,-1.1801,-1.3304,-1.3297,-1.3297,-1.3212,-1.3027,-1.2915,-1.2098,0.0,0.0,0.0,0.0,0.0,0.0,0.0,0.0,0.0,0.0,0.0,0.0,0.0,0.0,0.0,0.0,0.0,0.0,0.0,0.0,0.0,0.0,0.0,0.0,0.0,0.0,0.0,0.0,-0.5739,-0.7765,-0.9031,0.0,0.0,0.0,0.0,0.0,0.0,0.0,0.0,0.0,0.0,-1.3847,-1.5802,-1.3939,0.0,0.0,-1.3423,-1.269,-1.2788,-1.2243,-1.1702,-1.1135,-1.0515,0.0,0.0,0.0,0.0,0.0,0.0,0.0,0.0,0.0,0.0,0.0,0.0,0.0,0.0,0.0,0.0,0.0,0.0,0.0,0.0,0.0,0.0,0.0,0.0,0.0,0.0,0.0,0.0,0.0,0.0,0.0,0.0,0.0,0.0,0.0,0.0,0.0,0.0,0.0,0.0,0.0,0.0,0.0,0.0,0.0,0.0,0.0,0.0,0.0,0.0,0.0,0.0,0.0,-0.8603,-1.1663,-1.3162,-1.2994,-1.3162,-1.3155,-1.2961,-1.2697,-1.1484,0.0,0.0,0.0,0.0,0.0,0.0,0.0,0.0,0.0,0.0,0.0,0.0,0.0,0.0,0.0,0.0,0.0,0.0,0.0,0.0,0.0,0.0,0.0,0.0,0.0,0.0,0.0,0.0,0.0,0.0,0.0,0.0,0.0,0.0,0.0,0.0,0.0,0.0,0.0,0.0,0.0,-1.0809,-1.3128,-1.2752,-1.2251,0.0,0.0,-1.2173,-1.2147,-1.2078,-1.161,-1.0112,0.0,0.0,0.0,0.0,0.0,0.0,0.0,0.0,0.0,0.0,0.0,0.0,0.0,0.0,0.0,0.0,0.0,0.0,0.0,0.0,0.0,0.0,0.0,0.0,0.0,0.0,0.0,0.0,0.0,0.0,0.0,0.0,0.0,0.0,0.0,0.0,0.0,0.0,0.0,0.0,0.0,0.0,0.0,0.0,0.0,0.0,0.0,0.0,0.0,0.0,0.0,0.0,0.0,0.0,-0.7615,-1.1079,-1.2855,-1.2691,-1.2855,-1.2754,-1.2388,-1.2308,0.0,0.0,0.0,0.0,0.0,0.0,0.0,0.0,0.0,0.0,0.0,0.0,0.0,0.0,0.0,0.0,0.0,0.0,0.0,0.0,0.0,0.0,0.0,0.0,0.0,0.0,0.0,-0.3498,0.0,0.0,0.0,0.0,0.0,0.0,0.0,0.0,0.0,0.0,0.0,0.0,0.0,0.0,-1.0409,-1.191,-1.222,-1.2069,0.0,0.0,-1.1869,-1.1023,-1.0904,-1.0718,0.0,0.0,0.0,0.0,0.0,0.0,0.0,0.0,0.0,0.0,0.0,0.0,0.0,0.0,0.0,0.0,0.0,0.0,0.0,0.0,0.0,0.0,0.0,0.0,0.0,0.0,0.0,0.0,0.0,0.0,0.0,0.0,0.0,0.0,0.0,0.0,0.0,0.0,0.0,0.0,0.0,0.0,0.0,0.0,0.0,0.0,0.0,0.0,0.0,0.0,0.0,0.0,0.0,0.0,-0.6667,-0.7012,-1.0615,-1.2509,-1.2534,-1.2568,-1.2487,-1.2327,-1.1555,-1.0375,0.0,0.0,0.0,0.0,0.0,0.0,0.0,0.0,0.0,0.0,0.0,0.0,0.0,0.0,0.0,0.0,0.0,0.0,0.0,0.0,0.0,0.0,0.0,0.0,0.0,0.0,0.0,0.0,0.0,0.0,0.0,0.0,0.0,0.0,0.0,0.0,0.0,0.0,0.0,0.0,0.0,0.0,-1.0769,-1.1401,0.0,0.0,0.0,-1.1224,-1.0531,0.0,0.0,0.0,0.0,0.0,0.0,0.0,0.0,0.0,0.0,0.0,0.0,0.0,0.0,0.0,0.0,0.0,0.0,0.0,0.0,0.0,0.0,0.0,0.0,0.0,0.0,0.0,0.0,0.0,0.0,0.0,0.0,0.0,0.0,0.0,0.0,0.0,0.0,0.0,0.0,0.0,0.0,0.0,0.0,0.0,0.0,0.0,0.0,0.0,0.0,0.0,0.0,0.0,0.0,0.0,0.0,0.0,-0.654,-0.9869,-1.172,-1.1655,-1.2039,-1.2039,-1.1404,-1.0337,-0.969,0.0,0.0,0.0,0.0,0.0,0.0,0.0,0.0,0.0,0.0,0.0,0.0,0.0,0.0,0.0,0.0,0.0,0.0,0.0,0.0,0.0,0.0,0.0,0.0,0.0,0.0,0.0,0.0,0.0,0.0,0.0,0.0,0.0,0.0,0.0,0.0,0.0,0.0,0.0,0.0,0.0,-1.0245,-0.9923,-1.063,-1.0729,0.0,0.0,-1.0409,-1.0281,-0.9985,0.0,0.0,0.0,0.0,0.0,0.0,0.0,0.0,0.0,0.0,0.0,0.0,0.0,0.0,0.0,0.0,0.0,0.0,0.0,0.0,0.0,0.0,0.0,0.0,0.0,0.0,0.0,0.0,0.0,0.0,0.0,0.0,0.0,0.0,0.0,0.0,0.0,0.0,0.0,0.0,0.0,0.0,0.0,0.0,0.0,0.0,0.0,0.0,0.0,0.0,0.0,0.0,0.0,0.0,0.0,0.0,-0.5628,-0.7417,-0.8351,-0.85,-1.083,-1.0522,-0.7135,-0.8362,-0.8645,0.0,0.0,0.0,0.0,0.0,0.0,0.0,0.0,0.0,0.0,0.0,0.0,0.0,0.0,0.0,0.0,0.0,0.0,0.0,0.0,0.0,0.0,0.0,0.0,0.0,0.0,0.0,0.0,0.0,0.0,0.0,0.0,0.0,0.0,0.0,0.0,0.0,0.0,0.0,0.0,0.0,-0.9503,-0.9877,-0.9889,0.0,0.0,0.0,0.0,-0.8745,-0.8125,0.0,0.0,0.0,0.0,0.0,0.0,0.0,0.0,0.0,0.0,0.0,0.0,0.0,0.0,0.0,0.0,0.0,0.0,0.0,0.0,0.0,0.0,0.0,0.0,0.0,0.0,0.0,0.0,0.0,0.0,0.0,0.0,0.0,0.0,0.0,0.0,0.0,0.0,0.0,0.0,0.0,0.0,0.0,0.0,0.0,0.0,0.0,0.0,0.0,0.0,0.0,0.0,0.0,0.0,0.0,0.0,-0.4752,-0.4953,-0.5505,-0.6519,-0.7154,-0.7154,-0.653,-0.7223,-0.6208,0.0,0.0,0.0,0.0,0.0,0.0,0.0,0.0,0.0,0.0,0.0,0.0,0.0,0.0,0.0,0.0,0.0,0.0,0.0,0.0,0.0,0.0,0.0,0.0,0.0,0.0,0.0,0.0,0.0,0.0,0.0,0.0,0.0,0.0,0.0,0.0,0.0,0.0,0.0,0.0,-0.7815,-0.8835,-0.961,0.0,0.0,0.0,0.0,0.0,0.0,-0.7456,-0.6896,0.0,0.0,0.0,0.0,0.0,0.0,0.0,0.0,0.0,0.0,0.0,0.0,0.0,0.0,0.0,0.0,0.0,0.0,0.0,0.0,0.0,0.0,0.0,0.0,0.0,0.0,0.0,0.0,0.0,0.0,0.0,0.0,0.0,0.0,0.0,0.0,0.0,0.0,0.0,0.0,0.0,0.0,0.0,0.0,0.0,0.0,0.0,0.0,0.0,0.0,0.0,0.0,0.0,0.0,0.0,-0.4143,-0.3108,-0.331,-0.4846,-0.3348,-0.3646,-0.6042,-0.5495,-0.3494,0.0,0.0,0.0,0.0,0.0,0.0,0.0,0.0,0.0,0.0,0.0,0.0,0.0,0.0,0.0,0.0,0.0,0.0,0.0,0.0,0.0,0.0,0.0,0.0,0.0,0.0,0.0,0.0,0.0,0.0,0.0,0.0,0.0,0.0,0.0,0.0,0.0,0.0,0.0,0.0,-0.6573,-0.8182,0.0,0.0,0.0,0.0,0.0,0.0,0.0,0.0,-0.6502,0.0,0.0,0.0,0.0,0.0,0.0,0.0,0.0,0.0,0.0,0.0,0.0,0.0,0.0,0.0,0.0,0.0,0.0,0.0,0.0,0.0,0.0,0.0,0.0,0.0,0.0,0.0,0.0,0.0,0.0,0.0,0.0,0.0,0.0,0.0,0.0,0.0,0.0,0.0,0.0,0.0,0.0,0.0,0.0,0.0,0.0,0.0,0.0,0.0,0.0,0.0,0.0,0.0,0.0,0.0,0.0,-0.2643,-0.2254,-0.1975,-0.2289,-0.2116,-0.1183,-0.1031,-0.0694,0.0,0.0,0.0,0.0,0.0,0.0,0.0,0.0,0.0,0.0,0.0,0.0,0.0,0.0,0.0,0.0,0.0,0.0,0.0,0.0,0.0,0.0,0.0,0.0,0.0,0.0,0.0,0.0,0.0,0.0,0.0,0.0,0.0,0.0,0.0,0.0,0.0,0.0,0.0,-0.4227,-0.6022,0.0,0.0,0.0,0.0,0.0,0.0,0.0,0.0,-0.6459,0.0,0.0,0.0,0.0,0.0,0.0,0.0,0.0,0.0,0.0,0.0,0.0,0.0,0.0,0.0,0.0,0.0,0.0,0.0,0.0,0.0,0.0,0.0,0.0,0.0,0.0,0.0,0.0,0.0,0.0,0.0,0.0,0.0,0.0,0.0,0.0,0.0,0.0,0.0,0.0,0.0,0.0,0.0,0.0,0.0,0.0,0.0,0.0,0.0,0.0,0.0,0.0,0.0,0.0,0.0,0.0,0.0,0.0,-0.0971,-0.0597,-0.0898,-0.0745,0.0,0.0,0.0,0.0,0.0,0.0,0.0,0.0,0.0,0.0,0.0,0.0,0.0,0.0,0.0,0.0,0.0,0.0,0.0,0.0,0.0,0.0,0.0,0.0,0.0,0.0,0.0,0.0,0.0,0.0,0.0,0.0,0.0,0.0,0.0,0.0,0.0,0.0,0.0,0.0,0.0,0.0,0.0,0.0,0.0,0.0,0.0,0.0,0.0,0.0,0.0,0.0,0.0,0.0,0.0,0.0,0.0,0.0,0.0,0.0,0.0,0.0,0.0,0.0,0.0,0.0,0.0,0.0,0.0,0.0,0.0,0.0,0.0,0.0,0.0,0.0,0.0,0.0,0.0,0.0,0.0,0.0,0.0,0.0,0.0,0.0,0.0,0.0,0.0,0.0,0.0,0.0,0.0,0.0,0.0,0.0,0.0,0.0,0.0,0.0,0.0,0.0,0.0,0.0,0.0,0.0,0.0,0.0,0.0,0.0,0.0,0.0,0.0,0.0,0.0,0.0,0.0,0.0,0.0,0.0,0.0,0.0,0.0,0.0,0.0,0.0,0.0,0.0,0.0,0.0,0.0,0.0,0.0,0.0,0.0,0.0,0.0,0.0,0.0,0.0,0.0,0.0,0.0,0.0,0.0,0.0,0.0,0.0,0.0,0.0,0.0,0.0,0.0,0.0,0.0,0.0,0.0,0.0,0.0,0.0,0.0,0.0,0.0,0.0,0.0,0.0,-0.6497,0.0,0.0,0.0,0.0,0.0,0.0,0.0,0.0,0.0,0.0,0.0,0.0,0.0,0.0,0.0,0.0,0.0,0.0,0.0,0.0,0.0,0.0,0.0,0.0,0.0,0.0,0.0,0.0,0.0,0.0,0.0,0.0,0.0,0.0,0.0,0.0,0.0,0.0,0.0,0.0,0.0,0.0,0.0,0.0,0.0,0.0,0.0,0.0,0.0,0.0,0.0,0.0,0.0,0.0,0.0,0.0,0.0,0.0,0.0,0.0,0.0,0.0,0.0,0.0,0.0,0.0,0.0,0.0,0.0,0.0,0.0,0.0,0.0,0.0,0.0,0.0,0.0,0.0,0.0,0.0,0.0,0.0,0.0,0.0,0.0,0.0,0.0,0.0,0.0,0.0,0.0,0.0,0.0,0.0,0.0,0.0,0.0,0.0,0.0,0.0,0.0,0.0,0.0,0.0,0.0,0.0,0.0,0.0,0.0,0.0,0.0,0.0,0.0,0.0,0.0,0.0,0.0,0.0,0.0,0.0,0.0,0.0,0.0,0.0,0.0,0.0,0.0,0.0,0.0,0.0,0.0,0.0,0.0,0.0,0.0,0.0,0.0,0.0,0.0,0.0,0.0,0.0,0.0,0.0,0.0,0.0,0.0,0.0,0.0,0.0,0.0,0.0,0.0,0.0,0.0,0.0,0.0,0.0,0.0,0.0,0.0,0.0,0.0,0.0,0.0,0.0,0.0,0.0,0.0,0.0,0.0,0.0,0.0,0.0,0.0,0.0,0.0,0.0,0.0,0.0,0.0,0.0,0.0,0.0,0.0,0.0,0.0,0.0,0.0,0.0,0.0,0.0,0.0,0.0,0.0,0.0,0.0,0.0,0.0,0.0,0.0,0.0,0.0,0.0,0.0,0.0,0.0,0.0,0.0,0.0,0.0,0.0,0.0,0.0,0.0,0.0,0.0,0.0,0.0,0.0,0.0,0.0,0.0,0.0,0.0,0.0,0.0,0.0,0.0,0.0,0.0,0.0,0.0,0.0,0.0,0.0,0.0,0.0,0.0,0.0,0.0,0.0,0.0,0.0,0.0,0.0,0.0,0.0,0.0,0.0,0.0,0.0,0.0,0.0,0.0,0.0,0.0,0.0,0.0,0.0,0.0,0.0,0.0,0.0,0.0,0.0,0.0,0.0,0.0,0.0,0.0,0.0,0.0,0.0,0.0,0.0,0.0,0.0,0.0,0.0,0.0,0.0,0.0,0.0,0.0,0.0,0.0,0.0,0.0,0.0,0.0,0.0,0.0,0.0,0.0,0.0,0.0,0.0,0.0,0.0,0.0,0.0,0.0,0.0,0.0,0.0,0.0,0.0,0.0,0.0,0.0,0.0,0.0,0.0,0.0,0.0,0.0,0.0,0.0,0.0,0.0,0.0,0.0,0.0,0.0,0.0,0.0,0.0,0.0,0.0,0.0,0.0,0.0,0.0,0.0,0.0,0.0,0.0,0.0,0.0,0.0,0.0,0.0,0.0,0.0,0.0,0.0,0.0,0.0,0.0,0.0,0.0,0.0,0.0,0.0,0.0,0.0,0.0,0.0,0.0,0.0,0.0,0.0,0.0,0.0,0.0,0.0,0.0,0.0,0.0,0.0,0.0,0.0,0.0,0.0,0.0,0.0,0.0,0.0,0.0,0.0,0.0,0.0,0.0,0.0,0.0,0.0,0.0,0.0,0.0,0.0,0.0,0.0,0.0,0.0,0.0,0.0,0.0,0.0,0.0,0.0,0.0,0.0,0.0,0.0,0.0,0.0,0.0,0.0,0.0,0.0,0.0,0.0,0.0,0.0,0.0,0.0,0.0,0.0,0.0,0.0,0.0,0.0,0.0,0.0,0.0,0.0,0.0,0.0,0.0,0.0,0.0,0.0,0.0,0.0,0.0,0.0,0.0,0.0,0.0,0.0,0.0,0.0,0.0,0.0,0.0,0.0,0.0,0.0,0.0,0.0,0.0,0.0,0.0,0.0,0.0,0.0,0.0,0.0,0.0,0.0,0.0,0.0,0.0,0.0,0.0,0.0,0.0,0.0,0.0,0.0,0.0,0.0,0.0,0.0,0.0,0.0,0.0,0.0,0.0,0.0,0.0,0.0,0.0,0.0,0.0,0.0,0.0,0.0,0.0,0.0,0.0,0.0,0.0,0.0,0.0,0.0,0.0,0.0,0.0,0.0,0.0,0.0,0.0,0.0,0.0,0.0,0.0,0.0,0.0,0.0,0.0,0.0,0.0,0.0,0.0,0.0,0.0,0.0,0.0,0.0626,0.0206,0.0,0.0,0.0,0.0,0.0,0.0,0.0,0.0,0.0,0.0,0.0,0.0,0.0,0.0,0.0,0.0,0.0,0.0,0.0,0.0,0.0,0.0,0.0,0.0,0.0,0.0,0.0,0.0,0.0,0.0,0.0,0.0,0.0,0.0,0.0,0.0,0.0,0.0,0.0,0.0,0.0,0.0,0.0,0.0,0.0,0.0,0.0,0.0,0.0,0.0,0.0,0.0,0.0,0.0,0.0,0.0,0.0,0.0,0.0,0.0,0.0,0.0,0.0,0.0,0.0,0.0,0.0,0.0,0.0,0.0,0.0,0.0,0.0,0.0,0.0,0.0,0.0,0.0,0.0,0.0,0.0,0.0,0.0,0.0,0.0,0.0,0.0,0.0,0.0,0.0,0.0,0.0,0.0,0.0,0.0,0.0,0.0,0.0,0.0,0.0,0.0,0.0,0.0,0.0,0.0,0.0,0.0,0.0,0.0,0.0,0.0,0.0,0.0,0.0962,0.0376,0.0,0.0,0.0,0.0078,0.0,0.0,0.0,0.0,0.0,0.0,0.0,0.0,0.0,0.0,0.0,0.0,0.0,0.0,0.0,0.0,0.0,0.0,0.0,0.0,0.0,0.0,0.0,0.0,0.0,0.0,0.0,0.0,0.0,0.0,0.0,0.0,0.0,0.0,0.0,0.0,0.0,0.0,0.0,0.0,0.0,0.0,0.0,0.0,0.0,0.0,0.0,0.0,0.0,0.0,0.0,0.0,0.0,0.0,0.0,0.0,0.0,0.0,0.0,0.0,0.0,0.0,0.0,0.0,0.0,0.0,0.0,0.0,0.0,0.0,0.0,0.0,0.0,0.0,0.0,0.0,0.0,0.0,0.0,0.0,0.0,0.0,0.0,0.0,0.0,0.0,0.0,0.0,0.0,0.0,0.0,0.0,0.0,0.0,0.0,0.0,0.0,0.0,0.0,0.0,0.0,0.0,0.0,0.0,0.0,0.0,0.0,0.0,0.0968,0.0952,0.0302,0.0,0.0,0.0,0.0226,0.0,0.0,0.0,0.0,0.0,0.0,0.0,0.0,0.0,0.0,0.0,0.0,0.0,0.0,0.0,0.0,0.0,0.0,0.0,0.0,0.0,0.0,0.0,0.0,0.0,0.0,0.0,0.0,0.0,0.0,0.0,0.0,0.0,0.0,0.0,0.0,0.0,0.0,0.0,0.0,0.0,0.0,0.0,0.0,0.0,0.0,0.0,0.0,0.0,0.0,0.0,0.0,0.0,0.0,0.0,0.0,0.0,0.0,0.0,0.0,0.0,0.0,0.0,0.0,0.0,0.0,0.0,0.0,0.0,0.0,0.0,0.0,0.0,0.0,0.0,0.0,0.0,0.0,0.0,0.0,0.0,0.0,0.0,0.0,0.0,0.0,0.0,0.0,0.0,0.0,0.0,0.0,0.0,0.0,0.0,0.0,0.0,0.0,0.0,0.0,0.0,0.0,0.0,0.0,0.0,0.0,0.0,0.0,0.0,0.0942,0.0,0.0184,0.0,0.0663,0.0794,0.0,0.0,0.0,0.0,0.0,0.0,0.0,0.0,0.0,0.0,0.0,0.0,0.0,0.0,0.0,0.0,0.0,0.0,0.0,0.0,0.0,0.0,0.0,0.0,0.0,0.0,0.0,0.0,0.0,0.0,0.0,0.0,0.0,0.0,0.0,0.0,0.0,0.0,0.0,0.0,0.0,0.0,0.0,0.0,0.0,0.0,0.0,0.0,0.0,0.0,0.0,0.0,0.0,0.0,0.0,0.0,0.0,0.0,0.0,0.0,0.0,0.0,0.0,0.0,0.0,0.0,0.0,0.0,0.0,0.0,0.0,0.0,0.0,0.0,0.0,0.0,0.0,0.0,0.0,0.0,0.0,0.0,0.0,0.0,0.0,0.0,0.0,0.0,0.0,0.0,0.0,0.0,0.0,0.0,0.0,0.0,0.0,0.0,0.0,0.0,0.0,0.0,0.0,0.0,0.0,0.0,0.0,0.0,0.0,0.095,0.0602,0.0586,0.1077,0.1156,0.1259,0.0,0.0,0.0,0.0,0.0,0.0,0.0,0.0,0.0,0.0,0.0,0.0,0.0,0.0,0.0,0.0,0.0,0.0,0.0,0.0,0.0,0.0,0.0,0.0,0.0,0.0,0.0,0.0,0.0,0.0,0.0,0.0,0.0,0.0,0.0,0.0,0.0,0.0,0.0,0.0,0.0,0.0,0.0,0.0,0.0,0.0,0.0,0.0,0.0,0.0,0.0,0.0,0.0,0.0,0.0,0.0,0.0,0.0,0.0,0.0,0.0,0.0,0.0,0.0,0.0,0.0,0.0,0.0,0.0,0.0,0.0,0.0,0.0,0.0,0.0,0.0,0.0,0.0,0.0,0.0,0.0,0.0,0.0,0.0,0.0,0.0,0.0,0.0,0.0,0.0,0.0,0.0,0.0,0.0,0.0,0.0,0.0,0.0,0.0,0.0,0.0,0.0,0.0,0.0,0.0,0.0,0.0,0.0,0.0,0.0,0.1039,0.1096,0.1147,0.1442,0.1521,0.0,0.0,0.0,0.0,0.0,0.0,0.0,0.0,0.0,0.0,0.0,0.0,0.0,0.0,0.0,0.0,0.0,0.0,0.0,0.0,0.0,0.0,0.0,0.0,0.0,0.0,0.0,0.0,0.0,0.0,0.0,0.0,0.0,0.0,0.0,0.0,0.0,0.0,0.0,0.0,0.0,0.0,0.0,0.0,0.0,0.0,0.0,0.0,0.0,0.0,0.0,0.0,0.0,0.0,0.0,0.0,0.0,0.0,0.0,0.0,0.0,0.0,0.0,0.0,0.0,0.0,0.0,0.0,0.0,0.0,0.0,0.0,0.0,0.0,0.0,0.0,0.0,0.0,0.0,0.0,0.0,0.0,0.0,0.0,0.0,0.0,0.0,0.0,0.0,0.0,0.0,0.0,0.0,0.0,0.0,0.0,0.0,0.0,0.0,0.0,0.0,0.0,0.0,0.0,0.0,0.0,0.0,0.0,0.0,0.0,0.2083,0.0,0.1397,0.2282,0.2789,0.2704,0.0,0.0,0.0,0.0,0.0,0.0,0.0,0.0,0.0,0.0,0.0,0.0,0.0,0.0,0.0,0.0,0.0,0.0,0.0,0.0,0.0,0.0,0.0,0.0,0.0,0.0,0.0,0.0,0.0,0.0,0.0,0.0,0.0,0.0,0.0,0.0,0.0,0.0,0.0,0.0,0.0,0.0,0.0,0.0,0.0,0.0,0.0,0.0,0.0,0.0,0.0,0.0,0.0,0.0,0.0,0.0,0.0,0.0,0.0,0.0,0.0,0.0,0.0,0.0,0.0,0.0,0.0,0.0,0.0,0.0,0.0,0.0,0.0,0.0,0.0,0.0,0.0,0.0,0.0,0.0,0.0,0.0,0.0,0.0,0.0,0.0,0.0,0.0,0.0,0.0,0.0,0.0,0.0,0.0,0.0,0.0,0.0,0.0,0.0,0.0,0.0,0.0,0.0,0.0,0.0,0.0,0.0,0.0,0.0,0.0,0.0,0.2431,0.2958,0.3351,0.0,0.0,0.0,0.0,0.0,0.0,0.0,0.0,0.0,0.0,0.0,0.0,0.0,0.0,0.0,0.0,0.0,0.0,0.0,0.0,0.0,0.0,0.0,0.0,0.0,0.0,0.0,0.0,0.0,0.0,0.0,0.0,0.0,0.0,0.0,0.0,0.0,0.0,0.0,0.0,0.0,0.0,0.0,0.0,0.0,0.0,0.0,0.0,0.0,0.0,0.0,0.0,0.0,0.0,0.0,0.0,0.0,0.0,0.0,0.0,0.0,0.0,0.0,0.0,0.0,0.0,0.0,0.0,0.0,0.0,0.0,0.0,0.0,0.0,0.0,0.0,0.0,0.0,0.0,0.0,0.0,0.0,0.0,0.0,0.0,0.0,0.0,0.0,0.0,0.0,0.0,0.0,0.0,0.0,0.0,0.0,0.0,0.0,0.0,0.0,0.0,0.0,0.0,0.0,0.0,0.0,0.0,0.0,0.0,0.0,0.0,0.3516,0.3902,0.3743,0.0,0.3439,0.0,0.0,0.0,0.0,0.0,0.0,0.0,0.0,0.0,0.0,0.0,0.0,0.0,0.0,0.0,0.0,0.0,0.0,0.0,0.0,0.0,0.0,0.0,0.0,0.0,0.0,0.0,0.0,0.0,0.0,0.0,0.0,0.0,0.0,0.0,0.0,0.0,0.0,0.0,0.0,0.0,0.0,0.0,0.0,0.0,0.0,0.0,0.0,0.0,0.0,0.0,0.0,0.0,0.0,0.0,0.0,0.0,0.0,0.0,0.0,0.0,0.0,0.0,0.0,0.0,0.0,0.0,0.0,0.0,0.0,0.0,0.0,0.0,0.0,0.0,0.0,0.0,0.0,0.0,0.0,0.0,0.0,0.0,0.0,0.0,0.0,0.0,0.0,0.0,0.0,0.0,0.0,0.0,0.0,0.0,0.0,0.0,0.0,0.0,0.0,0.0,0.0,0.0,0.0,0.0,0.0,0.0,0.0,0.0,0.0,0.0,0.0,0.542,0.569,0.4557,0.0,0.0,0.0,0.0,0.0,0.0,0.0,0.0,0.0,0.0,0.0,0.0,0.0,0.0,0.0,0.0,0.0,0.0,0.0,0.0,0.0,0.0,0.0,0.0,0.0,0.0,0.0,0.0,0.0,0.0,0.0,0.0,0.0,0.0,0.0,0.0,0.0,0.0,0.0,0.0,0.0,0.0,0.0,0.0,0.0,0.0,0.0,0.0,0.0,0.0,0.0,0.0,0.0,0.0,0.0,0.0,0.0,0.0,0.0,0.0,0.0,0.0,0.0,0.0,0.0,0.0,0.0,0.0,0.0,0.0,0.0,0.0,0.0,0.0,0.0,0.0,0.0,0.0,0.0,0.0,0.0,0.0,0.0,0.0,0.0,0.0,0.0,0.0,0.0,0.0,0.0,0.0,0.0,0.0,0.0,0.0,0.0,0.0,0.0,0.0,0.0,0.0,0.0,0.0,0.0,0.0,0.0,0.0,0.0,0.0,0.558,0.4662,0.5928,0.5993,0.4892,0.0,0.0,0.0,0.0,0.0,0.0,0.0,0.0,0.0,0.0,0.0,0.0,0.0,0.0,0.0,0.0,0.0,0.0,0.0,0.0,0.0,0.0,0.0,0.0,0.0,0.0,0.0,0.0,0.0,0.0,0.0,0.0,0.0,0.0,0.0,0.0,0.0,0.0,0.0,0.0,0.0,0.0,0.0,0.0,0.0,0.0,0.0,0.0,0.0,0.0,0.0,0.0,0.0,0.0,0.0,0.0,0.0,0.0,0.0,0.0,0.0,0.0,0.0,0.0,0.0,0.0,0.0,0.0,0.0,0.0,0.0,0.0,0.0,0.0,0.0,0.0,0.0,0.0,0.0,0.0,0.0,0.0,0.0,0.0,0.0,0.0,0.0,0.0,0.0,0.0,0.0,0.0,0.0,0.0,0.0,0.0,0.0,0.0,0.0,0.0,0.0,0.0,0.0,0.0,0.0,0.0,0.0,0.0,0.0,0.0,0.0,0.0,0.0,0.0,0.506,0.0,0.0,0.0,0.0,0.0,0.0,0.0,0.0,0.0,0.0,0.0,0.0,0.0,0.0,0.0,0.0,0.0,0.0,0.0,0.0,0.0,0.0,0.0,0.0,0.0,0.0,0.0,0.0,0.0,0.0,0.0,0.0,0.0,0.0,0.0,0.0,0.0,0.0,0.0,0.0,0.0,0.0,0.0,0.0,0.0,0.0,0.0,0.0,0.0,0.0,0.0,0.0,0.0,0.0,0.0,0.0,0.0,0.0,0.0,0.0,0.0,0.0,0.0,0.0,0.0,0.0,0.0,0.0,0.0,0.0,0.0,0.0,0.0,0.0,0.0,0.0,0.0,0.0,0.0,0.0,0.0,0.0,0.0,0.0,0.0,0.0,0.0,0.0,0.0,0.0,0.0,0.0,0.0,0.0,0.0,0.0,0.0,0.0,0.0,0.0,0.0,0.0,0.0,0.0,0.0,0.0,0.0,0.0,0.0,0.0,0.0,0.0,0.0,0.0,0.0,0.0,0.0,0.0,0.0,0.0,0.0,0.0,0.0,0.0,0.0,0.0,0.0,0.0,0.0,0.0,0.0,0.0,0.0,0.0,0.0,0.0,0.0,0.0,0.0,0.0,0.0,0.0,0.0,0.0,0.0,0.0,0.0,0.0,0.0,0.0,0.0,0.0,0.0,0.0,0.0,0.0,0.0,0.0,0.0,0.0,0.0,0.0,0.0,0.0,0.0,0.0,0.0,0.0,0.0,0.0,0.0,0.0,0.0,0.0,0.0,0.0,0.0,0.0,0.0,0.0,0.0,0.0,0.0,0.0,0.0,0.0,0.0,0.0,0.0,0.0,0.0,0.0,0.0,0.0,0.0,0.0,0.0,0.0,0.0,0.0,0.0,0.0,0.0,0.0,0.0,0.0,0.0,0.0,0.0,0.0,0.0,0.0,0.0,0.0,0.0,0.0,0.0,0.0,0.0,0.0,0.0,0.0,0.0,0.0,0.0,0.0,0.0,0.0,0.0,0.0,0.0,0.0,0.0,0.0,0.0,0.0,0.0,0.0,0.0,0.0,0.0,0.0,0.0,0.0,0.0,0.0,0.0,0.0,0.0,0.0,0.0,0.0,0.0,0.0,0.0,0.0,0.0,0.0,0.0,0.0,0.0,0.0,0.0,0.0,0.0,0.0,0.0,0.0,0.0,0.0,0.0,0.0,0.0,0.0,0.0,0.0,0.0,0.0,0.0,0.0,0.0,0.0,0.0,0.0,0.0,0.0,0.0,0.0,0.0,0.0,0.0,0.0,0.0,0.0,0.0,0.0,0.0,0.0,0.0,0.0,0.0,0.0,0.0,0.0,0.0,0.0,0.0,0.0,0.0,0.0,0.0,0.0,0.0,0.0,0.0,0.0,0.0,0.0,0.0,0.0,0.0,0.0,0.0,0.0,0.0,0.0,0.0,0.0,0.0,0.0,0.0,0.0,0.0,0.0,0.0,0.0,0.0,0.0,0.0,0.0,0.0,0.0,0.0,0.0,0.0,0.0,0.0,0.0,0.0,0.0,0.0,0.0,0.0,0.0,0.0,0.0,0.0,0.0,0.0,0.0,0.0,0.0,0.0,0.0,0.0,0.0,0.0,0.0,0.0,0.0,0.0,0.0,0.0,0.0,0.0,0.0,0.0,0.0,0.0,0.0,0.0,0.0,0.0,0.0,0.0,0.0,0.0,0.0,0.0,0.0,0.0,0.0,0.0,0.0,0.0,0.0,0.0,0.0,0.0,0.0,0.0,0.0,0.0,0.0,0.0,0.0,0.0,0.0,0.0,0.0,0.0,0.0,0.0,0.0,0.0,0.0,0.0,0.0,0.0,0.0,0.0,0.0,0.0,0.0,0.0,0.0,0.0,0.0,0.0,0.0,0.0,0.0,0.0,0.0,0.0,0.0,0.0,0.0,0.0,0.0,0.0,0.0,0.0,0.0,0.0,0.0,0.0,0.0,0.0,0.0,0.0,0.0,0.0,0.0,0.0,0.0,0.0,0.0,0.0,0.0,0.0,0.0,0.0,0.0,0.0,0.0,0.0,0.0,0.0,0.0,0.0,0.0,0.0,0.0,0.0,0.0,0.0,0.0,0.0,0.0,0.0,0.0,0.0,0.0,0.0,0.0,0.0,0.0,0.0,0.0,0.0,0.0,0.0,0.0,0.0,0.0,0.0,0.0,0.0,0.0,0.0,0.0,0.0,0.0,0.0,0.0,0.0,0.0,0.0,0.0,0.0,0.0,0.0,0.0,0.0,0.0,0.0,0.0,0.0,0.0,0.0,0.0,0.0,0.0,0.0,0.0,0.0,0.0,0.0,0.0,0.0,0.0,0.0,0.0,0.0,0.0,0.0,0.0,0.0,0.0,0.0,0.0,0.0,0.0,0.0,0.0,0.0,0.0,0.0,0.0,0.0,0.0,0.0,0.0,0.0,0.0,0.0,0.0,0.0,0.0,0.0,0.0,0.0,0.0,0.0,0.0,0.0,0.0,0.0,0.0,0.0,0.0,0.0,0.0,0.0,0.0,0.0,0.0,0.0,0.0,0.0,0.0,0.0,0.0,0.0,0.0,0.0,0.0,0.0,0.0,0.0,0.0,0.0,0.0,0.0,0.0,0.0,0.0,0.0,0.0,0.0,0.0,0.0,0.0,0.0,0.0,0.0,0.0,0.0,0.0,0.0,0.0,0.0,0.0,0.0,0.0,0.0,0.0,0.0,0.0,0.0,0.0,0.0,0.0,0.0,0.0,0.0,0.0,0.0,0.0,0.0,0.0,0.0,0.0,0.0,0.0,0.0,0.0,0.0,0.0,0.0,0.0,0.0,0.0,0.0,0.0,0.0,0.0,0.0,0.0,0.0,0.0,0.0,0.0,0.0,0.0,0.0,0.0,0.0,0.0,0.0,0.0,0.0,0.0,0.0,0.0,0.0,0.0,0.0,0.0,0.0,0.0,0.0,0.0,0.0,0.0,0.0,0.0,0.0,0.0,0.0,0.0,0.0,0.0,0.0,0.0,0.0,0.0,0.0,0.0,0.0,0.0,0.0,0.0,0.0,0.0,0.0,0.0,0.0,0.0,0.0,0.0,0.0,0.0,0.0,0.0,0.0,0.0,0.0,0.0,0.0,0.0,0.0,0.0,0.0,0.0,0.0,0.0,0.0,0.0,0.0,0.0,0.0,0.0,0.0,0.0,0.0,0.0,0.0,0.0,0.0,0.0,0.0,0.0,0.0,0.0,0.0,0.0,0.0,0.0,0.0,0.0,0.0,0.0,0.0,0.0,0.0,0.0,0.0,0.0,0.0,0.0,0.0,0.0,0.0,0.0,0.0,0.0,0.0,0.0,0.0,0.0,0.0,0.0,0.0,0.0,0.0,0.0,0.0,0.0,0.0,0.0,0.0,0.0,0.0,0.0,0.0,0.0,0.0,0.0,0.0,0.0,0.0,0.0,0.0,0.0,0.0,0.0,0.0,0.0,0.0,0.0,0.0,0.0,0.0,0.0,0.0,0.0,0.0,0.0,0.0,0.0,0.0,0.0,0.0,0.0,0.0,0.0,0.0,0.0,0.0,0.0,0.0,0.0,0.0,0.0,0.0,0.0,0.0,0.0,0.0,0.0,0.0,0.0,0.0,0.0,0.0,0.0,0.0,0.0,0.0,0.0,0.0,0.0,0.0,0.0,0.0,0.0,0.0,0.0,0.0,0.0,0.0,0.0,0.0,0.0,0.0,0.0,0.0,0.0,0.0,0.0,0.0,0.0,0.0,0.0,0.0,0.0,0.0,0.0,0.0,0.0,0.0,0.0,0.0,0.0,0.0,0.0,0.0,0.0,0.0,0.0,0.0,0.0,0.0,0.0,0.0,0.0,0.0,0.0,0.0,0.0,0.0,0.0,0.0,0.0,0.0,0.0,0.0,0.0,0.0,0.0,0.0,0.0,0.0,0.0,0.0,0.0,0.0,0.0,0.0,0.0,0.0,0.0,0.0,0.0,0.0,0.0,0.0,0.0,0.0,0.0,0.0,0.0,0.0,0.0,0.0,0.0,0.0,0.0,0.0,0.0,0.0,0.0,0.0,0.0,0.0,0.0,0.0,0.0,0.0,0.0,0.0,0.0,0.0,0.0,0.0,0.0,0.0,0.0,0.0,0.0,0.0,0.0,0.0,0.0,0.0,0.0,0.0,0.0,0.0,0.0,0.0,0.0,0.0,0.0,0.0,0.0,0.0,0.0,0.0,0.0,0.0,0.0,0.0,0.0,0.0,0.0,0.0,0.0,0.0,0.0,0.0,0.0,0.0,0.0,0.0,0.0,0.0,0.0,0.0,0.0,0.0,0.0,0.0,0.0,0.0,0.0]}]]]